<?xml version="1.0" encoding="UTF-8" standalone="no" ?>
<gpx xmlns="http://www.topografix.com/GPX/1/1" xmlns:xsi="http://www.w3.org/2001/XMLSchema-instance" xsi:schemaLocation="http://www.topografix.com/GPX/1/1 http://www.topografix.com/GPX/1/1/gpx.xsd" version="1.1" creator="VisuGPX - https://www.visugpx.com">
  <metadata>
    <name>Gréasque Les Puits de Mines *(Gréasque 13)</name>
    <desc><![CDATA[Le tour des Puits de Mines à Gréasque
]]></desc>
  </metadata>
  <trk>
    <name><![CDATA[greasque 2017]]></name>
    <trkseg>
      <trkpt lat="43.43217" lon="5.54689">
        <ele>310</ele>
        <time>2017-03-03T08:59:13Z</time>
      </trkpt>
      <trkpt lat="43.43212" lon="5.54696">
        <ele>310</ele>
        <time>2017-03-03T08:59:13Z</time>
      </trkpt>
      <trkpt lat="43.43211" lon="5.547">
        <ele>310</ele>
        <time>2017-03-03T08:59:13Z</time>
      </trkpt>
      <trkpt lat="43.43211" lon="5.54706">
        <ele>310</ele>
        <time>2017-03-03T08:59:13Z</time>
      </trkpt>
      <trkpt lat="43.43212" lon="5.54712">
        <ele>312</ele>
        <time>2017-03-03T08:59:29Z</time>
      </trkpt>
      <trkpt lat="43.43212" lon="5.54718">
        <ele>312</ele>
        <time>2017-03-03T08:59:29Z</time>
      </trkpt>
      <trkpt lat="43.43211" lon="5.54723">
        <ele>312</ele>
        <time>2017-03-03T08:59:29Z</time>
      </trkpt>
      <trkpt lat="43.43211" lon="5.54725">
        <ele>312</ele>
        <time>2017-03-03T08:59:29Z</time>
      </trkpt>
      <trkpt lat="43.43211" lon="5.54728">
        <ele>312</ele>
        <time>2017-03-03T08:59:45Z</time>
      </trkpt>
      <trkpt lat="43.4321" lon="5.54733">
        <ele>312</ele>
        <time>2017-03-03T08:59:45Z</time>
      </trkpt>
      <trkpt lat="43.43209" lon="5.54739">
        <ele>312</ele>
        <time>2017-03-03T08:59:45Z</time>
      </trkpt>
      <trkpt lat="43.4321" lon="5.54743">
        <ele>312</ele>
        <time>2017-03-03T08:59:45Z</time>
      </trkpt>
      <trkpt lat="43.43214" lon="5.54754">
        <ele>312</ele>
        <time>2017-03-03T09:01:17Z</time>
      </trkpt>
      <trkpt lat="43.43214" lon="5.54755">
        <ele>312</ele>
        <time>2017-03-03T09:01:17Z</time>
      </trkpt>
      <trkpt lat="43.43213" lon="5.54757">
        <ele>312</ele>
        <time>2017-03-03T09:01:17Z</time>
      </trkpt>
      <trkpt lat="43.43212" lon="5.5476">
        <ele>312</ele>
        <time>2017-03-03T09:01:17Z</time>
      </trkpt>
      <trkpt lat="43.4321" lon="5.54767">
        <ele>312</ele>
        <time>2017-03-03T09:01:17Z</time>
      </trkpt>
      <trkpt lat="43.43208" lon="5.54772">
        <ele>315</ele>
        <time>2017-03-03T09:01:33Z</time>
      </trkpt>
      <trkpt lat="43.43206" lon="5.54777">
        <ele>315</ele>
        <time>2017-03-03T09:01:33Z</time>
      </trkpt>
      <trkpt lat="43.43206" lon="5.54782">
        <ele>315</ele>
        <time>2017-03-03T09:01:33Z</time>
      </trkpt>
      <trkpt lat="43.43204" lon="5.54787">
        <ele>315</ele>
        <time>2017-03-03T09:01:33Z</time>
      </trkpt>
      <trkpt lat="43.43202" lon="5.54793">
        <ele>311</ele>
        <time>2017-03-03T09:01:49Z</time>
      </trkpt>
      <trkpt lat="43.432" lon="5.54798">
        <ele>311</ele>
        <time>2017-03-03T09:01:49Z</time>
      </trkpt>
      <trkpt lat="43.43198" lon="5.54802">
        <ele>311</ele>
        <time>2017-03-03T09:01:49Z</time>
      </trkpt>
      <trkpt lat="43.43196" lon="5.54806">
        <ele>311</ele>
        <time>2017-03-03T09:01:49Z</time>
      </trkpt>
      <trkpt lat="43.43193" lon="5.54812">
        <ele>311</ele>
        <time>2017-03-03T09:02:05Z</time>
      </trkpt>
      <trkpt lat="43.43191" lon="5.54816">
        <ele>311</ele>
        <time>2017-03-03T09:02:05Z</time>
      </trkpt>
      <trkpt lat="43.4319" lon="5.54821">
        <ele>311</ele>
        <time>2017-03-03T09:02:05Z</time>
      </trkpt>
      <trkpt lat="43.4319" lon="5.54824">
        <ele>311</ele>
        <time>2017-03-03T09:02:05Z</time>
      </trkpt>
      <trkpt lat="43.43189" lon="5.54836">
        <ele>311</ele>
        <time>2017-03-03T09:03:09Z</time>
      </trkpt>
      <trkpt lat="43.43189" lon="5.54837">
        <ele>311</ele>
        <time>2017-03-03T09:03:09Z</time>
      </trkpt>
      <trkpt lat="43.43189" lon="5.54841">
        <ele>311</ele>
        <time>2017-03-03T09:03:09Z</time>
      </trkpt>
      <trkpt lat="43.43189" lon="5.54845">
        <ele>311</ele>
        <time>2017-03-03T09:03:09Z</time>
      </trkpt>
      <trkpt lat="43.43189" lon="5.54847">
        <ele>311</ele>
        <time>2017-03-03T09:03:09Z</time>
      </trkpt>
      <trkpt lat="43.43183" lon="5.54856">
        <ele>311</ele>
        <time>2017-03-03T09:03:37Z</time>
      </trkpt>
      <trkpt lat="43.43183" lon="5.54855">
        <ele>311</ele>
        <time>2017-03-03T09:03:37Z</time>
      </trkpt>
      <trkpt lat="43.43182" lon="5.54855">
        <ele>311</ele>
        <time>2017-03-03T09:03:37Z</time>
      </trkpt>
      <trkpt lat="43.43182" lon="5.54855">
        <ele>311</ele>
        <time>2017-03-03T09:03:37Z</time>
      </trkpt>
      <trkpt lat="43.43178" lon="5.54855">
        <ele>311</ele>
        <time>2017-03-03T09:03:37Z</time>
      </trkpt>
      <trkpt lat="43.43174" lon="5.54855">
        <ele>311</ele>
        <time>2017-03-03T09:03:53Z</time>
      </trkpt>
      <trkpt lat="43.43169" lon="5.54854">
        <ele>311</ele>
        <time>2017-03-03T09:03:53Z</time>
      </trkpt>
      <trkpt lat="43.43167" lon="5.54853">
        <ele>311</ele>
        <time>2017-03-03T09:03:53Z</time>
      </trkpt>
      <trkpt lat="43.43165" lon="5.54853">
        <ele>311</ele>
        <time>2017-03-03T09:03:53Z</time>
      </trkpt>
      <trkpt lat="43.43162" lon="5.54852">
        <ele>311</ele>
        <time>2017-03-03T09:04:09Z</time>
      </trkpt>
      <trkpt lat="43.4316" lon="5.54851">
        <ele>311</ele>
        <time>2017-03-03T09:04:09Z</time>
      </trkpt>
      <trkpt lat="43.43157" lon="5.5485">
        <ele>311</ele>
        <time>2017-03-03T09:04:09Z</time>
      </trkpt>
      <trkpt lat="43.43152" lon="5.54848">
        <ele>311</ele>
        <time>2017-03-03T09:04:09Z</time>
      </trkpt>
      <trkpt lat="43.43148" lon="5.54847">
        <ele>311</ele>
        <time>2017-03-03T09:04:25Z</time>
      </trkpt>
      <trkpt lat="43.43146" lon="5.54845">
        <ele>311</ele>
        <time>2017-03-03T09:04:25Z</time>
      </trkpt>
      <trkpt lat="43.43142" lon="5.54843">
        <ele>311</ele>
        <time>2017-03-03T09:04:25Z</time>
      </trkpt>
      <trkpt lat="43.43141" lon="5.54839">
        <ele>311</ele>
        <time>2017-03-03T09:04:25Z</time>
      </trkpt>
      <trkpt lat="43.43138" lon="5.54836">
        <ele>311</ele>
        <time>2017-03-03T09:04:41Z</time>
      </trkpt>
      <trkpt lat="43.43137" lon="5.54831">
        <ele>311</ele>
        <time>2017-03-03T09:04:41Z</time>
      </trkpt>
      <trkpt lat="43.43134" lon="5.54828">
        <ele>311</ele>
        <time>2017-03-03T09:04:41Z</time>
      </trkpt>
      <trkpt lat="43.43131" lon="5.54825">
        <ele>311</ele>
        <time>2017-03-03T09:04:41Z</time>
      </trkpt>
      <trkpt lat="43.43129" lon="5.54825">
        <ele>311</ele>
        <time>2017-03-03T09:05:01Z</time>
      </trkpt>
      <trkpt lat="43.43127" lon="5.54828">
        <ele>311</ele>
        <time>2017-03-03T09:05:01Z</time>
      </trkpt>
      <trkpt lat="43.43127" lon="5.54833">
        <ele>311</ele>
        <time>2017-03-03T09:05:01Z</time>
      </trkpt>
      <trkpt lat="43.43129" lon="5.54836">
        <ele>311</ele>
        <time>2017-03-03T09:05:01Z</time>
      </trkpt>
      <trkpt lat="43.4313" lon="5.54842">
        <ele>311</ele>
        <time>2017-03-03T09:05:01Z</time>
      </trkpt>
      <trkpt lat="43.4313" lon="5.54844">
        <ele>311</ele>
        <time>2017-03-03T09:05:17Z</time>
      </trkpt>
      <trkpt lat="43.4313" lon="5.54845">
        <ele>311</ele>
        <time>2017-03-03T09:05:17Z</time>
      </trkpt>
      <trkpt lat="43.43132" lon="5.54849">
        <ele>311</ele>
        <time>2017-03-03T09:05:17Z</time>
      </trkpt>
      <trkpt lat="43.43133" lon="5.54855">
        <ele>311</ele>
        <time>2017-03-03T09:05:17Z</time>
      </trkpt>
      <trkpt lat="43.43135" lon="5.5486">
        <ele>311</ele>
        <time>2017-03-03T09:05:33Z</time>
      </trkpt>
      <trkpt lat="43.43137" lon="5.54865">
        <ele>311</ele>
        <time>2017-03-03T09:05:33Z</time>
      </trkpt>
      <trkpt lat="43.43138" lon="5.5487">
        <ele>311</ele>
        <time>2017-03-03T09:05:33Z</time>
      </trkpt>
      <trkpt lat="43.43142" lon="5.54874">
        <ele>311</ele>
        <time>2017-03-03T09:05:33Z</time>
      </trkpt>
      <trkpt lat="43.43145" lon="5.54876">
        <ele>302</ele>
        <time>2017-03-03T09:05:49Z</time>
      </trkpt>
      <trkpt lat="43.4315" lon="5.54878">
        <ele>302</ele>
        <time>2017-03-03T09:05:49Z</time>
      </trkpt>
      <trkpt lat="43.43154" lon="5.54881">
        <ele>302</ele>
        <time>2017-03-03T09:05:49Z</time>
      </trkpt>
      <trkpt lat="43.43157" lon="5.54882">
        <ele>302</ele>
        <time>2017-03-03T09:05:49Z</time>
      </trkpt>
      <trkpt lat="43.4316" lon="5.54885">
        <ele>302</ele>
        <time>2017-03-03T09:06:05Z</time>
      </trkpt>
      <trkpt lat="43.43165" lon="5.54885">
        <ele>302</ele>
        <time>2017-03-03T09:06:05Z</time>
      </trkpt>
      <trkpt lat="43.43168" lon="5.54887">
        <ele>302</ele>
        <time>2017-03-03T09:06:05Z</time>
      </trkpt>
      <trkpt lat="43.43168" lon="5.5489">
        <ele>302</ele>
        <time>2017-03-03T09:06:05Z</time>
      </trkpt>
      <trkpt lat="43.43163" lon="5.54893">
        <ele>302</ele>
        <time>2017-03-03T09:06:25Z</time>
      </trkpt>
      <trkpt lat="43.43161" lon="5.54895">
        <ele>302</ele>
        <time>2017-03-03T09:06:25Z</time>
      </trkpt>
      <trkpt lat="43.43159" lon="5.54898">
        <ele>302</ele>
        <time>2017-03-03T09:06:25Z</time>
      </trkpt>
      <trkpt lat="43.43156" lon="5.54898">
        <ele>302</ele>
        <time>2017-03-03T09:06:25Z</time>
      </trkpt>
      <trkpt lat="43.43154" lon="5.54898">
        <ele>302</ele>
        <time>2017-03-03T09:06:25Z</time>
      </trkpt>
      <trkpt lat="43.43152" lon="5.54899">
        <ele>302</ele>
        <time>2017-03-03T09:06:49Z</time>
      </trkpt>
      <trkpt lat="43.43152" lon="5.54904">
        <ele>302</ele>
        <time>2017-03-03T09:06:49Z</time>
      </trkpt>
      <trkpt lat="43.43152" lon="5.54907">
        <ele>302</ele>
        <time>2017-03-03T09:06:49Z</time>
      </trkpt>
      <trkpt lat="43.43153" lon="5.54909">
        <ele>302</ele>
        <time>2017-03-03T09:06:49Z</time>
      </trkpt>
      <trkpt lat="43.43152" lon="5.54911">
        <ele>302</ele>
        <time>2017-03-03T09:06:49Z</time>
      </trkpt>
      <trkpt lat="43.43152" lon="5.54915">
        <ele>302</ele>
        <time>2017-03-03T09:07:05Z</time>
      </trkpt>
      <trkpt lat="43.43152" lon="5.54917">
        <ele>302</ele>
        <time>2017-03-03T09:07:05Z</time>
      </trkpt>
      <trkpt lat="43.43152" lon="5.54923">
        <ele>302</ele>
        <time>2017-03-03T09:07:05Z</time>
      </trkpt>
      <trkpt lat="43.43155" lon="5.54928">
        <ele>302</ele>
        <time>2017-03-03T09:07:05Z</time>
      </trkpt>
      <trkpt lat="43.43155" lon="5.5493">
        <ele>302</ele>
        <time>2017-03-03T09:07:33Z</time>
      </trkpt>
      <trkpt lat="43.43155" lon="5.5493">
        <ele>302</ele>
        <time>2017-03-03T09:07:33Z</time>
      </trkpt>
      <trkpt lat="43.43155" lon="5.5493">
        <ele>302</ele>
        <time>2017-03-03T09:07:33Z</time>
      </trkpt>
      <trkpt lat="43.43153" lon="5.5493">
        <ele>302</ele>
        <time>2017-03-03T09:07:33Z</time>
      </trkpt>
      <trkpt lat="43.43146" lon="5.54929">
        <ele>302</ele>
        <time>2017-03-03T09:07:33Z</time>
      </trkpt>
      <trkpt lat="43.43137" lon="5.54925">
        <ele>302</ele>
        <time>2017-03-03T09:09:25Z</time>
      </trkpt>
      <trkpt lat="43.43136" lon="5.54924">
        <ele>302</ele>
        <time>2017-03-03T09:09:25Z</time>
      </trkpt>
      <trkpt lat="43.43134" lon="5.54923">
        <ele>302</ele>
        <time>2017-03-03T09:09:25Z</time>
      </trkpt>
      <trkpt lat="43.43131" lon="5.54921">
        <ele>302</ele>
        <time>2017-03-03T09:09:25Z</time>
      </trkpt>
      <trkpt lat="43.43129" lon="5.54919">
        <ele>302</ele>
        <time>2017-03-03T09:09:25Z</time>
      </trkpt>
      <trkpt lat="43.43126" lon="5.54916">
        <ele>302</ele>
        <time>2017-03-03T09:09:41Z</time>
      </trkpt>
      <trkpt lat="43.43123" lon="5.54914">
        <ele>302</ele>
        <time>2017-03-03T09:09:41Z</time>
      </trkpt>
      <trkpt lat="43.43121" lon="5.54911">
        <ele>302</ele>
        <time>2017-03-03T09:09:41Z</time>
      </trkpt>
      <trkpt lat="43.43118" lon="5.54907">
        <ele>302</ele>
        <time>2017-03-03T09:09:41Z</time>
      </trkpt>
      <trkpt lat="43.43116" lon="5.54904">
        <ele>302</ele>
        <time>2017-03-03T09:10:13Z</time>
      </trkpt>
      <trkpt lat="43.43118" lon="5.54906">
        <ele>302</ele>
        <time>2017-03-03T09:10:13Z</time>
      </trkpt>
      <trkpt lat="43.43122" lon="5.54907">
        <ele>302</ele>
        <time>2017-03-03T09:10:13Z</time>
      </trkpt>
      <trkpt lat="43.43126" lon="5.5491">
        <ele>302</ele>
        <time>2017-03-03T09:10:13Z</time>
      </trkpt>
      <trkpt lat="43.43128" lon="5.54913">
        <ele>302</ele>
        <time>2017-03-03T09:10:13Z</time>
      </trkpt>
      <trkpt lat="43.43127" lon="5.54918">
        <ele>302</ele>
        <time>2017-03-03T09:10:49Z</time>
      </trkpt>
      <trkpt lat="43.43126" lon="5.54916">
        <ele>302</ele>
        <time>2017-03-03T09:10:49Z</time>
      </trkpt>
      <trkpt lat="43.43122" lon="5.54914">
        <ele>302</ele>
        <time>2017-03-03T09:10:49Z</time>
      </trkpt>
      <trkpt lat="43.4312" lon="5.5491">
        <ele>302</ele>
        <time>2017-03-03T09:10:49Z</time>
      </trkpt>
      <trkpt lat="43.43117" lon="5.54909">
        <ele>302</ele>
        <time>2017-03-03T09:10:49Z</time>
      </trkpt>
      <trkpt lat="43.43112" lon="5.54906">
        <ele>302</ele>
        <time>2017-03-03T09:11:49Z</time>
      </trkpt>
      <trkpt lat="43.43116" lon="5.5491">
        <ele>302</ele>
        <time>2017-03-03T09:11:49Z</time>
      </trkpt>
      <trkpt lat="43.43121" lon="5.54913">
        <ele>302</ele>
        <time>2017-03-03T09:11:49Z</time>
      </trkpt>
      <trkpt lat="43.43125" lon="5.54916">
        <ele>302</ele>
        <time>2017-03-03T09:11:49Z</time>
      </trkpt>
      <trkpt lat="43.43129" lon="5.54918">
        <ele>302</ele>
        <time>2017-03-03T09:11:49Z</time>
      </trkpt>
      <trkpt lat="43.43131" lon="5.5492">
        <ele>302</ele>
        <time>2017-03-03T09:12:09Z</time>
      </trkpt>
      <trkpt lat="43.43133" lon="5.54921">
        <ele>302</ele>
        <time>2017-03-03T09:12:09Z</time>
      </trkpt>
      <trkpt lat="43.43135" lon="5.54922">
        <ele>302</ele>
        <time>2017-03-03T09:12:09Z</time>
      </trkpt>
      <trkpt lat="43.43137" lon="5.54924">
        <ele>302</ele>
        <time>2017-03-03T09:12:09Z</time>
      </trkpt>
      <trkpt lat="43.43141" lon="5.54926">
        <ele>302</ele>
        <time>2017-03-03T09:12:09Z</time>
      </trkpt>
      <trkpt lat="43.43144" lon="5.54928">
        <ele>302</ele>
        <time>2017-03-03T09:12:25Z</time>
      </trkpt>
      <trkpt lat="43.43147" lon="5.54933">
        <ele>302</ele>
        <time>2017-03-03T09:12:25Z</time>
      </trkpt>
      <trkpt lat="43.43151" lon="5.5494">
        <ele>302</ele>
        <time>2017-03-03T09:12:25Z</time>
      </trkpt>
      <trkpt lat="43.43153" lon="5.54941">
        <ele>302</ele>
        <time>2017-03-03T09:12:25Z</time>
      </trkpt>
      <trkpt lat="43.43153" lon="5.54941">
        <ele>302</ele>
        <time>2017-03-03T09:12:49Z</time>
      </trkpt>
      <trkpt lat="43.43153" lon="5.5494">
        <ele>302</ele>
        <time>2017-03-03T09:12:49Z</time>
      </trkpt>
      <trkpt lat="43.43151" lon="5.54937">
        <ele>302</ele>
        <time>2017-03-03T09:12:49Z</time>
      </trkpt>
      <trkpt lat="43.43149" lon="5.54932">
        <ele>302</ele>
        <time>2017-03-03T09:12:49Z</time>
      </trkpt>
      <trkpt lat="43.43146" lon="5.5493">
        <ele>302</ele>
        <time>2017-03-03T09:12:49Z</time>
      </trkpt>
      <trkpt lat="43.43143" lon="5.54928">
        <ele>302</ele>
        <time>2017-03-03T09:13:09Z</time>
      </trkpt>
      <trkpt lat="43.43139" lon="5.54926">
        <ele>302</ele>
        <time>2017-03-03T09:13:09Z</time>
      </trkpt>
      <trkpt lat="43.43136" lon="5.54924">
        <ele>302</ele>
        <time>2017-03-03T09:13:09Z</time>
      </trkpt>
      <trkpt lat="43.43135" lon="5.54924">
        <ele>302</ele>
        <time>2017-03-03T09:13:09Z</time>
      </trkpt>
      <trkpt lat="43.43132" lon="5.54921">
        <ele>302</ele>
        <time>2017-03-03T09:13:09Z</time>
      </trkpt>
      <trkpt lat="43.43128" lon="5.5492">
        <ele>302</ele>
        <time>2017-03-03T09:13:25Z</time>
      </trkpt>
      <trkpt lat="43.43124" lon="5.54917">
        <ele>302</ele>
        <time>2017-03-03T09:13:25Z</time>
      </trkpt>
      <trkpt lat="43.43122" lon="5.54911">
        <ele>302</ele>
        <time>2017-03-03T09:13:25Z</time>
      </trkpt>
      <trkpt lat="43.43118" lon="5.54909">
        <ele>302</ele>
        <time>2017-03-03T09:13:25Z</time>
      </trkpt>
      <trkpt lat="43.43115" lon="5.54907">
        <ele>302</ele>
        <time>2017-03-03T09:13:45Z</time>
      </trkpt>
      <trkpt lat="43.43112" lon="5.54906">
        <ele>302</ele>
        <time>2017-03-03T09:13:45Z</time>
      </trkpt>
      <trkpt lat="43.4311" lon="5.54905">
        <ele>302</ele>
        <time>2017-03-03T09:13:45Z</time>
      </trkpt>
      <trkpt lat="43.43106" lon="5.54904">
        <ele>302</ele>
        <time>2017-03-03T09:13:45Z</time>
      </trkpt>
      <trkpt lat="43.43102" lon="5.54904">
        <ele>302</ele>
        <time>2017-03-03T09:13:45Z</time>
      </trkpt>
      <trkpt lat="43.43097" lon="5.54901">
        <ele>302</ele>
        <time>2017-03-03T09:14:01Z</time>
      </trkpt>
      <trkpt lat="43.43096" lon="5.54896">
        <ele>302</ele>
        <time>2017-03-03T09:14:01Z</time>
      </trkpt>
      <trkpt lat="43.43093" lon="5.54889">
        <ele>302</ele>
        <time>2017-03-03T09:14:01Z</time>
      </trkpt>
      <trkpt lat="43.43093" lon="5.54887">
        <ele>302</ele>
        <time>2017-03-03T09:14:01Z</time>
      </trkpt>
      <trkpt lat="43.43092" lon="5.54885">
        <ele>302</ele>
        <time>2017-03-03T09:14:29Z</time>
      </trkpt>
      <trkpt lat="43.43091" lon="5.54885">
        <ele>302</ele>
        <time>2017-03-03T09:14:29Z</time>
      </trkpt>
      <trkpt lat="43.43091" lon="5.54885">
        <ele>302</ele>
        <time>2017-03-03T09:14:29Z</time>
      </trkpt>
      <trkpt lat="43.43087" lon="5.54889">
        <ele>302</ele>
        <time>2017-03-03T09:14:29Z</time>
      </trkpt>
      <trkpt lat="43.43085" lon="5.54894">
        <ele>302</ele>
        <time>2017-03-03T09:14:29Z</time>
      </trkpt>
      <trkpt lat="43.43081" lon="5.54898">
        <ele>302</ele>
        <time>2017-03-03T09:14:45Z</time>
      </trkpt>
      <trkpt lat="43.43079" lon="5.54901">
        <ele>302</ele>
        <time>2017-03-03T09:14:45Z</time>
      </trkpt>
      <trkpt lat="43.43075" lon="5.54906">
        <ele>302</ele>
        <time>2017-03-03T09:14:45Z</time>
      </trkpt>
      <trkpt lat="43.43073" lon="5.54908">
        <ele>302</ele>
        <time>2017-03-03T09:14:45Z</time>
      </trkpt>
      <trkpt lat="43.43074" lon="5.54906">
        <ele>302</ele>
        <time>2017-03-03T09:15:33Z</time>
      </trkpt>
      <trkpt lat="43.43076" lon="5.54904">
        <ele>302</ele>
        <time>2017-03-03T09:15:33Z</time>
      </trkpt>
      <trkpt lat="43.4308" lon="5.54902">
        <ele>302</ele>
        <time>2017-03-03T09:15:33Z</time>
      </trkpt>
      <trkpt lat="43.43083" lon="5.54899">
        <ele>302</ele>
        <time>2017-03-03T09:15:33Z</time>
      </trkpt>
      <trkpt lat="43.43088" lon="5.5489">
        <ele>302</ele>
        <time>2017-03-03T09:15:33Z</time>
      </trkpt>
      <trkpt lat="43.4309" lon="5.54884">
        <ele>302</ele>
        <time>2017-03-03T09:15:49Z</time>
      </trkpt>
      <trkpt lat="43.43092" lon="5.54878">
        <ele>302</ele>
        <time>2017-03-03T09:15:49Z</time>
      </trkpt>
      <trkpt lat="43.43092" lon="5.54871">
        <ele>307</ele>
        <time>2017-03-03T09:15:49Z</time>
      </trkpt>
      <trkpt lat="43.43092" lon="5.54868">
        <ele>307</ele>
        <time>2017-03-03T09:15:49Z</time>
      </trkpt>
      <trkpt lat="43.43091" lon="5.54864">
        <ele>307</ele>
        <time>2017-03-03T09:16:25Z</time>
      </trkpt>
      <trkpt lat="43.43093" lon="5.54868">
        <ele>307</ele>
        <time>2017-03-03T09:16:25Z</time>
      </trkpt>
      <trkpt lat="43.43093" lon="5.54875">
        <ele>307</ele>
        <time>2017-03-03T09:16:25Z</time>
      </trkpt>
      <trkpt lat="43.43094" lon="5.5488">
        <ele>302</ele>
        <time>2017-03-03T09:16:25Z</time>
      </trkpt>
      <trkpt lat="43.43095" lon="5.54885">
        <ele>302</ele>
        <time>2017-03-03T09:16:25Z</time>
      </trkpt>
      <trkpt lat="43.43097" lon="5.54888">
        <ele>302</ele>
        <time>2017-03-03T09:17:45Z</time>
      </trkpt>
      <trkpt lat="43.43098" lon="5.54888">
        <ele>302</ele>
        <time>2017-03-03T09:17:45Z</time>
      </trkpt>
      <trkpt lat="43.43103" lon="5.5489">
        <ele>302</ele>
        <time>2017-03-03T09:17:45Z</time>
      </trkpt>
      <trkpt lat="43.43104" lon="5.54891">
        <ele>302</ele>
        <time>2017-03-03T09:17:45Z</time>
      </trkpt>
      <trkpt lat="43.43108" lon="5.54894">
        <ele>302</ele>
        <time>2017-03-03T09:17:45Z</time>
      </trkpt>
      <trkpt lat="43.43107" lon="5.54896">
        <ele>302</ele>
        <time>2017-03-03T09:18:01Z</time>
      </trkpt>
      <trkpt lat="43.43111" lon="5.54901">
        <ele>302</ele>
        <time>2017-03-03T09:18:01Z</time>
      </trkpt>
      <trkpt lat="43.43111" lon="5.54904">
        <ele>302</ele>
        <time>2017-03-03T09:18:01Z</time>
      </trkpt>
      <trkpt lat="43.43111" lon="5.54908">
        <ele>302</ele>
        <time>2017-03-03T09:18:01Z</time>
      </trkpt>
      <trkpt lat="43.4311" lon="5.54908">
        <ele>302</ele>
        <time>2017-03-03T09:21:25Z</time>
      </trkpt>
      <trkpt lat="43.43109" lon="5.54904">
        <ele>302</ele>
        <time>2017-03-03T09:21:25Z</time>
      </trkpt>
      <trkpt lat="43.43105" lon="5.54902">
        <ele>302</ele>
        <time>2017-03-03T09:21:25Z</time>
      </trkpt>
      <trkpt lat="43.43103" lon="5.54901">
        <ele>302</ele>
        <time>2017-03-03T09:21:25Z</time>
      </trkpt>
      <trkpt lat="43.43101" lon="5.54899">
        <ele>302</ele>
        <time>2017-03-03T09:21:25Z</time>
      </trkpt>
      <trkpt lat="43.43093" lon="5.54895">
        <ele>302</ele>
        <time>2017-03-03T09:21:57Z</time>
      </trkpt>
      <trkpt lat="43.43093" lon="5.54895">
        <ele>302</ele>
        <time>2017-03-03T09:21:57Z</time>
      </trkpt>
      <trkpt lat="43.43093" lon="5.54895">
        <ele>302</ele>
        <time>2017-03-03T09:21:57Z</time>
      </trkpt>
      <trkpt lat="43.43092" lon="5.54895">
        <ele>302</ele>
        <time>2017-03-03T09:21:57Z</time>
      </trkpt>
      <trkpt lat="43.43091" lon="5.54892">
        <ele>302</ele>
        <time>2017-03-03T09:21:57Z</time>
      </trkpt>
      <trkpt lat="43.4309" lon="5.5489">
        <ele>302</ele>
        <time>2017-03-03T09:22:17Z</time>
      </trkpt>
      <trkpt lat="43.43089" lon="5.54889">
        <ele>302</ele>
        <time>2017-03-03T09:22:17Z</time>
      </trkpt>
      <trkpt lat="43.43088" lon="5.54891">
        <ele>302</ele>
        <time>2017-03-03T09:22:17Z</time>
      </trkpt>
      <trkpt lat="43.43085" lon="5.54895">
        <ele>302</ele>
        <time>2017-03-03T09:22:17Z</time>
      </trkpt>
      <trkpt lat="43.43081" lon="5.54898">
        <ele>302</ele>
        <time>2017-03-03T09:22:17Z</time>
      </trkpt>
      <trkpt lat="43.4308" lon="5.54899">
        <ele>302</ele>
        <time>2017-03-03T09:22:33Z</time>
      </trkpt>
      <trkpt lat="43.43076" lon="5.54903">
        <ele>302</ele>
        <time>2017-03-03T09:22:33Z</time>
      </trkpt>
      <trkpt lat="43.43071" lon="5.54907">
        <ele>302</ele>
        <time>2017-03-03T09:22:33Z</time>
      </trkpt>
      <trkpt lat="43.43067" lon="5.54911">
        <ele>302</ele>
        <time>2017-03-03T09:22:33Z</time>
      </trkpt>
      <trkpt lat="43.43066" lon="5.54912">
        <ele>302</ele>
        <time>2017-03-03T09:22:57Z</time>
      </trkpt>
      <trkpt lat="43.43065" lon="5.54914">
        <ele>302</ele>
        <time>2017-03-03T09:22:57Z</time>
      </trkpt>
      <trkpt lat="43.43064" lon="5.54915">
        <ele>302</ele>
        <time>2017-03-03T09:22:57Z</time>
      </trkpt>
      <trkpt lat="43.43062" lon="5.54914">
        <ele>302</ele>
        <time>2017-03-03T09:22:57Z</time>
      </trkpt>
      <trkpt lat="43.43057" lon="5.54916">
        <ele>302</ele>
        <time>2017-03-03T09:22:57Z</time>
      </trkpt>
      <trkpt lat="43.43054" lon="5.54919">
        <ele>302</ele>
        <time>2017-03-03T09:23:13Z</time>
      </trkpt>
      <trkpt lat="43.43049" lon="5.54921">
        <ele>302</ele>
        <time>2017-03-03T09:23:13Z</time>
      </trkpt>
      <trkpt lat="43.43045" lon="5.54923">
        <ele>302</ele>
        <time>2017-03-03T09:23:13Z</time>
      </trkpt>
      <trkpt lat="43.43041" lon="5.54925">
        <ele>310</ele>
        <time>2017-03-03T09:23:13Z</time>
      </trkpt>
      <trkpt lat="43.43037" lon="5.54928">
        <ele>310</ele>
        <time>2017-03-03T09:23:29Z</time>
      </trkpt>
      <trkpt lat="43.43033" lon="5.54932">
        <ele>310</ele>
        <time>2017-03-03T09:23:29Z</time>
      </trkpt>
      <trkpt lat="43.43029" lon="5.54933">
        <ele>310</ele>
        <time>2017-03-03T09:23:29Z</time>
      </trkpt>
      <trkpt lat="43.43025" lon="5.54935">
        <ele>310</ele>
        <time>2017-03-03T09:23:29Z</time>
      </trkpt>
      <trkpt lat="43.43019" lon="5.54939">
        <ele>310</ele>
        <time>2017-03-03T09:23:45Z</time>
      </trkpt>
      <trkpt lat="43.43014" lon="5.54943">
        <ele>310</ele>
        <time>2017-03-03T09:23:45Z</time>
      </trkpt>
      <trkpt lat="43.43011" lon="5.54945">
        <ele>310</ele>
        <time>2017-03-03T09:23:45Z</time>
      </trkpt>
      <trkpt lat="43.43009" lon="5.54945">
        <ele>310</ele>
        <time>2017-03-03T09:23:45Z</time>
      </trkpt>
      <trkpt lat="43.43005" lon="5.54947">
        <ele>310</ele>
        <time>2017-03-03T09:24:01Z</time>
      </trkpt>
      <trkpt lat="43.43002" lon="5.54947">
        <ele>310</ele>
        <time>2017-03-03T09:24:01Z</time>
      </trkpt>
      <trkpt lat="43.42996" lon="5.54948">
        <ele>310</ele>
        <time>2017-03-03T09:24:01Z</time>
      </trkpt>
      <trkpt lat="43.42993" lon="5.54948">
        <ele>310</ele>
        <time>2017-03-03T09:24:01Z</time>
      </trkpt>
      <trkpt lat="43.42989" lon="5.54949">
        <ele>310</ele>
        <time>2017-03-03T09:24:17Z</time>
      </trkpt>
      <trkpt lat="43.42985" lon="5.54949">
        <ele>310</ele>
        <time>2017-03-03T09:24:17Z</time>
      </trkpt>
      <trkpt lat="43.42981" lon="5.54949">
        <ele>310</ele>
        <time>2017-03-03T09:24:17Z</time>
      </trkpt>
      <trkpt lat="43.42977" lon="5.54947">
        <ele>310</ele>
        <time>2017-03-03T09:24:17Z</time>
      </trkpt>
      <trkpt lat="43.42974" lon="5.54947">
        <ele>310</ele>
        <time>2017-03-03T09:24:33Z</time>
      </trkpt>
      <trkpt lat="43.4297" lon="5.54947">
        <ele>310</ele>
        <time>2017-03-03T09:24:33Z</time>
      </trkpt>
      <trkpt lat="43.42969" lon="5.54946">
        <ele>310</ele>
        <time>2017-03-03T09:24:33Z</time>
      </trkpt>
      <trkpt lat="43.42965" lon="5.54945">
        <ele>310</ele>
        <time>2017-03-03T09:24:33Z</time>
      </trkpt>
      <trkpt lat="43.4296" lon="5.54944">
        <ele>310</ele>
        <time>2017-03-03T09:24:49Z</time>
      </trkpt>
      <trkpt lat="43.42956" lon="5.54944">
        <ele>310</ele>
        <time>2017-03-03T09:24:49Z</time>
      </trkpt>
      <trkpt lat="43.42951" lon="5.54943">
        <ele>310</ele>
        <time>2017-03-03T09:24:49Z</time>
      </trkpt>
      <trkpt lat="43.42947" lon="5.54942">
        <ele>310</ele>
        <time>2017-03-03T09:24:49Z</time>
      </trkpt>
      <trkpt lat="43.42943" lon="5.54941">
        <ele>310</ele>
        <time>2017-03-03T09:25:05Z</time>
      </trkpt>
      <trkpt lat="43.42938" lon="5.5494">
        <ele>310</ele>
        <time>2017-03-03T09:25:05Z</time>
      </trkpt>
      <trkpt lat="43.42934" lon="5.54939">
        <ele>310</ele>
        <time>2017-03-03T09:25:05Z</time>
      </trkpt>
      <trkpt lat="43.4293" lon="5.54936">
        <ele>310</ele>
        <time>2017-03-03T09:25:05Z</time>
      </trkpt>
      <trkpt lat="43.42924" lon="5.54933">
        <ele>310</ele>
        <time>2017-03-03T09:25:21Z</time>
      </trkpt>
      <trkpt lat="43.4292" lon="5.5493">
        <ele>310</ele>
        <time>2017-03-03T09:25:21Z</time>
      </trkpt>
      <trkpt lat="43.42917" lon="5.54928">
        <ele>310</ele>
        <time>2017-03-03T09:25:21Z</time>
      </trkpt>
      <trkpt lat="43.42913" lon="5.54925">
        <ele>310</ele>
        <time>2017-03-03T09:25:21Z</time>
      </trkpt>
      <trkpt lat="43.42907" lon="5.54922">
        <ele>310</ele>
        <time>2017-03-03T09:25:57Z</time>
      </trkpt>
      <trkpt lat="43.42907" lon="5.54922">
        <ele>310</ele>
        <time>2017-03-03T09:25:57Z</time>
      </trkpt>
      <trkpt lat="43.42907" lon="5.54922">
        <ele>310</ele>
        <time>2017-03-03T09:25:57Z</time>
      </trkpt>
      <trkpt lat="43.42902" lon="5.54919">
        <ele>310</ele>
        <time>2017-03-03T09:25:57Z</time>
      </trkpt>
      <trkpt lat="43.42899" lon="5.54915">
        <ele>310</ele>
        <time>2017-03-03T09:25:57Z</time>
      </trkpt>
      <trkpt lat="43.42894" lon="5.54912">
        <ele>310</ele>
        <time>2017-03-03T09:26:13Z</time>
      </trkpt>
      <trkpt lat="43.4289" lon="5.54909">
        <ele>310</ele>
        <time>2017-03-03T09:26:13Z</time>
      </trkpt>
      <trkpt lat="43.42887" lon="5.54907">
        <ele>310</ele>
        <time>2017-03-03T09:26:13Z</time>
      </trkpt>
      <trkpt lat="43.42884" lon="5.54906">
        <ele>310</ele>
        <time>2017-03-03T09:26:13Z</time>
      </trkpt>
      <trkpt lat="43.42883" lon="5.54906">
        <ele>310</ele>
        <time>2017-03-03T09:26:33Z</time>
      </trkpt>
      <trkpt lat="43.42882" lon="5.54908">
        <ele>310</ele>
        <time>2017-03-03T09:26:33Z</time>
      </trkpt>
      <trkpt lat="43.42881" lon="5.54914">
        <ele>310</ele>
        <time>2017-03-03T09:26:33Z</time>
      </trkpt>
      <trkpt lat="43.42883" lon="5.54917">
        <ele>310</ele>
        <time>2017-03-03T09:26:33Z</time>
      </trkpt>
      <trkpt lat="43.42884" lon="5.54919">
        <ele>310</ele>
        <time>2017-03-03T09:26:33Z</time>
      </trkpt>
      <trkpt lat="43.42878" lon="5.54926">
        <ele>310</ele>
        <time>2017-03-03T09:27:01Z</time>
      </trkpt>
      <trkpt lat="43.42877" lon="5.54927">
        <ele>310</ele>
        <time>2017-03-03T09:27:01Z</time>
      </trkpt>
      <trkpt lat="43.42876" lon="5.54929">
        <ele>310</ele>
        <time>2017-03-03T09:27:01Z</time>
      </trkpt>
      <trkpt lat="43.42875" lon="5.54929">
        <ele>305</ele>
        <time>2017-03-03T09:27:01Z</time>
      </trkpt>
      <trkpt lat="43.42872" lon="5.54928">
        <ele>305</ele>
        <time>2017-03-03T09:27:01Z</time>
      </trkpt>
      <trkpt lat="43.42869" lon="5.54925">
        <ele>305</ele>
        <time>2017-03-03T09:27:17Z</time>
      </trkpt>
      <trkpt lat="43.42865" lon="5.54921">
        <ele>305</ele>
        <time>2017-03-03T09:27:17Z</time>
      </trkpt>
      <trkpt lat="43.42861" lon="5.5492">
        <ele>305</ele>
        <time>2017-03-03T09:27:17Z</time>
      </trkpt>
      <trkpt lat="43.42858" lon="5.54917">
        <ele>305</ele>
        <time>2017-03-03T09:27:17Z</time>
      </trkpt>
      <trkpt lat="43.42857" lon="5.54917">
        <ele>305</ele>
        <time>2017-03-03T09:27:33Z</time>
      </trkpt>
      <trkpt lat="43.42854" lon="5.54917">
        <ele>305</ele>
        <time>2017-03-03T09:27:33Z</time>
      </trkpt>
      <trkpt lat="43.42849" lon="5.54917">
        <ele>305</ele>
        <time>2017-03-03T09:27:33Z</time>
      </trkpt>
      <trkpt lat="43.42845" lon="5.54918">
        <ele>305</ele>
        <time>2017-03-03T09:27:33Z</time>
      </trkpt>
      <trkpt lat="43.4284" lon="5.54917">
        <ele>305</ele>
        <time>2017-03-03T09:27:49Z</time>
      </trkpt>
      <trkpt lat="43.42835" lon="5.54915">
        <ele>305</ele>
        <time>2017-03-03T09:27:49Z</time>
      </trkpt>
      <trkpt lat="43.4283" lon="5.54913">
        <ele>305</ele>
        <time>2017-03-03T09:27:49Z</time>
      </trkpt>
      <trkpt lat="43.42827" lon="5.54912">
        <ele>305</ele>
        <time>2017-03-03T09:27:49Z</time>
      </trkpt>
      <trkpt lat="43.42823" lon="5.54911">
        <ele>305</ele>
        <time>2017-03-03T09:28:05Z</time>
      </trkpt>
      <trkpt lat="43.42819" lon="5.54911">
        <ele>305</ele>
        <time>2017-03-03T09:28:05Z</time>
      </trkpt>
      <trkpt lat="43.42815" lon="5.54909">
        <ele>305</ele>
        <time>2017-03-03T09:28:05Z</time>
      </trkpt>
      <trkpt lat="43.4281" lon="5.54906">
        <ele>305</ele>
        <time>2017-03-03T09:28:05Z</time>
      </trkpt>
      <trkpt lat="43.42807" lon="5.54903">
        <ele>305</ele>
        <time>2017-03-03T09:28:21Z</time>
      </trkpt>
      <trkpt lat="43.42802" lon="5.549">
        <ele>305</ele>
        <time>2017-03-03T09:28:21Z</time>
      </trkpt>
      <trkpt lat="43.428" lon="5.54897">
        <ele>305</ele>
        <time>2017-03-03T09:28:21Z</time>
      </trkpt>
      <trkpt lat="43.42797" lon="5.54893">
        <ele>305</ele>
        <time>2017-03-03T09:28:21Z</time>
      </trkpt>
      <trkpt lat="43.42795" lon="5.54889">
        <ele>305</ele>
        <time>2017-03-03T09:28:37Z</time>
      </trkpt>
      <trkpt lat="43.42794" lon="5.54887">
        <ele>305</ele>
        <time>2017-03-03T09:28:37Z</time>
      </trkpt>
      <trkpt lat="43.42789" lon="5.54885">
        <ele>313</ele>
        <time>2017-03-03T09:28:37Z</time>
      </trkpt>
      <trkpt lat="43.42784" lon="5.54883">
        <ele>313</ele>
        <time>2017-03-03T09:28:37Z</time>
      </trkpt>
      <trkpt lat="43.42781" lon="5.54882">
        <ele>313</ele>
        <time>2017-03-03T09:28:53Z</time>
      </trkpt>
      <trkpt lat="43.42776" lon="5.54881">
        <ele>313</ele>
        <time>2017-03-03T09:28:53Z</time>
      </trkpt>
      <trkpt lat="43.42774" lon="5.5488">
        <ele>313</ele>
        <time>2017-03-03T09:28:53Z</time>
      </trkpt>
      <trkpt lat="43.42772" lon="5.54881">
        <ele>313</ele>
        <time>2017-03-03T09:28:53Z</time>
      </trkpt>
      <trkpt lat="43.42769" lon="5.54885">
        <ele>313</ele>
        <time>2017-03-03T09:29:09Z</time>
      </trkpt>
      <trkpt lat="43.42765" lon="5.54889">
        <ele>313</ele>
        <time>2017-03-03T09:29:09Z</time>
      </trkpt>
      <trkpt lat="43.42762" lon="5.54887">
        <ele>313</ele>
        <time>2017-03-03T09:29:09Z</time>
      </trkpt>
      <trkpt lat="43.42758" lon="5.54887">
        <ele>313</ele>
        <time>2017-03-03T09:29:09Z</time>
      </trkpt>
      <trkpt lat="43.42754" lon="5.54888">
        <ele>313</ele>
        <time>2017-03-03T09:29:25Z</time>
      </trkpt>
      <trkpt lat="43.4275" lon="5.5489">
        <ele>313</ele>
        <time>2017-03-03T09:29:25Z</time>
      </trkpt>
      <trkpt lat="43.42746" lon="5.54889">
        <ele>313</ele>
        <time>2017-03-03T09:29:25Z</time>
      </trkpt>
      <trkpt lat="43.42744" lon="5.54887">
        <ele>313</ele>
        <time>2017-03-03T09:29:25Z</time>
      </trkpt>
      <trkpt lat="43.42739" lon="5.54887">
        <ele>313</ele>
        <time>2017-03-03T09:29:45Z</time>
      </trkpt>
      <trkpt lat="43.42736" lon="5.54889">
        <ele>313</ele>
        <time>2017-03-03T09:29:45Z</time>
      </trkpt>
      <trkpt lat="43.42733" lon="5.5489">
        <ele>313</ele>
        <time>2017-03-03T09:29:45Z</time>
      </trkpt>
      <trkpt lat="43.42731" lon="5.54889">
        <ele>313</ele>
        <time>2017-03-03T09:29:45Z</time>
      </trkpt>
      <trkpt lat="43.42727" lon="5.54888">
        <ele>313</ele>
        <time>2017-03-03T09:29:45Z</time>
      </trkpt>
      <trkpt lat="43.42722" lon="5.54888">
        <ele>313</ele>
        <time>2017-03-03T09:30:01Z</time>
      </trkpt>
      <trkpt lat="43.42719" lon="5.54886">
        <ele>313</ele>
        <time>2017-03-03T09:30:01Z</time>
      </trkpt>
      <trkpt lat="43.42715" lon="5.54885">
        <ele>313</ele>
        <time>2017-03-03T09:30:01Z</time>
      </trkpt>
      <trkpt lat="43.42713" lon="5.54885">
        <ele>313</ele>
        <time>2017-03-03T09:30:01Z</time>
      </trkpt>
      <trkpt lat="43.42712" lon="5.54887">
        <ele>313</ele>
        <time>2017-03-03T09:30:21Z</time>
      </trkpt>
      <trkpt lat="43.4271" lon="5.54888">
        <ele>313</ele>
        <time>2017-03-03T09:30:21Z</time>
      </trkpt>
      <trkpt lat="43.42709" lon="5.54889">
        <ele>313</ele>
        <time>2017-03-03T09:30:21Z</time>
      </trkpt>
      <trkpt lat="43.42708" lon="5.5489">
        <ele>312</ele>
        <time>2017-03-03T09:30:21Z</time>
      </trkpt>
      <trkpt lat="43.42702" lon="5.54891">
        <ele>312</ele>
        <time>2017-03-03T09:30:21Z</time>
      </trkpt>
      <trkpt lat="43.42698" lon="5.54894">
        <ele>312</ele>
        <time>2017-03-03T09:30:41Z</time>
      </trkpt>
      <trkpt lat="43.42694" lon="5.54895">
        <ele>312</ele>
        <time>2017-03-03T09:30:41Z</time>
      </trkpt>
      <trkpt lat="43.42694" lon="5.54898">
        <ele>312</ele>
        <time>2017-03-03T09:30:41Z</time>
      </trkpt>
      <trkpt lat="43.42693" lon="5.54904">
        <ele>312</ele>
        <time>2017-03-03T09:30:41Z</time>
      </trkpt>
      <trkpt lat="43.42688" lon="5.54904">
        <ele>312</ele>
        <time>2017-03-03T09:30:41Z</time>
      </trkpt>
      <trkpt lat="43.42685" lon="5.54905">
        <ele>312</ele>
        <time>2017-03-03T09:31:01Z</time>
      </trkpt>
      <trkpt lat="43.42681" lon="5.54908">
        <ele>312</ele>
        <time>2017-03-03T09:31:01Z</time>
      </trkpt>
      <trkpt lat="43.42679" lon="5.54909">
        <ele>312</ele>
        <time>2017-03-03T09:31:01Z</time>
      </trkpt>
      <trkpt lat="43.42677" lon="5.54909">
        <ele>312</ele>
        <time>2017-03-03T09:31:01Z</time>
      </trkpt>
      <trkpt lat="43.42676" lon="5.5491">
        <ele>312</ele>
        <time>2017-03-03T09:31:01Z</time>
      </trkpt>
      <trkpt lat="43.42668" lon="5.54912">
        <ele>312</ele>
        <time>2017-03-03T09:31:17Z</time>
      </trkpt>
      <trkpt lat="43.42662" lon="5.54915">
        <ele>312</ele>
        <time>2017-03-03T09:31:17Z</time>
      </trkpt>
      <trkpt lat="43.42659" lon="5.54916">
        <ele>312</ele>
        <time>2017-03-03T09:31:17Z</time>
      </trkpt>
      <trkpt lat="43.42656" lon="5.54916">
        <ele>312</ele>
        <time>2017-03-03T09:31:17Z</time>
      </trkpt>
      <trkpt lat="43.42652" lon="5.54917">
        <ele>312</ele>
        <time>2017-03-03T09:31:37Z</time>
      </trkpt>
      <trkpt lat="43.42648" lon="5.54917">
        <ele>312</ele>
        <time>2017-03-03T09:31:37Z</time>
      </trkpt>
      <trkpt lat="43.42644" lon="5.54917">
        <ele>312</ele>
        <time>2017-03-03T09:31:37Z</time>
      </trkpt>
      <trkpt lat="43.42643" lon="5.54917">
        <ele>312</ele>
        <time>2017-03-03T09:31:37Z</time>
      </trkpt>
      <trkpt lat="43.42639" lon="5.54916">
        <ele>312</ele>
        <time>2017-03-03T09:31:37Z</time>
      </trkpt>
      <trkpt lat="43.42637" lon="5.54915">
        <ele>312</ele>
        <time>2017-03-03T09:31:53Z</time>
      </trkpt>
      <trkpt lat="43.42631" lon="5.54919">
        <ele>312</ele>
        <time>2017-03-03T09:31:53Z</time>
      </trkpt>
      <trkpt lat="43.42626" lon="5.54918">
        <ele>312</ele>
        <time>2017-03-03T09:31:53Z</time>
      </trkpt>
      <trkpt lat="43.4262" lon="5.54919">
        <ele>312</ele>
        <time>2017-03-03T09:31:53Z</time>
      </trkpt>
      <trkpt lat="43.42617" lon="5.54918">
        <ele>312</ele>
        <time>2017-03-03T09:32:13Z</time>
      </trkpt>
      <trkpt lat="43.42617" lon="5.54918">
        <ele>312</ele>
        <time>2017-03-03T09:32:13Z</time>
      </trkpt>
      <trkpt lat="43.42615" lon="5.54918">
        <ele>312</ele>
        <time>2017-03-03T09:32:13Z</time>
      </trkpt>
      <trkpt lat="43.42612" lon="5.54917">
        <ele>312</ele>
        <time>2017-03-03T09:32:13Z</time>
      </trkpt>
      <trkpt lat="43.42606" lon="5.54915">
        <ele>312</ele>
        <time>2017-03-03T09:32:13Z</time>
      </trkpt>
      <trkpt lat="43.42601" lon="5.54913">
        <ele>312</ele>
        <time>2017-03-03T09:32:29Z</time>
      </trkpt>
      <trkpt lat="43.42597" lon="5.54913">
        <ele>312</ele>
        <time>2017-03-03T09:32:29Z</time>
      </trkpt>
      <trkpt lat="43.42593" lon="5.54914">
        <ele>312</ele>
        <time>2017-03-03T09:32:29Z</time>
      </trkpt>
      <trkpt lat="43.42589" lon="5.54912">
        <ele>312</ele>
        <time>2017-03-03T09:32:29Z</time>
      </trkpt>
      <trkpt lat="43.42586" lon="5.54912">
        <ele>312</ele>
        <time>2017-03-03T09:32:45Z</time>
      </trkpt>
      <trkpt lat="43.42582" lon="5.54911">
        <ele>312</ele>
        <time>2017-03-03T09:32:45Z</time>
      </trkpt>
      <trkpt lat="43.42577" lon="5.54914">
        <ele>312</ele>
        <time>2017-03-03T09:32:45Z</time>
      </trkpt>
      <trkpt lat="43.42573" lon="5.54915">
        <ele>312</ele>
        <time>2017-03-03T09:32:45Z</time>
      </trkpt>
      <trkpt lat="43.42571" lon="5.54916">
        <ele>312</ele>
        <time>2017-03-03T09:33:01Z</time>
      </trkpt>
      <trkpt lat="43.42567" lon="5.54915">
        <ele>312</ele>
        <time>2017-03-03T09:33:01Z</time>
      </trkpt>
      <trkpt lat="43.42562" lon="5.54917">
        <ele>312</ele>
        <time>2017-03-03T09:33:01Z</time>
      </trkpt>
      <trkpt lat="43.4256" lon="5.54918">
        <ele>312</ele>
        <time>2017-03-03T09:33:01Z</time>
      </trkpt>
      <trkpt lat="43.42558" lon="5.54918">
        <ele>312</ele>
        <time>2017-03-03T09:33:17Z</time>
      </trkpt>
      <trkpt lat="43.42553" lon="5.5492">
        <ele>312</ele>
        <time>2017-03-03T09:33:17Z</time>
      </trkpt>
      <trkpt lat="43.42549" lon="5.54921">
        <ele>312</ele>
        <time>2017-03-03T09:33:17Z</time>
      </trkpt>
      <trkpt lat="43.42545" lon="5.54921">
        <ele>312</ele>
        <time>2017-03-03T09:33:17Z</time>
      </trkpt>
      <trkpt lat="43.42543" lon="5.5492">
        <ele>312</ele>
        <time>2017-03-03T09:33:33Z</time>
      </trkpt>
      <trkpt lat="43.42541" lon="5.54921">
        <ele>317</ele>
        <time>2017-03-03T09:33:33Z</time>
      </trkpt>
      <trkpt lat="43.42535" lon="5.54917">
        <ele>317</ele>
        <time>2017-03-03T09:33:33Z</time>
      </trkpt>
      <trkpt lat="43.42531" lon="5.54916">
        <ele>317</ele>
        <time>2017-03-03T09:33:33Z</time>
      </trkpt>
      <trkpt lat="43.42528" lon="5.54914">
        <ele>317</ele>
        <time>2017-03-03T09:33:49Z</time>
      </trkpt>
      <trkpt lat="43.42524" lon="5.54913">
        <ele>317</ele>
        <time>2017-03-03T09:33:49Z</time>
      </trkpt>
      <trkpt lat="43.42521" lon="5.54912">
        <ele>317</ele>
        <time>2017-03-03T09:33:49Z</time>
      </trkpt>
      <trkpt lat="43.42518" lon="5.54908">
        <ele>317</ele>
        <time>2017-03-03T09:33:49Z</time>
      </trkpt>
      <trkpt lat="43.42513" lon="5.54903">
        <ele>317</ele>
        <time>2017-03-03T09:34:05Z</time>
      </trkpt>
      <trkpt lat="43.42511" lon="5.54901">
        <ele>317</ele>
        <time>2017-03-03T09:34:05Z</time>
      </trkpt>
      <trkpt lat="43.42508" lon="5.54898">
        <ele>317</ele>
        <time>2017-03-03T09:34:05Z</time>
      </trkpt>
      <trkpt lat="43.42505" lon="5.54898">
        <ele>317</ele>
        <time>2017-03-03T09:34:05Z</time>
      </trkpt>
      <trkpt lat="43.42501" lon="5.54897">
        <ele>317</ele>
        <time>2017-03-03T09:34:21Z</time>
      </trkpt>
      <trkpt lat="43.42498" lon="5.54894">
        <ele>317</ele>
        <time>2017-03-03T09:34:21Z</time>
      </trkpt>
      <trkpt lat="43.42495" lon="5.54891">
        <ele>317</ele>
        <time>2017-03-03T09:34:21Z</time>
      </trkpt>
      <trkpt lat="43.42492" lon="5.5489">
        <ele>317</ele>
        <time>2017-03-03T09:34:21Z</time>
      </trkpt>
      <trkpt lat="43.42489" lon="5.54886">
        <ele>317</ele>
        <time>2017-03-03T09:34:37Z</time>
      </trkpt>
      <trkpt lat="43.42487" lon="5.54885">
        <ele>317</ele>
        <time>2017-03-03T09:34:37Z</time>
      </trkpt>
      <trkpt lat="43.42484" lon="5.54882">
        <ele>317</ele>
        <time>2017-03-03T09:34:37Z</time>
      </trkpt>
      <trkpt lat="43.42481" lon="5.5488">
        <ele>317</ele>
        <time>2017-03-03T09:34:37Z</time>
      </trkpt>
      <trkpt lat="43.4248" lon="5.5488">
        <ele>317</ele>
        <time>2017-03-03T09:34:57Z</time>
      </trkpt>
      <trkpt lat="43.42478" lon="5.5488">
        <ele>317</ele>
        <time>2017-03-03T09:34:57Z</time>
      </trkpt>
      <trkpt lat="43.42476" lon="5.5488">
        <ele>317</ele>
        <time>2017-03-03T09:34:57Z</time>
      </trkpt>
      <trkpt lat="43.42473" lon="5.54878">
        <ele>317</ele>
        <time>2017-03-03T09:34:57Z</time>
      </trkpt>
      <trkpt lat="43.4247" lon="5.54877">
        <ele>317</ele>
        <time>2017-03-03T09:34:57Z</time>
      </trkpt>
      <trkpt lat="43.42467" lon="5.54875">
        <ele>317</ele>
        <time>2017-03-03T09:35:13Z</time>
      </trkpt>
      <trkpt lat="43.42464" lon="5.54873">
        <ele>314</ele>
        <time>2017-03-03T09:35:13Z</time>
      </trkpt>
      <trkpt lat="43.42461" lon="5.54873">
        <ele>314</ele>
        <time>2017-03-03T09:35:13Z</time>
      </trkpt>
      <trkpt lat="43.42457" lon="5.54871">
        <ele>317</ele>
        <time>2017-03-03T09:35:13Z</time>
      </trkpt>
      <trkpt lat="43.42454" lon="5.54871">
        <ele>317</ele>
        <time>2017-03-03T09:35:29Z</time>
      </trkpt>
      <trkpt lat="43.42452" lon="5.54871">
        <ele>317</ele>
        <time>2017-03-03T09:35:29Z</time>
      </trkpt>
      <trkpt lat="43.42448" lon="5.54869">
        <ele>317</ele>
        <time>2017-03-03T09:35:29Z</time>
      </trkpt>
      <trkpt lat="43.42444" lon="5.54866">
        <ele>317</ele>
        <time>2017-03-03T09:35:29Z</time>
      </trkpt>
      <trkpt lat="43.42442" lon="5.54866">
        <ele>317</ele>
        <time>2017-03-03T09:35:57Z</time>
      </trkpt>
      <trkpt lat="43.42441" lon="5.54864">
        <ele>317</ele>
        <time>2017-03-03T09:35:57Z</time>
      </trkpt>
      <trkpt lat="43.42439" lon="5.54861">
        <ele>317</ele>
        <time>2017-03-03T09:35:57Z</time>
      </trkpt>
      <trkpt lat="43.42436" lon="5.54859">
        <ele>317</ele>
        <time>2017-03-03T09:35:57Z</time>
      </trkpt>
      <trkpt lat="43.42434" lon="5.54855">
        <ele>317</ele>
        <time>2017-03-03T09:35:57Z</time>
      </trkpt>
      <trkpt lat="43.42433" lon="5.54855">
        <ele>317</ele>
        <time>2017-03-03T09:36:13Z</time>
      </trkpt>
      <trkpt lat="43.42433" lon="5.54854">
        <ele>317</ele>
        <time>2017-03-03T09:36:13Z</time>
      </trkpt>
      <trkpt lat="43.4243" lon="5.54848">
        <ele>317</ele>
        <time>2017-03-03T09:36:13Z</time>
      </trkpt>
      <trkpt lat="43.42427" lon="5.54845">
        <ele>317</ele>
        <time>2017-03-03T09:36:13Z</time>
      </trkpt>
      <trkpt lat="43.42424" lon="5.5484">
        <ele>317</ele>
        <time>2017-03-03T09:36:29Z</time>
      </trkpt>
      <trkpt lat="43.42422" lon="5.54837">
        <ele>317</ele>
        <time>2017-03-03T09:36:29Z</time>
      </trkpt>
      <trkpt lat="43.4242" lon="5.54836">
        <ele>317</ele>
        <time>2017-03-03T09:36:29Z</time>
      </trkpt>
      <trkpt lat="43.42414" lon="5.54834">
        <ele>317</ele>
        <time>2017-03-03T09:36:29Z</time>
      </trkpt>
      <trkpt lat="43.42412" lon="5.54833">
        <ele>317</ele>
        <time>2017-03-03T09:37:25Z</time>
      </trkpt>
      <trkpt lat="43.42411" lon="5.54832">
        <ele>317</ele>
        <time>2017-03-03T09:37:25Z</time>
      </trkpt>
      <trkpt lat="43.42409" lon="5.54827">
        <ele>317</ele>
        <time>2017-03-03T09:37:25Z</time>
      </trkpt>
      <trkpt lat="43.42408" lon="5.54825">
        <ele>317</ele>
        <time>2017-03-03T09:37:25Z</time>
      </trkpt>
      <trkpt lat="43.42408" lon="5.54824">
        <ele>317</ele>
        <time>2017-03-03T09:37:25Z</time>
      </trkpt>
      <trkpt lat="43.42406" lon="5.54819">
        <ele>317</ele>
        <time>2017-03-03T09:37:57Z</time>
      </trkpt>
      <trkpt lat="43.42406" lon="5.54819">
        <ele>317</ele>
        <time>2017-03-03T09:37:57Z</time>
      </trkpt>
      <trkpt lat="43.42405" lon="5.54818">
        <ele>317</ele>
        <time>2017-03-03T09:37:57Z</time>
      </trkpt>
      <trkpt lat="43.42403" lon="5.54814">
        <ele>317</ele>
        <time>2017-03-03T09:37:57Z</time>
      </trkpt>
      <trkpt lat="43.42402" lon="5.54812">
        <ele>317</ele>
        <time>2017-03-03T09:37:57Z</time>
      </trkpt>
      <trkpt lat="43.42401" lon="5.54805">
        <ele>317</ele>
        <time>2017-03-03T09:38:21Z</time>
      </trkpt>
      <trkpt lat="43.42401" lon="5.54804">
        <ele>317</ele>
        <time>2017-03-03T09:38:21Z</time>
      </trkpt>
      <trkpt lat="43.42401" lon="5.54803">
        <ele>317</ele>
        <time>2017-03-03T09:38:21Z</time>
      </trkpt>
      <trkpt lat="43.42399" lon="5.54798">
        <ele>317</ele>
        <time>2017-03-03T09:38:21Z</time>
      </trkpt>
      <trkpt lat="43.42398" lon="5.54795">
        <ele>317</ele>
        <time>2017-03-03T09:38:21Z</time>
      </trkpt>
      <trkpt lat="43.42397" lon="5.54794">
        <ele>317</ele>
        <time>2017-03-03T09:39:01Z</time>
      </trkpt>
      <trkpt lat="43.42397" lon="5.54794">
        <ele>317</ele>
        <time>2017-03-03T09:39:01Z</time>
      </trkpt>
      <trkpt lat="43.42397" lon="5.54793">
        <ele>317</ele>
        <time>2017-03-03T09:39:01Z</time>
      </trkpt>
      <trkpt lat="43.42396" lon="5.54788">
        <ele>318</ele>
        <time>2017-03-03T09:39:01Z</time>
      </trkpt>
      <trkpt lat="43.42393" lon="5.54784">
        <ele>318</ele>
        <time>2017-03-03T09:39:01Z</time>
      </trkpt>
      <trkpt lat="43.42389" lon="5.54779">
        <ele>318</ele>
        <time>2017-03-03T09:39:21Z</time>
      </trkpt>
      <trkpt lat="43.42386" lon="5.54777">
        <ele>318</ele>
        <time>2017-03-03T09:39:21Z</time>
      </trkpt>
      <trkpt lat="43.42383" lon="5.54775">
        <ele>318</ele>
        <time>2017-03-03T09:39:21Z</time>
      </trkpt>
      <trkpt lat="43.42381" lon="5.54774">
        <ele>318</ele>
        <time>2017-03-03T09:39:21Z</time>
      </trkpt>
      <trkpt lat="43.42377" lon="5.54768">
        <ele>318</ele>
        <time>2017-03-03T09:39:21Z</time>
      </trkpt>
      <trkpt lat="43.42371" lon="5.54765">
        <ele>324</ele>
        <time>2017-03-03T09:40:17Z</time>
      </trkpt>
      <trkpt lat="43.42369" lon="5.54765">
        <ele>324</ele>
        <time>2017-03-03T09:40:17Z</time>
      </trkpt>
      <trkpt lat="43.42367" lon="5.54765">
        <ele>324</ele>
        <time>2017-03-03T09:40:17Z</time>
      </trkpt>
      <trkpt lat="43.42364" lon="5.54763">
        <ele>324</ele>
        <time>2017-03-03T09:40:17Z</time>
      </trkpt>
      <trkpt lat="43.42358" lon="5.54757">
        <ele>324</ele>
        <time>2017-03-03T09:40:17Z</time>
      </trkpt>
      <trkpt lat="43.42353" lon="5.5475">
        <ele>324</ele>
        <time>2017-03-03T09:40:33Z</time>
      </trkpt>
      <trkpt lat="43.4235" lon="5.54746">
        <ele>324</ele>
        <time>2017-03-03T09:40:33Z</time>
      </trkpt>
      <trkpt lat="43.42348" lon="5.54743">
        <ele>324</ele>
        <time>2017-03-03T09:40:33Z</time>
      </trkpt>
      <trkpt lat="43.42347" lon="5.5474">
        <ele>324</ele>
        <time>2017-03-03T09:40:33Z</time>
      </trkpt>
      <trkpt lat="43.42343" lon="5.54736">
        <ele>324</ele>
        <time>2017-03-03T09:40:49Z</time>
      </trkpt>
      <trkpt lat="43.42337" lon="5.54731">
        <ele>324</ele>
        <time>2017-03-03T09:40:49Z</time>
      </trkpt>
      <trkpt lat="43.42333" lon="5.54727">
        <ele>324</ele>
        <time>2017-03-03T09:40:49Z</time>
      </trkpt>
      <trkpt lat="43.4233" lon="5.54719">
        <ele>324</ele>
        <time>2017-03-03T09:40:49Z</time>
      </trkpt>
      <trkpt lat="43.42329" lon="5.54718">
        <ele>324</ele>
        <time>2017-03-03T09:41:05Z</time>
      </trkpt>
      <trkpt lat="43.42328" lon="5.54718">
        <ele>324</ele>
        <time>2017-03-03T09:41:05Z</time>
      </trkpt>
      <trkpt lat="43.42324" lon="5.54714">
        <ele>324</ele>
        <time>2017-03-03T09:41:05Z</time>
      </trkpt>
      <trkpt lat="43.42318" lon="5.54716">
        <ele>324</ele>
        <time>2017-03-03T09:41:05Z</time>
      </trkpt>
      <trkpt lat="43.42317" lon="5.54716">
        <ele>324</ele>
        <time>2017-03-03T09:41:25Z</time>
      </trkpt>
      <trkpt lat="43.42317" lon="5.54716">
        <ele>324</ele>
        <time>2017-03-03T09:41:25Z</time>
      </trkpt>
      <trkpt lat="43.42314" lon="5.54713">
        <ele>324</ele>
        <time>2017-03-03T09:41:25Z</time>
      </trkpt>
      <trkpt lat="43.4231" lon="5.54711">
        <ele>324</ele>
        <time>2017-03-03T09:41:25Z</time>
      </trkpt>
      <trkpt lat="43.42307" lon="5.5471">
        <ele>324</ele>
        <time>2017-03-03T09:41:25Z</time>
      </trkpt>
      <trkpt lat="43.42306" lon="5.54711">
        <ele>324</ele>
        <time>2017-03-03T09:41:41Z</time>
      </trkpt>
      <trkpt lat="43.42303" lon="5.54709">
        <ele>324</ele>
        <time>2017-03-03T09:41:41Z</time>
      </trkpt>
      <trkpt lat="43.42299" lon="5.54706">
        <ele>323</ele>
        <time>2017-03-03T09:41:41Z</time>
      </trkpt>
      <trkpt lat="43.42295" lon="5.547">
        <ele>323</ele>
        <time>2017-03-03T09:41:41Z</time>
      </trkpt>
      <trkpt lat="43.42293" lon="5.54699">
        <ele>323</ele>
        <time>2017-03-03T09:41:57Z</time>
      </trkpt>
      <trkpt lat="43.42289" lon="5.54691">
        <ele>320</ele>
        <time>2017-03-03T09:41:57Z</time>
      </trkpt>
      <trkpt lat="43.42287" lon="5.54688">
        <ele>320</ele>
        <time>2017-03-03T09:41:57Z</time>
      </trkpt>
      <trkpt lat="43.42284" lon="5.54685">
        <ele>320</ele>
        <time>2017-03-03T09:41:57Z</time>
      </trkpt>
      <trkpt lat="43.42281" lon="5.54682">
        <ele>320</ele>
        <time>2017-03-03T09:42:13Z</time>
      </trkpt>
      <trkpt lat="43.42277" lon="5.54682">
        <ele>320</ele>
        <time>2017-03-03T09:42:13Z</time>
      </trkpt>
      <trkpt lat="43.42275" lon="5.54679">
        <ele>320</ele>
        <time>2017-03-03T09:42:13Z</time>
      </trkpt>
      <trkpt lat="43.42273" lon="5.54677">
        <ele>320</ele>
        <time>2017-03-03T09:42:13Z</time>
      </trkpt>
      <trkpt lat="43.42271" lon="5.54673">
        <ele>320</ele>
        <time>2017-03-03T09:42:29Z</time>
      </trkpt>
      <trkpt lat="43.42269" lon="5.54667">
        <ele>320</ele>
        <time>2017-03-03T09:42:29Z</time>
      </trkpt>
      <trkpt lat="43.42268" lon="5.54664">
        <ele>320</ele>
        <time>2017-03-03T09:42:29Z</time>
      </trkpt>
      <trkpt lat="43.42266" lon="5.5466">
        <ele>320</ele>
        <time>2017-03-03T09:42:29Z</time>
      </trkpt>
      <trkpt lat="43.42266" lon="5.54658">
        <ele>320</ele>
        <time>2017-03-03T09:42:45Z</time>
      </trkpt>
      <trkpt lat="43.42266" lon="5.54655">
        <ele>320</ele>
        <time>2017-03-03T09:42:45Z</time>
      </trkpt>
      <trkpt lat="43.42261" lon="5.54649">
        <ele>320</ele>
        <time>2017-03-03T09:42:45Z</time>
      </trkpt>
      <trkpt lat="43.42258" lon="5.54643">
        <ele>320</ele>
        <time>2017-03-03T09:42:45Z</time>
      </trkpt>
      <trkpt lat="43.42247" lon="5.54632">
        <ele>320</ele>
        <time>2017-03-03T09:43:17Z</time>
      </trkpt>
      <trkpt lat="43.42247" lon="5.54632">
        <ele>320</ele>
        <time>2017-03-03T09:43:17Z</time>
      </trkpt>
      <trkpt lat="43.42245" lon="5.5463">
        <ele>320</ele>
        <time>2017-03-03T09:43:17Z</time>
      </trkpt>
      <trkpt lat="43.42242" lon="5.54631">
        <ele>320</ele>
        <time>2017-03-03T09:43:17Z</time>
      </trkpt>
      <trkpt lat="43.42241" lon="5.54633">
        <ele>320</ele>
        <time>2017-03-03T09:43:17Z</time>
      </trkpt>
      <trkpt lat="43.42238" lon="5.54632">
        <ele>320</ele>
        <time>2017-03-03T09:43:45Z</time>
      </trkpt>
      <trkpt lat="43.42237" lon="5.54633">
        <ele>320</ele>
        <time>2017-03-03T09:43:45Z</time>
      </trkpt>
      <trkpt lat="43.42236" lon="5.54634">
        <ele>320</ele>
        <time>2017-03-03T09:43:45Z</time>
      </trkpt>
      <trkpt lat="43.42236" lon="5.54638">
        <ele>320</ele>
        <time>2017-03-03T09:43:45Z</time>
      </trkpt>
      <trkpt lat="43.42234" lon="5.54643">
        <ele>320</ele>
        <time>2017-03-03T09:43:45Z</time>
      </trkpt>
      <trkpt lat="43.4223" lon="5.54644">
        <ele>320</ele>
        <time>2017-03-03T09:44:05Z</time>
      </trkpt>
      <trkpt lat="43.42229" lon="5.54645">
        <ele>320</ele>
        <time>2017-03-03T09:44:05Z</time>
      </trkpt>
      <trkpt lat="43.42228" lon="5.54646">
        <ele>320</ele>
        <time>2017-03-03T09:44:05Z</time>
      </trkpt>
      <trkpt lat="43.42226" lon="5.54647">
        <ele>320</ele>
        <time>2017-03-03T09:44:05Z</time>
      </trkpt>
      <trkpt lat="43.42221" lon="5.54649">
        <ele>320</ele>
        <time>2017-03-03T09:44:05Z</time>
      </trkpt>
      <trkpt lat="43.4222" lon="5.5465">
        <ele>320</ele>
        <time>2017-03-03T09:44:21Z</time>
      </trkpt>
      <trkpt lat="43.42214" lon="5.54654">
        <ele>320</ele>
        <time>2017-03-03T09:44:21Z</time>
      </trkpt>
      <trkpt lat="43.42211" lon="5.54657">
        <ele>320</ele>
        <time>2017-03-03T09:44:21Z</time>
      </trkpt>
      <trkpt lat="43.42208" lon="5.54658">
        <ele>325</ele>
        <time>2017-03-03T09:44:21Z</time>
      </trkpt>
      <trkpt lat="43.42206" lon="5.54657">
        <ele>325</ele>
        <time>2017-03-03T09:44:57Z</time>
      </trkpt>
      <trkpt lat="43.42205" lon="5.54657">
        <ele>325</ele>
        <time>2017-03-03T09:44:57Z</time>
      </trkpt>
      <trkpt lat="43.42201" lon="5.54659">
        <ele>325</ele>
        <time>2017-03-03T09:44:57Z</time>
      </trkpt>
      <trkpt lat="43.42199" lon="5.54663">
        <ele>325</ele>
        <time>2017-03-03T09:44:57Z</time>
      </trkpt>
      <trkpt lat="43.42196" lon="5.54666">
        <ele>325</ele>
        <time>2017-03-03T09:44:57Z</time>
      </trkpt>
      <trkpt lat="43.42193" lon="5.54667">
        <ele>325</ele>
        <time>2017-03-03T09:45:13Z</time>
      </trkpt>
      <trkpt lat="43.42192" lon="5.54667">
        <ele>325</ele>
        <time>2017-03-03T09:45:13Z</time>
      </trkpt>
      <trkpt lat="43.42189" lon="5.54667">
        <ele>325</ele>
        <time>2017-03-03T09:45:13Z</time>
      </trkpt>
      <trkpt lat="43.42183" lon="5.5467">
        <ele>325</ele>
        <time>2017-03-03T09:45:13Z</time>
      </trkpt>
      <trkpt lat="43.42177" lon="5.54673">
        <ele>325</ele>
        <time>2017-03-03T09:45:37Z</time>
      </trkpt>
      <trkpt lat="43.42173" lon="5.54674">
        <ele>325</ele>
        <time>2017-03-03T09:45:37Z</time>
      </trkpt>
      <trkpt lat="43.42172" lon="5.54675">
        <ele>325</ele>
        <time>2017-03-03T09:45:37Z</time>
      </trkpt>
      <trkpt lat="43.4217" lon="5.54677">
        <ele>325</ele>
        <time>2017-03-03T09:45:37Z</time>
      </trkpt>
      <trkpt lat="43.42167" lon="5.54675">
        <ele>325</ele>
        <time>2017-03-03T09:45:37Z</time>
      </trkpt>
      <trkpt lat="43.42168" lon="5.54675">
        <ele>325</ele>
        <time>2017-03-03T09:45:57Z</time>
      </trkpt>
      <trkpt lat="43.42167" lon="5.54674">
        <ele>325</ele>
        <time>2017-03-03T09:45:57Z</time>
      </trkpt>
      <trkpt lat="43.42167" lon="5.54671">
        <ele>325</ele>
        <time>2017-03-03T09:45:57Z</time>
      </trkpt>
      <trkpt lat="43.42172" lon="5.54671">
        <ele>325</ele>
        <time>2017-03-03T09:45:57Z</time>
      </trkpt>
      <trkpt lat="43.42177" lon="5.54671">
        <ele>325</ele>
        <time>2017-03-03T09:45:57Z</time>
      </trkpt>
      <trkpt lat="43.42183" lon="5.54669">
        <ele>325</ele>
        <time>2017-03-03T09:46:13Z</time>
      </trkpt>
      <trkpt lat="43.42186" lon="5.54668">
        <ele>325</ele>
        <time>2017-03-03T09:46:13Z</time>
      </trkpt>
      <trkpt lat="43.4219" lon="5.54667">
        <ele>325</ele>
        <time>2017-03-03T09:46:13Z</time>
      </trkpt>
      <trkpt lat="43.42194" lon="5.54667">
        <ele>325</ele>
        <time>2017-03-03T09:46:13Z</time>
      </trkpt>
      <trkpt lat="43.42197" lon="5.54665">
        <ele>325</ele>
        <time>2017-03-03T09:46:29Z</time>
      </trkpt>
      <trkpt lat="43.422" lon="5.54662">
        <ele>325</ele>
        <time>2017-03-03T09:46:29Z</time>
      </trkpt>
      <trkpt lat="43.42203" lon="5.54657">
        <ele>325</ele>
        <time>2017-03-03T09:46:29Z</time>
      </trkpt>
      <trkpt lat="43.42202" lon="5.54654">
        <ele>325</ele>
        <time>2017-03-03T09:46:29Z</time>
      </trkpt>
      <trkpt lat="43.42201" lon="5.54647">
        <ele>325</ele>
        <time>2017-03-03T09:46:57Z</time>
      </trkpt>
      <trkpt lat="43.42201" lon="5.54646">
        <ele>325</ele>
        <time>2017-03-03T09:46:57Z</time>
      </trkpt>
      <trkpt lat="43.42201" lon="5.54643">
        <ele>325</ele>
        <time>2017-03-03T09:46:57Z</time>
      </trkpt>
      <trkpt lat="43.42199" lon="5.54641">
        <ele>325</ele>
        <time>2017-03-03T09:46:57Z</time>
      </trkpt>
      <trkpt lat="43.42197" lon="5.54639">
        <ele>325</ele>
        <time>2017-03-03T09:46:57Z</time>
      </trkpt>
      <trkpt lat="43.42195" lon="5.54632">
        <ele>325</ele>
        <time>2017-03-03T09:47:21Z</time>
      </trkpt>
      <trkpt lat="43.42194" lon="5.54631">
        <ele>325</ele>
        <time>2017-03-03T09:47:21Z</time>
      </trkpt>
      <trkpt lat="43.4219" lon="5.5463">
        <ele>325</ele>
        <time>2017-03-03T09:47:21Z</time>
      </trkpt>
      <trkpt lat="43.42189" lon="5.54631">
        <ele>325</ele>
        <time>2017-03-03T09:47:21Z</time>
      </trkpt>
      <trkpt lat="43.42187" lon="5.54632">
        <ele>325</ele>
        <time>2017-03-03T09:47:21Z</time>
      </trkpt>
      <trkpt lat="43.42186" lon="5.54628">
        <ele>325</ele>
        <time>2017-03-03T09:47:53Z</time>
      </trkpt>
      <trkpt lat="43.42185" lon="5.54627">
        <ele>325</ele>
        <time>2017-03-03T09:47:53Z</time>
      </trkpt>
      <trkpt lat="43.42184" lon="5.54625">
        <ele>327</ele>
        <time>2017-03-03T09:47:53Z</time>
      </trkpt>
      <trkpt lat="43.42182" lon="5.54623">
        <ele>327</ele>
        <time>2017-03-03T09:47:53Z</time>
      </trkpt>
      <trkpt lat="43.42179" lon="5.54623">
        <ele>327</ele>
        <time>2017-03-03T09:47:53Z</time>
      </trkpt>
      <trkpt lat="43.42173" lon="5.54617">
        <ele>327</ele>
        <time>2017-03-03T09:48:33Z</time>
      </trkpt>
      <trkpt lat="43.4217" lon="5.54617">
        <ele>327</ele>
        <time>2017-03-03T09:48:33Z</time>
      </trkpt>
      <trkpt lat="43.42165" lon="5.54622">
        <ele>327</ele>
        <time>2017-03-03T09:48:33Z</time>
      </trkpt>
      <trkpt lat="43.42162" lon="5.54622">
        <ele>327</ele>
        <time>2017-03-03T09:48:33Z</time>
      </trkpt>
      <trkpt lat="43.4216" lon="5.54623">
        <ele>327</ele>
        <time>2017-03-03T09:48:33Z</time>
      </trkpt>
      <trkpt lat="43.42156" lon="5.54626">
        <ele>325</ele>
        <time>2017-03-03T09:48:49Z</time>
      </trkpt>
      <trkpt lat="43.42152" lon="5.54627">
        <ele>325</ele>
        <time>2017-03-03T09:48:49Z</time>
      </trkpt>
      <trkpt lat="43.42148" lon="5.5463">
        <ele>325</ele>
        <time>2017-03-03T09:48:49Z</time>
      </trkpt>
      <trkpt lat="43.42145" lon="5.54632">
        <ele>325</ele>
        <time>2017-03-03T09:48:49Z</time>
      </trkpt>
      <trkpt lat="43.42141" lon="5.54633">
        <ele>325</ele>
        <time>2017-03-03T09:49:09Z</time>
      </trkpt>
      <trkpt lat="43.42139" lon="5.54634">
        <ele>325</ele>
        <time>2017-03-03T09:49:09Z</time>
      </trkpt>
      <trkpt lat="43.42136" lon="5.54635">
        <ele>325</ele>
        <time>2017-03-03T09:49:09Z</time>
      </trkpt>
      <trkpt lat="43.42134" lon="5.54636">
        <ele>325</ele>
        <time>2017-03-03T09:49:09Z</time>
      </trkpt>
      <trkpt lat="43.4213" lon="5.54641">
        <ele>325</ele>
        <time>2017-03-03T09:49:09Z</time>
      </trkpt>
      <trkpt lat="43.42127" lon="5.54643">
        <ele>325</ele>
        <time>2017-03-03T09:49:25Z</time>
      </trkpt>
      <trkpt lat="43.42126" lon="5.54643">
        <ele>325</ele>
        <time>2017-03-03T09:49:25Z</time>
      </trkpt>
      <trkpt lat="43.42124" lon="5.54646">
        <ele>332</ele>
        <time>2017-03-03T09:49:25Z</time>
      </trkpt>
      <trkpt lat="43.42117" lon="5.54648">
        <ele>332</ele>
        <time>2017-03-03T09:49:25Z</time>
      </trkpt>
      <trkpt lat="43.42114" lon="5.54649">
        <ele>332</ele>
        <time>2017-03-03T09:49:41Z</time>
      </trkpt>
      <trkpt lat="43.42104" lon="5.54655">
        <ele>332</ele>
        <time>2017-03-03T09:49:41Z</time>
      </trkpt>
      <trkpt lat="43.421" lon="5.54657">
        <ele>332</ele>
        <time>2017-03-03T09:49:41Z</time>
      </trkpt>
      <trkpt lat="43.42095" lon="5.54659">
        <ele>332</ele>
        <time>2017-03-03T09:49:41Z</time>
      </trkpt>
      <trkpt lat="43.42091" lon="5.54661">
        <ele>332</ele>
        <time>2017-03-03T09:50:01Z</time>
      </trkpt>
      <trkpt lat="43.42089" lon="5.54664">
        <ele>332</ele>
        <time>2017-03-03T09:50:01Z</time>
      </trkpt>
      <trkpt lat="43.42085" lon="5.54667">
        <ele>332</ele>
        <time>2017-03-03T09:50:01Z</time>
      </trkpt>
      <trkpt lat="43.42084" lon="5.54668">
        <ele>332</ele>
        <time>2017-03-03T09:50:01Z</time>
      </trkpt>
      <trkpt lat="43.42082" lon="5.54669">
        <ele>332</ele>
        <time>2017-03-03T09:50:01Z</time>
      </trkpt>
      <trkpt lat="43.42077" lon="5.54673">
        <ele>332</ele>
        <time>2017-03-03T09:50:17Z</time>
      </trkpt>
      <trkpt lat="43.42072" lon="5.54674">
        <ele>332</ele>
        <time>2017-03-03T09:50:17Z</time>
      </trkpt>
      <trkpt lat="43.42068" lon="5.54678">
        <ele>332</ele>
        <time>2017-03-03T09:50:17Z</time>
      </trkpt>
      <trkpt lat="43.42065" lon="5.54681">
        <ele>332</ele>
        <time>2017-03-03T09:50:17Z</time>
      </trkpt>
      <trkpt lat="43.42062" lon="5.54683">
        <ele>332</ele>
        <time>2017-03-03T09:50:33Z</time>
      </trkpt>
      <trkpt lat="43.42058" lon="5.54685">
        <ele>332</ele>
        <time>2017-03-03T09:50:33Z</time>
      </trkpt>
      <trkpt lat="43.42051" lon="5.54688">
        <ele>332</ele>
        <time>2017-03-03T09:50:33Z</time>
      </trkpt>
      <trkpt lat="43.42048" lon="5.54689">
        <ele>332</ele>
        <time>2017-03-03T09:50:33Z</time>
      </trkpt>
      <trkpt lat="43.42045" lon="5.54688">
        <ele>332</ele>
        <time>2017-03-03T09:50:49Z</time>
      </trkpt>
      <trkpt lat="43.42045" lon="5.54688">
        <ele>332</ele>
        <time>2017-03-03T09:50:49Z</time>
      </trkpt>
      <trkpt lat="43.42041" lon="5.5469">
        <ele>340</ele>
        <time>2017-03-03T09:50:49Z</time>
      </trkpt>
      <trkpt lat="43.42036" lon="5.54693">
        <ele>340</ele>
        <time>2017-03-03T09:50:49Z</time>
      </trkpt>
      <trkpt lat="43.42032" lon="5.54697">
        <ele>340</ele>
        <time>2017-03-03T09:51:05Z</time>
      </trkpt>
      <trkpt lat="43.42027" lon="5.54701">
        <ele>340</ele>
        <time>2017-03-03T09:51:05Z</time>
      </trkpt>
      <trkpt lat="43.42026" lon="5.54703">
        <ele>340</ele>
        <time>2017-03-03T09:51:05Z</time>
      </trkpt>
      <trkpt lat="43.42023" lon="5.54707">
        <ele>340</ele>
        <time>2017-03-03T09:51:05Z</time>
      </trkpt>
      <trkpt lat="43.42019" lon="5.54708">
        <ele>342</ele>
        <time>2017-03-03T09:51:21Z</time>
      </trkpt>
      <trkpt lat="43.42017" lon="5.54711">
        <ele>342</ele>
        <time>2017-03-03T09:51:21Z</time>
      </trkpt>
      <trkpt lat="43.42013" lon="5.54715">
        <ele>342</ele>
        <time>2017-03-03T09:51:21Z</time>
      </trkpt>
      <trkpt lat="43.42012" lon="5.54719">
        <ele>342</ele>
        <time>2017-03-03T09:51:21Z</time>
      </trkpt>
      <trkpt lat="43.42011" lon="5.54721">
        <ele>342</ele>
        <time>2017-03-03T09:51:37Z</time>
      </trkpt>
      <trkpt lat="43.4201" lon="5.54725">
        <ele>342</ele>
        <time>2017-03-03T09:51:37Z</time>
      </trkpt>
      <trkpt lat="43.42006" lon="5.54727">
        <ele>342</ele>
        <time>2017-03-03T09:51:37Z</time>
      </trkpt>
      <trkpt lat="43.42005" lon="5.54732">
        <ele>342</ele>
        <time>2017-03-03T09:51:37Z</time>
      </trkpt>
      <trkpt lat="43.42002" lon="5.54739">
        <ele>342</ele>
        <time>2017-03-03T09:51:57Z</time>
      </trkpt>
      <trkpt lat="43.42001" lon="5.54742">
        <ele>342</ele>
        <time>2017-03-03T09:51:57Z</time>
      </trkpt>
      <trkpt lat="43.42001" lon="5.54744">
        <ele>342</ele>
        <time>2017-03-03T09:51:57Z</time>
      </trkpt>
      <trkpt lat="43.42001" lon="5.5475">
        <ele>342</ele>
        <time>2017-03-03T09:51:57Z</time>
      </trkpt>
      <trkpt lat="43.42" lon="5.54754">
        <ele>342</ele>
        <time>2017-03-03T09:51:57Z</time>
      </trkpt>
      <trkpt lat="43.41998" lon="5.54758">
        <ele>342</ele>
        <time>2017-03-03T09:52:13Z</time>
      </trkpt>
      <trkpt lat="43.41999" lon="5.54761">
        <ele>342</ele>
        <time>2017-03-03T09:52:13Z</time>
      </trkpt>
      <trkpt lat="43.42" lon="5.54767">
        <ele>342</ele>
        <time>2017-03-03T09:52:13Z</time>
      </trkpt>
      <trkpt lat="43.41998" lon="5.54773">
        <ele>342</ele>
        <time>2017-03-03T09:52:13Z</time>
      </trkpt>
      <trkpt lat="43.41999" lon="5.54776">
        <ele>342</ele>
        <time>2017-03-03T09:52:29Z</time>
      </trkpt>
      <trkpt lat="43.41998" lon="5.54781">
        <ele>342</ele>
        <time>2017-03-03T09:52:29Z</time>
      </trkpt>
      <trkpt lat="43.41997" lon="5.54789">
        <ele>342</ele>
        <time>2017-03-03T09:52:29Z</time>
      </trkpt>
      <trkpt lat="43.41996" lon="5.54798">
        <ele>342</ele>
        <time>2017-03-03T09:52:29Z</time>
      </trkpt>
      <trkpt lat="43.41995" lon="5.54805">
        <ele>342</ele>
        <time>2017-03-03T09:52:45Z</time>
      </trkpt>
      <trkpt lat="43.41994" lon="5.54809">
        <ele>342</ele>
        <time>2017-03-03T09:52:45Z</time>
      </trkpt>
      <trkpt lat="43.41992" lon="5.54811">
        <ele>342</ele>
        <time>2017-03-03T09:52:45Z</time>
      </trkpt>
      <trkpt lat="43.41988" lon="5.54813">
        <ele>342</ele>
        <time>2017-03-03T09:52:45Z</time>
      </trkpt>
      <trkpt lat="43.41984" lon="5.54814">
        <ele>342</ele>
        <time>2017-03-03T09:53:01Z</time>
      </trkpt>
      <trkpt lat="43.41985" lon="5.54815">
        <ele>342</ele>
        <time>2017-03-03T09:53:01Z</time>
      </trkpt>
      <trkpt lat="43.41982" lon="5.54815">
        <ele>342</ele>
        <time>2017-03-03T09:53:01Z</time>
      </trkpt>
      <trkpt lat="43.41975" lon="5.54817">
        <ele>342</ele>
        <time>2017-03-03T09:53:01Z</time>
      </trkpt>
      <trkpt lat="43.4197" lon="5.54817">
        <ele>342</ele>
        <time>2017-03-03T09:53:17Z</time>
      </trkpt>
      <trkpt lat="43.41966" lon="5.54818">
        <ele>342</ele>
        <time>2017-03-03T09:53:17Z</time>
      </trkpt>
      <trkpt lat="43.41962" lon="5.54819">
        <ele>342</ele>
        <time>2017-03-03T09:53:17Z</time>
      </trkpt>
      <trkpt lat="43.41959" lon="5.54819">
        <ele>342</ele>
        <time>2017-03-03T09:53:17Z</time>
      </trkpt>
      <trkpt lat="43.41954" lon="5.54818">
        <ele>339</ele>
        <time>2017-03-03T09:53:33Z</time>
      </trkpt>
      <trkpt lat="43.41951" lon="5.54816">
        <ele>339</ele>
        <time>2017-03-03T09:53:33Z</time>
      </trkpt>
      <trkpt lat="43.41945" lon="5.54816">
        <ele>339</ele>
        <time>2017-03-03T09:53:33Z</time>
      </trkpt>
      <trkpt lat="43.41941" lon="5.54822">
        <ele>339</ele>
        <time>2017-03-03T09:53:33Z</time>
      </trkpt>
      <trkpt lat="43.41937" lon="5.54821">
        <ele>339</ele>
        <time>2017-03-03T09:53:53Z</time>
      </trkpt>
      <trkpt lat="43.41935" lon="5.5482">
        <ele>339</ele>
        <time>2017-03-03T09:53:53Z</time>
      </trkpt>
      <trkpt lat="43.41933" lon="5.54818">
        <ele>339</ele>
        <time>2017-03-03T09:53:53Z</time>
      </trkpt>
      <trkpt lat="43.41932" lon="5.54816">
        <ele>339</ele>
        <time>2017-03-03T09:53:53Z</time>
      </trkpt>
      <trkpt lat="43.41927" lon="5.54811">
        <ele>339</ele>
        <time>2017-03-03T09:53:53Z</time>
      </trkpt>
      <trkpt lat="43.41923" lon="5.54807">
        <ele>339</ele>
        <time>2017-03-03T09:54:09Z</time>
      </trkpt>
      <trkpt lat="43.4192" lon="5.54803">
        <ele>339</ele>
        <time>2017-03-03T09:54:09Z</time>
      </trkpt>
      <trkpt lat="43.41917" lon="5.54801">
        <ele>339</ele>
        <time>2017-03-03T09:54:09Z</time>
      </trkpt>
      <trkpt lat="43.41915" lon="5.54798">
        <ele>339</ele>
        <time>2017-03-03T09:54:09Z</time>
      </trkpt>
      <trkpt lat="43.41914" lon="5.54791">
        <ele>341</ele>
        <time>2017-03-03T09:54:45Z</time>
      </trkpt>
      <trkpt lat="43.41915" lon="5.5479">
        <ele>341</ele>
        <time>2017-03-03T09:54:45Z</time>
      </trkpt>
      <trkpt lat="43.41913" lon="5.54787">
        <ele>341</ele>
        <time>2017-03-03T09:54:45Z</time>
      </trkpt>
      <trkpt lat="43.4191" lon="5.54785">
        <ele>341</ele>
        <time>2017-03-03T09:54:45Z</time>
      </trkpt>
      <trkpt lat="43.41907" lon="5.54782">
        <ele>341</ele>
        <time>2017-03-03T09:54:45Z</time>
      </trkpt>
      <trkpt lat="43.41903" lon="5.54773">
        <ele>341</ele>
        <time>2017-03-03T09:55:13Z</time>
      </trkpt>
      <trkpt lat="43.41903" lon="5.54771">
        <ele>341</ele>
        <time>2017-03-03T09:55:13Z</time>
      </trkpt>
      <trkpt lat="43.41901" lon="5.54769">
        <ele>341</ele>
        <time>2017-03-03T09:55:13Z</time>
      </trkpt>
      <trkpt lat="43.41898" lon="5.54765">
        <ele>341</ele>
        <time>2017-03-03T09:55:13Z</time>
      </trkpt>
      <trkpt lat="43.41893" lon="5.54765">
        <ele>341</ele>
        <time>2017-03-03T09:55:13Z</time>
      </trkpt>
      <trkpt lat="43.4189" lon="5.54763">
        <ele>341</ele>
        <time>2017-03-03T09:55:29Z</time>
      </trkpt>
      <trkpt lat="43.41889" lon="5.5476">
        <ele>341</ele>
        <time>2017-03-03T09:55:29Z</time>
      </trkpt>
      <trkpt lat="43.41887" lon="5.54755">
        <ele>341</ele>
        <time>2017-03-03T09:55:29Z</time>
      </trkpt>
      <trkpt lat="43.41886" lon="5.5475">
        <ele>341</ele>
        <time>2017-03-03T09:55:29Z</time>
      </trkpt>
      <trkpt lat="43.41886" lon="5.54742">
        <ele>341</ele>
        <time>2017-03-03T09:55:45Z</time>
      </trkpt>
      <trkpt lat="43.41885" lon="5.54739">
        <ele>341</ele>
        <time>2017-03-03T09:55:45Z</time>
      </trkpt>
      <trkpt lat="43.41882" lon="5.54729">
        <ele>341</ele>
        <time>2017-03-03T09:55:45Z</time>
      </trkpt>
      <trkpt lat="43.41881" lon="5.54726">
        <ele>341</ele>
        <time>2017-03-03T09:55:46Z</time>
      </trkpt>
      <trkpt lat="43.41881" lon="5.54718">
        <ele>341</ele>
        <time>2017-03-03T09:56:01Z</time>
      </trkpt>
      <trkpt lat="43.41883" lon="5.54709">
        <ele>341</ele>
        <time>2017-03-03T09:56:01Z</time>
      </trkpt>
      <trkpt lat="43.41885" lon="5.54704">
        <ele>343</ele>
        <time>2017-03-03T09:56:01Z</time>
      </trkpt>
      <trkpt lat="43.41887" lon="5.54698">
        <ele>343</ele>
        <time>2017-03-03T09:56:01Z</time>
      </trkpt>
      <trkpt lat="43.41888" lon="5.54692">
        <ele>343</ele>
        <time>2017-03-03T09:56:17Z</time>
      </trkpt>
      <trkpt lat="43.41889" lon="5.54688">
        <ele>343</ele>
        <time>2017-03-03T09:56:17Z</time>
      </trkpt>
      <trkpt lat="43.4189" lon="5.54684">
        <ele>343</ele>
        <time>2017-03-03T09:56:17Z</time>
      </trkpt>
      <trkpt lat="43.41891" lon="5.54677">
        <ele>343</ele>
        <time>2017-03-03T09:56:17Z</time>
      </trkpt>
      <trkpt lat="43.41893" lon="5.54672">
        <ele>343</ele>
        <time>2017-03-03T09:56:33Z</time>
      </trkpt>
      <trkpt lat="43.41893" lon="5.54664">
        <ele>343</ele>
        <time>2017-03-03T09:56:33Z</time>
      </trkpt>
      <trkpt lat="43.41894" lon="5.54659">
        <ele>343</ele>
        <time>2017-03-03T09:56:33Z</time>
      </trkpt>
      <trkpt lat="43.41894" lon="5.54653">
        <ele>343</ele>
        <time>2017-03-03T09:56:33Z</time>
      </trkpt>
      <trkpt lat="43.41894" lon="5.54647">
        <ele>343</ele>
        <time>2017-03-03T09:57:09Z</time>
      </trkpt>
      <trkpt lat="43.41892" lon="5.5464">
        <ele>343</ele>
        <time>2017-03-03T09:57:09Z</time>
      </trkpt>
      <trkpt lat="43.4189" lon="5.54638">
        <ele>343</ele>
        <time>2017-03-03T09:57:09Z</time>
      </trkpt>
      <trkpt lat="43.41886" lon="5.54636">
        <ele>343</ele>
        <time>2017-03-03T09:57:09Z</time>
      </trkpt>
      <trkpt lat="43.41887" lon="5.54635">
        <ele>343</ele>
        <time>2017-03-03T09:57:09Z</time>
      </trkpt>
      <trkpt lat="43.41886" lon="5.54635">
        <ele>343</ele>
        <time>2017-03-03T09:57:29Z</time>
      </trkpt>
      <trkpt lat="43.41887" lon="5.54633">
        <ele>343</ele>
        <time>2017-03-03T09:57:29Z</time>
      </trkpt>
      <trkpt lat="43.41885" lon="5.54633">
        <ele>343</ele>
        <time>2017-03-03T09:57:29Z</time>
      </trkpt>
      <trkpt lat="43.41882" lon="5.5463">
        <ele>343</ele>
        <time>2017-03-03T09:57:29Z</time>
      </trkpt>
      <trkpt lat="43.41878" lon="5.54627">
        <ele>343</ele>
        <time>2017-03-03T09:57:29Z</time>
      </trkpt>
      <trkpt lat="43.41871" lon="5.54622">
        <ele>351</ele>
        <time>2017-03-03T09:57:53Z</time>
      </trkpt>
      <trkpt lat="43.41869" lon="5.54621">
        <ele>351</ele>
        <time>2017-03-03T09:57:53Z</time>
      </trkpt>
      <trkpt lat="43.41869" lon="5.54621">
        <ele>351</ele>
        <time>2017-03-03T09:57:53Z</time>
      </trkpt>
      <trkpt lat="43.41869" lon="5.54622">
        <ele>351</ele>
        <time>2017-03-03T09:57:53Z</time>
      </trkpt>
      <trkpt lat="43.41864" lon="5.5462">
        <ele>351</ele>
        <time>2017-03-03T09:57:53Z</time>
      </trkpt>
      <trkpt lat="43.41863" lon="5.54615">
        <ele>351</ele>
        <time>2017-03-03T09:58:09Z</time>
      </trkpt>
      <trkpt lat="43.41859" lon="5.54615">
        <ele>351</ele>
        <time>2017-03-03T09:58:09Z</time>
      </trkpt>
      <trkpt lat="43.41854" lon="5.54613">
        <ele>351</ele>
        <time>2017-03-03T09:58:09Z</time>
      </trkpt>
      <trkpt lat="43.41851" lon="5.54614">
        <ele>351</ele>
        <time>2017-03-03T09:58:09Z</time>
      </trkpt>
      <trkpt lat="43.41846" lon="5.54612">
        <ele>351</ele>
        <time>2017-03-03T09:58:25Z</time>
      </trkpt>
      <trkpt lat="43.4184" lon="5.54608">
        <ele>351</ele>
        <time>2017-03-03T09:58:25Z</time>
      </trkpt>
      <trkpt lat="43.41835" lon="5.54604">
        <ele>351</ele>
        <time>2017-03-03T09:58:25Z</time>
      </trkpt>
      <trkpt lat="43.41829" lon="5.54603">
        <ele>351</ele>
        <time>2017-03-03T09:58:25Z</time>
      </trkpt>
      <trkpt lat="43.41826" lon="5.54604">
        <ele>351</ele>
        <time>2017-03-03T09:58:57Z</time>
      </trkpt>
      <trkpt lat="43.41825" lon="5.54603">
        <ele>351</ele>
        <time>2017-03-03T09:58:57Z</time>
      </trkpt>
      <trkpt lat="43.4182" lon="5.54599">
        <ele>351</ele>
        <time>2017-03-03T09:58:57Z</time>
      </trkpt>
      <trkpt lat="43.41816" lon="5.54598">
        <ele>351</ele>
        <time>2017-03-03T09:58:57Z</time>
      </trkpt>
      <trkpt lat="43.41812" lon="5.54598">
        <ele>351</ele>
        <time>2017-03-03T09:58:57Z</time>
      </trkpt>
      <trkpt lat="43.41807" lon="5.54597">
        <ele>351</ele>
        <time>2017-03-03T09:59:13Z</time>
      </trkpt>
      <trkpt lat="43.41803" lon="5.54596">
        <ele>351</ele>
        <time>2017-03-03T09:59:13Z</time>
      </trkpt>
      <trkpt lat="43.41799" lon="5.54593">
        <ele>351</ele>
        <time>2017-03-03T09:59:13Z</time>
      </trkpt>
      <trkpt lat="43.41796" lon="5.54591">
        <ele>351</ele>
        <time>2017-03-03T09:59:13Z</time>
      </trkpt>
      <trkpt lat="43.41791" lon="5.54589">
        <ele>350</ele>
        <time>2017-03-03T09:59:29Z</time>
      </trkpt>
      <trkpt lat="43.41791" lon="5.54587">
        <ele>350</ele>
        <time>2017-03-03T09:59:29Z</time>
      </trkpt>
      <trkpt lat="43.4179" lon="5.54577">
        <ele>350</ele>
        <time>2017-03-03T09:59:29Z</time>
      </trkpt>
      <trkpt lat="43.41791" lon="5.54569">
        <ele>350</ele>
        <time>2017-03-03T09:59:29Z</time>
      </trkpt>
      <trkpt lat="43.4179" lon="5.54559">
        <ele>350</ele>
        <time>2017-03-03T09:59:45Z</time>
      </trkpt>
      <trkpt lat="43.41792" lon="5.54553">
        <ele>351</ele>
        <time>2017-03-03T09:59:45Z</time>
      </trkpt>
      <trkpt lat="43.41791" lon="5.54545">
        <ele>350</ele>
        <time>2017-03-03T09:59:45Z</time>
      </trkpt>
      <trkpt lat="43.41792" lon="5.54541">
        <ele>354</ele>
        <time>2017-03-03T09:59:45Z</time>
      </trkpt>
      <trkpt lat="43.41792" lon="5.54533">
        <ele>354</ele>
        <time>2017-03-03T10:00:01Z</time>
      </trkpt>
      <trkpt lat="43.41791" lon="5.54526">
        <ele>353</ele>
        <time>2017-03-03T10:00:01Z</time>
      </trkpt>
      <trkpt lat="43.41792" lon="5.54516">
        <ele>353</ele>
        <time>2017-03-03T10:00:01Z</time>
      </trkpt>
      <trkpt lat="43.41791" lon="5.54512">
        <ele>353</ele>
        <time>2017-03-03T10:00:01Z</time>
      </trkpt>
      <trkpt lat="43.41791" lon="5.54507">
        <ele>353</ele>
        <time>2017-03-03T10:00:17Z</time>
      </trkpt>
      <trkpt lat="43.41789" lon="5.54501">
        <ele>353</ele>
        <time>2017-03-03T10:00:17Z</time>
      </trkpt>
      <trkpt lat="43.41788" lon="5.54495">
        <ele>353</ele>
        <time>2017-03-03T10:00:17Z</time>
      </trkpt>
      <trkpt lat="43.41787" lon="5.54489">
        <ele>353</ele>
        <time>2017-03-03T10:00:17Z</time>
      </trkpt>
      <trkpt lat="43.41786" lon="5.54485">
        <ele>353</ele>
        <time>2017-03-03T10:00:33Z</time>
      </trkpt>
      <trkpt lat="43.41784" lon="5.5448">
        <ele>353</ele>
        <time>2017-03-03T10:00:33Z</time>
      </trkpt>
      <trkpt lat="43.41784" lon="5.54473">
        <ele>353</ele>
        <time>2017-03-03T10:00:33Z</time>
      </trkpt>
      <trkpt lat="43.41783" lon="5.54468">
        <ele>353</ele>
        <time>2017-03-03T10:00:33Z</time>
      </trkpt>
      <trkpt lat="43.41782" lon="5.54466">
        <ele>353</ele>
        <time>2017-03-03T10:00:53Z</time>
      </trkpt>
      <trkpt lat="43.41783" lon="5.54463">
        <ele>353</ele>
        <time>2017-03-03T10:00:53Z</time>
      </trkpt>
      <trkpt lat="43.41783" lon="5.54461">
        <ele>353</ele>
        <time>2017-03-03T10:00:53Z</time>
      </trkpt>
      <trkpt lat="43.41784" lon="5.54458">
        <ele>358</ele>
        <time>2017-03-03T10:00:53Z</time>
      </trkpt>
      <trkpt lat="43.41783" lon="5.54453">
        <ele>358</ele>
        <time>2017-03-03T10:00:53Z</time>
      </trkpt>
      <trkpt lat="43.4178" lon="5.54444">
        <ele>358</ele>
        <time>2017-03-03T10:01:17Z</time>
      </trkpt>
      <trkpt lat="43.41779" lon="5.54441">
        <ele>358</ele>
        <time>2017-03-03T10:01:17Z</time>
      </trkpt>
      <trkpt lat="43.4178" lon="5.5444">
        <ele>358</ele>
        <time>2017-03-03T10:01:17Z</time>
      </trkpt>
      <trkpt lat="43.41779" lon="5.54435">
        <ele>358</ele>
        <time>2017-03-03T10:01:17Z</time>
      </trkpt>
      <trkpt lat="43.41778" lon="5.5443">
        <ele>358</ele>
        <time>2017-03-03T10:01:17Z</time>
      </trkpt>
      <trkpt lat="43.41776" lon="5.54422">
        <ele>358</ele>
        <time>2017-03-03T10:01:49Z</time>
      </trkpt>
      <trkpt lat="43.41776" lon="5.54421">
        <ele>358</ele>
        <time>2017-03-03T10:01:49Z</time>
      </trkpt>
      <trkpt lat="43.41775" lon="5.5442">
        <ele>358</ele>
        <time>2017-03-03T10:01:49Z</time>
      </trkpt>
      <trkpt lat="43.41775" lon="5.54419">
        <ele>358</ele>
        <time>2017-03-03T10:01:49Z</time>
      </trkpt>
      <trkpt lat="43.41776" lon="5.54416">
        <ele>358</ele>
        <time>2017-03-03T10:01:49Z</time>
      </trkpt>
      <trkpt lat="43.41772" lon="5.54409">
        <ele>358</ele>
        <time>2017-03-03T10:04:57Z</time>
      </trkpt>
      <trkpt lat="43.41772" lon="5.54409">
        <ele>358</ele>
        <time>2017-03-03T10:04:57Z</time>
      </trkpt>
      <trkpt lat="43.41772" lon="5.54409">
        <ele>358</ele>
        <time>2017-03-03T10:04:57Z</time>
      </trkpt>
      <trkpt lat="43.41771" lon="5.54404">
        <ele>358</ele>
        <time>2017-03-03T10:04:57Z</time>
      </trkpt>
      <trkpt lat="43.41769" lon="5.54399">
        <ele>358</ele>
        <time>2017-03-03T10:04:57Z</time>
      </trkpt>
      <trkpt lat="43.41766" lon="5.54396">
        <ele>358</ele>
        <time>2017-03-03T10:05:21Z</time>
      </trkpt>
      <trkpt lat="43.41766" lon="5.54396">
        <ele>358</ele>
        <time>2017-03-03T10:05:21Z</time>
      </trkpt>
      <trkpt lat="43.41765" lon="5.5439">
        <ele>358</ele>
        <time>2017-03-03T10:05:21Z</time>
      </trkpt>
      <trkpt lat="43.41763" lon="5.54386">
        <ele>358</ele>
        <time>2017-03-03T10:05:21Z</time>
      </trkpt>
      <trkpt lat="43.41761" lon="5.54381">
        <ele>358</ele>
        <time>2017-03-03T10:05:21Z</time>
      </trkpt>
      <trkpt lat="43.41759" lon="5.54377">
        <ele>358</ele>
        <time>2017-03-03T10:05:37Z</time>
      </trkpt>
      <trkpt lat="43.41755" lon="5.54372">
        <ele>353</ele>
        <time>2017-03-03T10:05:37Z</time>
      </trkpt>
      <trkpt lat="43.41754" lon="5.54367">
        <ele>353</ele>
        <time>2017-03-03T10:05:37Z</time>
      </trkpt>
      <trkpt lat="43.41751" lon="5.54362">
        <ele>353</ele>
        <time>2017-03-03T10:05:37Z</time>
      </trkpt>
      <trkpt lat="43.41748" lon="5.54358">
        <ele>353</ele>
        <time>2017-03-03T10:05:53Z</time>
      </trkpt>
      <trkpt lat="43.41744" lon="5.54358">
        <ele>353</ele>
        <time>2017-03-03T10:05:53Z</time>
      </trkpt>
      <trkpt lat="43.4174" lon="5.54358">
        <ele>353</ele>
        <time>2017-03-03T10:05:53Z</time>
      </trkpt>
      <trkpt lat="43.41736" lon="5.54357">
        <ele>353</ele>
        <time>2017-03-03T10:05:53Z</time>
      </trkpt>
      <trkpt lat="43.41733" lon="5.54353">
        <ele>353</ele>
        <time>2017-03-03T10:06:09Z</time>
      </trkpt>
      <trkpt lat="43.41728" lon="5.54354">
        <ele>353</ele>
        <time>2017-03-03T10:06:09Z</time>
      </trkpt>
      <trkpt lat="43.41725" lon="5.54355">
        <ele>353</ele>
        <time>2017-03-03T10:06:09Z</time>
      </trkpt>
      <trkpt lat="43.41724" lon="5.54355">
        <ele>353</ele>
        <time>2017-03-03T10:06:09Z</time>
      </trkpt>
      <trkpt lat="43.4172" lon="5.54353">
        <ele>353</ele>
        <time>2017-03-03T10:06:25Z</time>
      </trkpt>
      <trkpt lat="43.41718" lon="5.54353">
        <ele>353</ele>
        <time>2017-03-03T10:06:25Z</time>
      </trkpt>
      <trkpt lat="43.41713" lon="5.54353">
        <ele>353</ele>
        <time>2017-03-03T10:06:25Z</time>
      </trkpt>
      <trkpt lat="43.41708" lon="5.54351">
        <ele>359</ele>
        <time>2017-03-03T10:06:25Z</time>
      </trkpt>
      <trkpt lat="43.41704" lon="5.54349">
        <ele>359</ele>
        <time>2017-03-03T10:06:41Z</time>
      </trkpt>
      <trkpt lat="43.41699" lon="5.54348">
        <ele>359</ele>
        <time>2017-03-03T10:06:41Z</time>
      </trkpt>
      <trkpt lat="43.41696" lon="5.54347">
        <ele>359</ele>
        <time>2017-03-03T10:06:41Z</time>
      </trkpt>
      <trkpt lat="43.41691" lon="5.54345">
        <ele>359</ele>
        <time>2017-03-03T10:06:41Z</time>
      </trkpt>
      <trkpt lat="43.41684" lon="5.54344">
        <ele>359</ele>
        <time>2017-03-03T10:06:57Z</time>
      </trkpt>
      <trkpt lat="43.4168" lon="5.54343">
        <ele>359</ele>
        <time>2017-03-03T10:06:57Z</time>
      </trkpt>
      <trkpt lat="43.41675" lon="5.54344">
        <ele>359</ele>
        <time>2017-03-03T10:06:57Z</time>
      </trkpt>
      <trkpt lat="43.41668" lon="5.54343">
        <ele>359</ele>
        <time>2017-03-03T10:06:57Z</time>
      </trkpt>
      <trkpt lat="43.41663" lon="5.54341">
        <ele>359</ele>
        <time>2017-03-03T10:07:13Z</time>
      </trkpt>
      <trkpt lat="43.41656" lon="5.54338">
        <ele>359</ele>
        <time>2017-03-03T10:07:13Z</time>
      </trkpt>
      <trkpt lat="43.41653" lon="5.5434">
        <ele>359</ele>
        <time>2017-03-03T10:07:13Z</time>
      </trkpt>
      <trkpt lat="43.4165" lon="5.5434">
        <ele>359</ele>
        <time>2017-03-03T10:07:13Z</time>
      </trkpt>
      <trkpt lat="43.41648" lon="5.54339">
        <ele>359</ele>
        <time>2017-03-03T10:07:29Z</time>
      </trkpt>
      <trkpt lat="43.41643" lon="5.54336">
        <ele>359</ele>
        <time>2017-03-03T10:07:29Z</time>
      </trkpt>
      <trkpt lat="43.41638" lon="5.54336">
        <ele>359</ele>
        <time>2017-03-03T10:07:29Z</time>
      </trkpt>
      <trkpt lat="43.41635" lon="5.54335">
        <ele>359</ele>
        <time>2017-03-03T10:07:29Z</time>
      </trkpt>
      <trkpt lat="43.4163" lon="5.54336">
        <ele>359</ele>
        <time>2017-03-03T10:07:45Z</time>
      </trkpt>
      <trkpt lat="43.41624" lon="5.54339">
        <ele>362</ele>
        <time>2017-03-03T10:07:45Z</time>
      </trkpt>
      <trkpt lat="43.41618" lon="5.5434">
        <ele>362</ele>
        <time>2017-03-03T10:07:45Z</time>
      </trkpt>
      <trkpt lat="43.41614" lon="5.54342">
        <ele>362</ele>
        <time>2017-03-03T10:07:45Z</time>
      </trkpt>
      <trkpt lat="43.41612" lon="5.54343">
        <ele>362</ele>
        <time>2017-03-03T10:08:01Z</time>
      </trkpt>
      <trkpt lat="43.41606" lon="5.54345">
        <ele>362</ele>
        <time>2017-03-03T10:08:01Z</time>
      </trkpt>
      <trkpt lat="43.41603" lon="5.5435">
        <ele>362</ele>
        <time>2017-03-03T10:08:01Z</time>
      </trkpt>
      <trkpt lat="43.41598" lon="5.54355">
        <ele>362</ele>
        <time>2017-03-03T10:08:01Z</time>
      </trkpt>
      <trkpt lat="43.41593" lon="5.54358">
        <ele>362</ele>
        <time>2017-03-03T10:08:17Z</time>
      </trkpt>
      <trkpt lat="43.41588" lon="5.54359">
        <ele>362</ele>
        <time>2017-03-03T10:08:17Z</time>
      </trkpt>
      <trkpt lat="43.41585" lon="5.54359">
        <ele>362</ele>
        <time>2017-03-03T10:08:17Z</time>
      </trkpt>
      <trkpt lat="43.4158" lon="5.54358">
        <ele>362</ele>
        <time>2017-03-03T10:08:17Z</time>
      </trkpt>
      <trkpt lat="43.41577" lon="5.54354">
        <ele>362</ele>
        <time>2017-03-03T10:08:33Z</time>
      </trkpt>
      <trkpt lat="43.41576" lon="5.54348">
        <ele>362</ele>
        <time>2017-03-03T10:08:33Z</time>
      </trkpt>
      <trkpt lat="43.41572" lon="5.54345">
        <ele>362</ele>
        <time>2017-03-03T10:08:33Z</time>
      </trkpt>
      <trkpt lat="43.41569" lon="5.54341">
        <ele>362</ele>
        <time>2017-03-03T10:08:33Z</time>
      </trkpt>
      <trkpt lat="43.41566" lon="5.54338">
        <ele>362</ele>
        <time>2017-03-03T10:08:53Z</time>
      </trkpt>
      <trkpt lat="43.41564" lon="5.54334">
        <ele>362</ele>
        <time>2017-03-03T10:08:53Z</time>
      </trkpt>
      <trkpt lat="43.41563" lon="5.54334">
        <ele>362</ele>
        <time>2017-03-03T10:08:53Z</time>
      </trkpt>
      <trkpt lat="43.41562" lon="5.54331">
        <ele>362</ele>
        <time>2017-03-03T10:08:53Z</time>
      </trkpt>
      <trkpt lat="43.4156" lon="5.54326">
        <ele>362</ele>
        <time>2017-03-03T10:08:53Z</time>
      </trkpt>
      <trkpt lat="43.41556" lon="5.5432">
        <ele>362</ele>
        <time>2017-03-03T10:09:13Z</time>
      </trkpt>
      <trkpt lat="43.41553" lon="5.54316">
        <ele>362</ele>
        <time>2017-03-03T10:09:13Z</time>
      </trkpt>
      <trkpt lat="43.41552" lon="5.54314">
        <ele>362</ele>
        <time>2017-03-03T10:09:13Z</time>
      </trkpt>
      <trkpt lat="43.41552" lon="5.54314">
        <ele>362</ele>
        <time>2017-03-03T10:09:13Z</time>
      </trkpt>
      <trkpt lat="43.41549" lon="5.54312">
        <ele>362</ele>
        <time>2017-03-03T10:09:13Z</time>
      </trkpt>
      <trkpt lat="43.41548" lon="5.54308">
        <ele>362</ele>
        <time>2017-03-03T10:09:29Z</time>
      </trkpt>
      <trkpt lat="43.41547" lon="5.54304">
        <ele>362</ele>
        <time>2017-03-03T10:09:29Z</time>
      </trkpt>
      <trkpt lat="43.41548" lon="5.54297">
        <ele>362</ele>
        <time>2017-03-03T10:09:29Z</time>
      </trkpt>
      <trkpt lat="43.41551" lon="5.54286">
        <ele>360</ele>
        <time>2017-03-03T10:09:29Z</time>
      </trkpt>
      <trkpt lat="43.41552" lon="5.5428">
        <ele>360</ele>
        <time>2017-03-03T10:09:45Z</time>
      </trkpt>
      <trkpt lat="43.41551" lon="5.54276">
        <ele>360</ele>
        <time>2017-03-03T10:09:45Z</time>
      </trkpt>
      <trkpt lat="43.41551" lon="5.54267">
        <ele>360</ele>
        <time>2017-03-03T10:09:45Z</time>
      </trkpt>
      <trkpt lat="43.41551" lon="5.54266">
        <ele>360</ele>
        <time>2017-03-03T10:09:45Z</time>
      </trkpt>
      <trkpt lat="43.41551" lon="5.54258">
        <ele>360</ele>
        <time>2017-03-03T10:10:01Z</time>
      </trkpt>
      <trkpt lat="43.41551" lon="5.54251">
        <ele>360</ele>
        <time>2017-03-03T10:10:01Z</time>
      </trkpt>
      <trkpt lat="43.41551" lon="5.54247">
        <ele>360</ele>
        <time>2017-03-03T10:10:01Z</time>
      </trkpt>
      <trkpt lat="43.41552" lon="5.54239">
        <ele>360</ele>
        <time>2017-03-03T10:10:01Z</time>
      </trkpt>
      <trkpt lat="43.41551" lon="5.54233">
        <ele>360</ele>
        <time>2017-03-03T10:10:17Z</time>
      </trkpt>
      <trkpt lat="43.41551" lon="5.54226">
        <ele>360</ele>
        <time>2017-03-03T10:10:17Z</time>
      </trkpt>
      <trkpt lat="43.41552" lon="5.54219">
        <ele>360</ele>
        <time>2017-03-03T10:10:17Z</time>
      </trkpt>
      <trkpt lat="43.41551" lon="5.54214">
        <ele>360</ele>
        <time>2017-03-03T10:10:17Z</time>
      </trkpt>
      <trkpt lat="43.41553" lon="5.54208">
        <ele>362</ele>
        <time>2017-03-03T10:10:33Z</time>
      </trkpt>
      <trkpt lat="43.41555" lon="5.54203">
        <ele>362</ele>
        <time>2017-03-03T10:10:33Z</time>
      </trkpt>
      <trkpt lat="43.41555" lon="5.542">
        <ele>362</ele>
        <time>2017-03-03T10:10:33Z</time>
      </trkpt>
      <trkpt lat="43.41554" lon="5.54195">
        <ele>362</ele>
        <time>2017-03-03T10:10:33Z</time>
      </trkpt>
      <trkpt lat="43.41555" lon="5.54191">
        <ele>362</ele>
        <time>2017-03-03T10:10:49Z</time>
      </trkpt>
      <trkpt lat="43.41556" lon="5.54183">
        <ele>362</ele>
        <time>2017-03-03T10:10:49Z</time>
      </trkpt>
      <trkpt lat="43.41558" lon="5.54176">
        <ele>362</ele>
        <time>2017-03-03T10:10:49Z</time>
      </trkpt>
      <trkpt lat="43.41559" lon="5.54171">
        <ele>362</ele>
        <time>2017-03-03T10:10:49Z</time>
      </trkpt>
      <trkpt lat="43.4156" lon="5.54163">
        <ele>362</ele>
        <time>2017-03-03T10:11:13Z</time>
      </trkpt>
      <trkpt lat="43.41562" lon="5.54162">
        <ele>362</ele>
        <time>2017-03-03T10:11:13Z</time>
      </trkpt>
      <trkpt lat="43.41563" lon="5.54161">
        <ele>362</ele>
        <time>2017-03-03T10:11:13Z</time>
      </trkpt>
      <trkpt lat="43.41563" lon="5.54156">
        <ele>362</ele>
        <time>2017-03-03T10:11:13Z</time>
      </trkpt>
      <trkpt lat="43.41562" lon="5.54146">
        <ele>362</ele>
        <time>2017-03-03T10:11:13Z</time>
      </trkpt>
      <trkpt lat="43.4156" lon="5.54139">
        <ele>362</ele>
        <time>2017-03-03T10:11:29Z</time>
      </trkpt>
      <trkpt lat="43.4156" lon="5.54134">
        <ele>362</ele>
        <time>2017-03-03T10:11:29Z</time>
      </trkpt>
      <trkpt lat="43.4156" lon="5.54124">
        <ele>368</ele>
        <time>2017-03-03T10:11:29Z</time>
      </trkpt>
      <trkpt lat="43.41562" lon="5.54117">
        <ele>368</ele>
        <time>2017-03-03T10:11:29Z</time>
      </trkpt>
      <trkpt lat="43.41562" lon="5.54111">
        <ele>368</ele>
        <time>2017-03-03T10:11:45Z</time>
      </trkpt>
      <trkpt lat="43.41562" lon="5.54104">
        <ele>368</ele>
        <time>2017-03-03T10:11:45Z</time>
      </trkpt>
      <trkpt lat="43.41562" lon="5.54097">
        <ele>368</ele>
        <time>2017-03-03T10:11:45Z</time>
      </trkpt>
      <trkpt lat="43.41562" lon="5.54094">
        <ele>368</ele>
        <time>2017-03-03T10:11:45Z</time>
      </trkpt>
      <trkpt lat="43.41561" lon="5.54095">
        <ele>368</ele>
        <time>2017-03-03T10:12:01Z</time>
      </trkpt>
      <trkpt lat="43.4156" lon="5.5409">
        <ele>368</ele>
        <time>2017-03-03T10:12:01Z</time>
      </trkpt>
      <trkpt lat="43.4156" lon="5.54084">
        <ele>368</ele>
        <time>2017-03-03T10:12:01Z</time>
      </trkpt>
      <trkpt lat="43.41558" lon="5.54078">
        <ele>368</ele>
        <time>2017-03-03T10:12:01Z</time>
      </trkpt>
      <trkpt lat="43.41557" lon="5.54073">
        <ele>368</ele>
        <time>2017-03-03T10:12:17Z</time>
      </trkpt>
      <trkpt lat="43.41555" lon="5.54067">
        <ele>368</ele>
        <time>2017-03-03T10:12:17Z</time>
      </trkpt>
      <trkpt lat="43.41553" lon="5.54059">
        <ele>368</ele>
        <time>2017-03-03T10:12:17Z</time>
      </trkpt>
      <trkpt lat="43.41552" lon="5.54054">
        <ele>368</ele>
        <time>2017-03-03T10:12:17Z</time>
      </trkpt>
      <trkpt lat="43.41552" lon="5.54049">
        <ele>368</ele>
        <time>2017-03-03T10:12:33Z</time>
      </trkpt>
      <trkpt lat="43.41551" lon="5.54042">
        <ele>368</ele>
        <time>2017-03-03T10:12:33Z</time>
      </trkpt>
      <trkpt lat="43.4155" lon="5.54036">
        <ele>365</ele>
        <time>2017-03-03T10:12:33Z</time>
      </trkpt>
      <trkpt lat="43.41549" lon="5.54031">
        <ele>365</ele>
        <time>2017-03-03T10:12:33Z</time>
      </trkpt>
      <trkpt lat="43.41545" lon="5.54026">
        <ele>365</ele>
        <time>2017-03-03T10:12:49Z</time>
      </trkpt>
      <trkpt lat="43.41544" lon="5.54024">
        <ele>365</ele>
        <time>2017-03-03T10:12:49Z</time>
      </trkpt>
      <trkpt lat="43.41541" lon="5.54021">
        <ele>373</ele>
        <time>2017-03-03T10:12:49Z</time>
      </trkpt>
      <trkpt lat="43.41537" lon="5.54017">
        <ele>373</ele>
        <time>2017-03-03T10:12:49Z</time>
      </trkpt>
      <trkpt lat="43.41533" lon="5.54012">
        <ele>373</ele>
        <time>2017-03-03T10:13:05Z</time>
      </trkpt>
      <trkpt lat="43.4153" lon="5.54008">
        <ele>373</ele>
        <time>2017-03-03T10:13:05Z</time>
      </trkpt>
      <trkpt lat="43.41528" lon="5.54005">
        <ele>373</ele>
        <time>2017-03-03T10:13:05Z</time>
      </trkpt>
      <trkpt lat="43.41525" lon="5.54001">
        <ele>373</ele>
        <time>2017-03-03T10:13:05Z</time>
      </trkpt>
      <trkpt lat="43.41522" lon="5.53997">
        <ele>373</ele>
        <time>2017-03-03T10:13:21Z</time>
      </trkpt>
      <trkpt lat="43.41519" lon="5.53994">
        <ele>373</ele>
        <time>2017-03-03T10:13:21Z</time>
      </trkpt>
      <trkpt lat="43.41513" lon="5.53992">
        <ele>373</ele>
        <time>2017-03-03T10:13:21Z</time>
      </trkpt>
      <trkpt lat="43.4151" lon="5.53989">
        <ele>373</ele>
        <time>2017-03-03T10:13:21Z</time>
      </trkpt>
      <trkpt lat="43.41505" lon="5.53986">
        <ele>373</ele>
        <time>2017-03-03T10:13:37Z</time>
      </trkpt>
      <trkpt lat="43.41501" lon="5.53984">
        <ele>373</ele>
        <time>2017-03-03T10:13:37Z</time>
      </trkpt>
      <trkpt lat="43.41497" lon="5.53983">
        <ele>373</ele>
        <time>2017-03-03T10:13:37Z</time>
      </trkpt>
      <trkpt lat="43.41492" lon="5.53981">
        <ele>373</ele>
        <time>2017-03-03T10:13:37Z</time>
      </trkpt>
      <trkpt lat="43.41488" lon="5.53979">
        <ele>373</ele>
        <time>2017-03-03T10:13:57Z</time>
      </trkpt>
      <trkpt lat="43.41486" lon="5.53978">
        <ele>373</ele>
        <time>2017-03-03T10:13:57Z</time>
      </trkpt>
      <trkpt lat="43.41485" lon="5.53977">
        <ele>373</ele>
        <time>2017-03-03T10:13:57Z</time>
      </trkpt>
      <trkpt lat="43.41482" lon="5.53977">
        <ele>373</ele>
        <time>2017-03-03T10:13:57Z</time>
      </trkpt>
      <trkpt lat="43.41479" lon="5.53977">
        <ele>373</ele>
        <time>2017-03-03T10:13:57Z</time>
      </trkpt>
      <trkpt lat="43.41474" lon="5.53978">
        <ele>373</ele>
        <time>2017-03-03T10:14:17Z</time>
      </trkpt>
      <trkpt lat="43.41472" lon="5.53978">
        <ele>373</ele>
        <time>2017-03-03T10:14:17Z</time>
      </trkpt>
      <trkpt lat="43.4147" lon="5.53977">
        <ele>373</ele>
        <time>2017-03-03T10:14:17Z</time>
      </trkpt>
      <trkpt lat="43.41467" lon="5.53978">
        <ele>373</ele>
        <time>2017-03-03T10:14:17Z</time>
      </trkpt>
      <trkpt lat="43.41464" lon="5.53979">
        <ele>373</ele>
        <time>2017-03-03T10:14:17Z</time>
      </trkpt>
      <trkpt lat="43.41459" lon="5.53983">
        <ele>373</ele>
        <time>2017-03-03T10:14:33Z</time>
      </trkpt>
      <trkpt lat="43.41455" lon="5.53984">
        <ele>385</ele>
        <time>2017-03-03T10:14:33Z</time>
      </trkpt>
      <trkpt lat="43.41451" lon="5.53985">
        <ele>385</ele>
        <time>2017-03-03T10:14:33Z</time>
      </trkpt>
      <trkpt lat="43.41448" lon="5.53986">
        <ele>385</ele>
        <time>2017-03-03T10:14:33Z</time>
      </trkpt>
      <trkpt lat="43.41445" lon="5.5399">
        <ele>385</ele>
        <time>2017-03-03T10:14:49Z</time>
      </trkpt>
      <trkpt lat="43.41443" lon="5.53995">
        <ele>385</ele>
        <time>2017-03-03T10:14:49Z</time>
      </trkpt>
      <trkpt lat="43.41442" lon="5.54002">
        <ele>385</ele>
        <time>2017-03-03T10:14:49Z</time>
      </trkpt>
      <trkpt lat="43.4144" lon="5.54005">
        <ele>385</ele>
        <time>2017-03-03T10:14:49Z</time>
      </trkpt>
      <trkpt lat="43.41439" lon="5.54003">
        <ele>385</ele>
        <time>2017-03-03T10:15:09Z</time>
      </trkpt>
      <trkpt lat="43.41436" lon="5.54004">
        <ele>385</ele>
        <time>2017-03-03T10:15:09Z</time>
      </trkpt>
      <trkpt lat="43.41432" lon="5.54006">
        <ele>385</ele>
        <time>2017-03-03T10:15:09Z</time>
      </trkpt>
      <trkpt lat="43.41431" lon="5.54008">
        <ele>385</ele>
        <time>2017-03-03T10:15:09Z</time>
      </trkpt>
      <trkpt lat="43.41429" lon="5.54008">
        <ele>385</ele>
        <time>2017-03-03T10:15:09Z</time>
      </trkpt>
      <trkpt lat="43.41426" lon="5.5401">
        <ele>385</ele>
        <time>2017-03-03T10:15:29Z</time>
      </trkpt>
      <trkpt lat="43.41423" lon="5.54012">
        <ele>385</ele>
        <time>2017-03-03T10:15:29Z</time>
      </trkpt>
      <trkpt lat="43.41423" lon="5.54014">
        <ele>385</ele>
        <time>2017-03-03T10:15:29Z</time>
      </trkpt>
      <trkpt lat="43.41419" lon="5.54018">
        <ele>385</ele>
        <time>2017-03-03T10:15:29Z</time>
      </trkpt>
      <trkpt lat="43.41416" lon="5.54022">
        <ele>385</ele>
        <time>2017-03-03T10:15:29Z</time>
      </trkpt>
      <trkpt lat="43.41414" lon="5.54027">
        <ele>385</ele>
        <time>2017-03-03T10:15:45Z</time>
      </trkpt>
      <trkpt lat="43.41411" lon="5.5403">
        <ele>385</ele>
        <time>2017-03-03T10:15:45Z</time>
      </trkpt>
      <trkpt lat="43.41408" lon="5.54031">
        <ele>385</ele>
        <time>2017-03-03T10:15:45Z</time>
      </trkpt>
      <trkpt lat="43.41403" lon="5.54034">
        <ele>385</ele>
        <time>2017-03-03T10:15:45Z</time>
      </trkpt>
      <trkpt lat="43.414" lon="5.54035">
        <ele>385</ele>
        <time>2017-03-03T10:16:05Z</time>
      </trkpt>
      <trkpt lat="43.41398" lon="5.54035">
        <ele>385</ele>
        <time>2017-03-03T10:16:05Z</time>
      </trkpt>
      <trkpt lat="43.41395" lon="5.54035">
        <ele>385</ele>
        <time>2017-03-03T10:16:05Z</time>
      </trkpt>
      <trkpt lat="43.41394" lon="5.54035">
        <ele>385</ele>
        <time>2017-03-03T10:16:05Z</time>
      </trkpt>
      <trkpt lat="43.4139" lon="5.54036">
        <ele>385</ele>
        <time>2017-03-03T10:16:05Z</time>
      </trkpt>
      <trkpt lat="43.41387" lon="5.54037">
        <ele>385</ele>
        <time>2017-03-03T10:16:25Z</time>
      </trkpt>
      <trkpt lat="43.41386" lon="5.54038">
        <ele>385</ele>
        <time>2017-03-03T10:16:25Z</time>
      </trkpt>
      <trkpt lat="43.41381" lon="5.54038">
        <ele>385</ele>
        <time>2017-03-03T10:16:25Z</time>
      </trkpt>
      <trkpt lat="43.4138" lon="5.54039">
        <ele>385</ele>
        <time>2017-03-03T10:16:25Z</time>
      </trkpt>
      <trkpt lat="43.41376" lon="5.5404">
        <ele>385</ele>
        <time>2017-03-03T10:16:25Z</time>
      </trkpt>
      <trkpt lat="43.41368" lon="5.54037">
        <ele>391</ele>
        <time>2017-03-03T10:17:01Z</time>
      </trkpt>
      <trkpt lat="43.41367" lon="5.54039">
        <ele>391</ele>
        <time>2017-03-03T10:17:01Z</time>
      </trkpt>
      <trkpt lat="43.41367" lon="5.54041">
        <ele>391</ele>
        <time>2017-03-03T10:17:01Z</time>
      </trkpt>
      <trkpt lat="43.41367" lon="5.54044">
        <ele>390</ele>
        <time>2017-03-03T10:17:01Z</time>
      </trkpt>
      <trkpt lat="43.41365" lon="5.54048">
        <ele>390</ele>
        <time>2017-03-03T10:17:01Z</time>
      </trkpt>
      <trkpt lat="43.41365" lon="5.5405">
        <ele>390</ele>
        <time>2017-03-03T10:17:21Z</time>
      </trkpt>
      <trkpt lat="43.41366" lon="5.54054">
        <ele>390</ele>
        <time>2017-03-03T10:17:21Z</time>
      </trkpt>
      <trkpt lat="43.41365" lon="5.54057">
        <ele>390</ele>
        <time>2017-03-03T10:17:21Z</time>
      </trkpt>
      <trkpt lat="43.41365" lon="5.54057">
        <ele>390</ele>
        <time>2017-03-03T10:17:21Z</time>
      </trkpt>
      <trkpt lat="43.41364" lon="5.54062">
        <ele>390</ele>
        <time>2017-03-03T10:17:21Z</time>
      </trkpt>
      <trkpt lat="43.41361" lon="5.54067">
        <ele>390</ele>
        <time>2017-03-03T10:17:41Z</time>
      </trkpt>
      <trkpt lat="43.4136" lon="5.5407">
        <ele>390</ele>
        <time>2017-03-03T10:17:41Z</time>
      </trkpt>
      <trkpt lat="43.41356" lon="5.54073">
        <ele>390</ele>
        <time>2017-03-03T10:17:41Z</time>
      </trkpt>
      <trkpt lat="43.41355" lon="5.54076">
        <ele>390</ele>
        <time>2017-03-03T10:17:41Z</time>
      </trkpt>
      <trkpt lat="43.41354" lon="5.54078">
        <ele>390</ele>
        <time>2017-03-03T10:17:41Z</time>
      </trkpt>
      <trkpt lat="43.41354" lon="5.54081">
        <ele>390</ele>
        <time>2017-03-03T10:17:57Z</time>
      </trkpt>
      <trkpt lat="43.41354" lon="5.54084">
        <ele>390</ele>
        <time>2017-03-03T10:17:57Z</time>
      </trkpt>
      <trkpt lat="43.41353" lon="5.54086">
        <ele>390</ele>
        <time>2017-03-03T10:17:57Z</time>
      </trkpt>
      <trkpt lat="43.4135" lon="5.54092">
        <ele>390</ele>
        <time>2017-03-03T10:17:57Z</time>
      </trkpt>
      <trkpt lat="43.41347" lon="5.54099">
        <ele>390</ele>
        <time>2017-03-03T10:18:13Z</time>
      </trkpt>
      <trkpt lat="43.41344" lon="5.54105">
        <ele>390</ele>
        <time>2017-03-03T10:18:13Z</time>
      </trkpt>
      <trkpt lat="43.41343" lon="5.54107">
        <ele>390</ele>
        <time>2017-03-03T10:18:13Z</time>
      </trkpt>
      <trkpt lat="43.41342" lon="5.54113">
        <ele>390</ele>
        <time>2017-03-03T10:18:13Z</time>
      </trkpt>
      <trkpt lat="43.41339" lon="5.54117">
        <ele>390</ele>
        <time>2017-03-03T10:18:29Z</time>
      </trkpt>
      <trkpt lat="43.41337" lon="5.5412">
        <ele>390</ele>
        <time>2017-03-03T10:18:29Z</time>
      </trkpt>
      <trkpt lat="43.41334" lon="5.54124">
        <ele>390</ele>
        <time>2017-03-03T10:18:29Z</time>
      </trkpt>
      <trkpt lat="43.4133" lon="5.54131">
        <ele>387</ele>
        <time>2017-03-03T10:18:29Z</time>
      </trkpt>
      <trkpt lat="43.41327" lon="5.54133">
        <ele>387</ele>
        <time>2017-03-03T10:18:45Z</time>
      </trkpt>
      <trkpt lat="43.41324" lon="5.54137">
        <ele>387</ele>
        <time>2017-03-03T10:18:45Z</time>
      </trkpt>
      <trkpt lat="43.41322" lon="5.5414">
        <ele>387</ele>
        <time>2017-03-03T10:18:45Z</time>
      </trkpt>
      <trkpt lat="43.4132" lon="5.54143">
        <ele>387</ele>
        <time>2017-03-03T10:18:45Z</time>
      </trkpt>
      <trkpt lat="43.41315" lon="5.54146">
        <ele>387</ele>
        <time>2017-03-03T10:19:01Z</time>
      </trkpt>
      <trkpt lat="43.4131" lon="5.54146">
        <ele>387</ele>
        <time>2017-03-03T10:19:01Z</time>
      </trkpt>
      <trkpt lat="43.41304" lon="5.54145">
        <ele>387</ele>
        <time>2017-03-03T10:19:01Z</time>
      </trkpt>
      <trkpt lat="43.41302" lon="5.54145">
        <ele>387</ele>
        <time>2017-03-03T10:19:01Z</time>
      </trkpt>
      <trkpt lat="43.41299" lon="5.54146">
        <ele>387</ele>
        <time>2017-03-03T10:19:17Z</time>
      </trkpt>
      <trkpt lat="43.41297" lon="5.54146">
        <ele>387</ele>
        <time>2017-03-03T10:19:17Z</time>
      </trkpt>
      <trkpt lat="43.41293" lon="5.54148">
        <ele>387</ele>
        <time>2017-03-03T10:19:17Z</time>
      </trkpt>
      <trkpt lat="43.41288" lon="5.54149">
        <ele>390</ele>
        <time>2017-03-03T10:19:17Z</time>
      </trkpt>
      <trkpt lat="43.41286" lon="5.54151">
        <ele>390</ele>
        <time>2017-03-03T10:19:33Z</time>
      </trkpt>
      <trkpt lat="43.41284" lon="5.54153">
        <ele>390</ele>
        <time>2017-03-03T10:19:33Z</time>
      </trkpt>
      <trkpt lat="43.4128" lon="5.54157">
        <ele>390</ele>
        <time>2017-03-03T10:19:33Z</time>
      </trkpt>
      <trkpt lat="43.41273" lon="5.5416">
        <ele>390</ele>
        <time>2017-03-03T10:19:33Z</time>
      </trkpt>
      <trkpt lat="43.41268" lon="5.5416">
        <ele>390</ele>
        <time>2017-03-03T10:19:49Z</time>
      </trkpt>
      <trkpt lat="43.41263" lon="5.54159">
        <ele>390</ele>
        <time>2017-03-03T10:19:49Z</time>
      </trkpt>
      <trkpt lat="43.41261" lon="5.54157">
        <ele>390</ele>
        <time>2017-03-03T10:19:49Z</time>
      </trkpt>
      <trkpt lat="43.41256" lon="5.54156">
        <ele>390</ele>
        <time>2017-03-03T10:19:49Z</time>
      </trkpt>
      <trkpt lat="43.41252" lon="5.54158">
        <ele>390</ele>
        <time>2017-03-03T10:20:09Z</time>
      </trkpt>
      <trkpt lat="43.41249" lon="5.54158">
        <ele>390</ele>
        <time>2017-03-03T10:20:09Z</time>
      </trkpt>
      <trkpt lat="43.41245" lon="5.54157">
        <ele>390</ele>
        <time>2017-03-03T10:20:09Z</time>
      </trkpt>
      <trkpt lat="43.41244" lon="5.54157">
        <ele>390</ele>
        <time>2017-03-03T10:20:09Z</time>
      </trkpt>
      <trkpt lat="43.41242" lon="5.54157">
        <ele>390</ele>
        <time>2017-03-03T10:20:09Z</time>
      </trkpt>
      <trkpt lat="43.41237" lon="5.54157">
        <ele>390</ele>
        <time>2017-03-03T10:20:25Z</time>
      </trkpt>
      <trkpt lat="43.41232" lon="5.54159">
        <ele>390</ele>
        <time>2017-03-03T10:20:25Z</time>
      </trkpt>
      <trkpt lat="43.41228" lon="5.54158">
        <ele>390</ele>
        <time>2017-03-03T10:20:25Z</time>
      </trkpt>
      <trkpt lat="43.41225" lon="5.5416">
        <ele>390</ele>
        <time>2017-03-03T10:20:25Z</time>
      </trkpt>
      <trkpt lat="43.41222" lon="5.5416">
        <ele>390</ele>
        <time>2017-03-03T10:20:41Z</time>
      </trkpt>
      <trkpt lat="43.41218" lon="5.54161">
        <ele>390</ele>
        <time>2017-03-03T10:20:41Z</time>
      </trkpt>
      <trkpt lat="43.41214" lon="5.54163">
        <ele>390</ele>
        <time>2017-03-03T10:20:41Z</time>
      </trkpt>
      <trkpt lat="43.4121" lon="5.54161">
        <ele>390</ele>
        <time>2017-03-03T10:20:41Z</time>
      </trkpt>
      <trkpt lat="43.41207" lon="5.5416">
        <ele>387</ele>
        <time>2017-03-03T10:20:57Z</time>
      </trkpt>
      <trkpt lat="43.41204" lon="5.54159">
        <ele>387</ele>
        <time>2017-03-03T10:20:57Z</time>
      </trkpt>
      <trkpt lat="43.412" lon="5.5416">
        <ele>387</ele>
        <time>2017-03-03T10:20:57Z</time>
      </trkpt>
      <trkpt lat="43.41196" lon="5.54163">
        <ele>387</ele>
        <time>2017-03-03T10:20:57Z</time>
      </trkpt>
      <trkpt lat="43.41195" lon="5.54174">
        <ele>387</ele>
        <time>2017-03-03T10:21:37Z</time>
      </trkpt>
      <trkpt lat="43.41195" lon="5.54177">
        <ele>387</ele>
        <time>2017-03-03T10:21:37Z</time>
      </trkpt>
      <trkpt lat="43.41195" lon="5.54177">
        <ele>387</ele>
        <time>2017-03-03T10:21:37Z</time>
      </trkpt>
      <trkpt lat="43.41195" lon="5.54178">
        <ele>387</ele>
        <time>2017-03-03T10:21:37Z</time>
      </trkpt>
      <trkpt lat="43.41196" lon="5.5418">
        <ele>387</ele>
        <time>2017-03-03T10:21:37Z</time>
      </trkpt>
      <trkpt lat="43.41195" lon="5.54183">
        <ele>387</ele>
        <time>2017-03-03T10:21:53Z</time>
      </trkpt>
      <trkpt lat="43.41196" lon="5.54186">
        <ele>387</ele>
        <time>2017-03-03T10:21:53Z</time>
      </trkpt>
      <trkpt lat="43.41199" lon="5.5419">
        <ele>387</ele>
        <time>2017-03-03T10:21:53Z</time>
      </trkpt>
      <trkpt lat="43.41201" lon="5.54194">
        <ele>387</ele>
        <time>2017-03-03T10:21:53Z</time>
      </trkpt>
      <trkpt lat="43.41205" lon="5.54201">
        <ele>387</ele>
        <time>2017-03-03T10:22:57Z</time>
      </trkpt>
      <trkpt lat="43.41205" lon="5.54201">
        <ele>387</ele>
        <time>2017-03-03T10:22:57Z</time>
      </trkpt>
      <trkpt lat="43.41207" lon="5.54204">
        <ele>387</ele>
        <time>2017-03-03T10:22:57Z</time>
      </trkpt>
      <trkpt lat="43.41209" lon="5.54208">
        <ele>390</ele>
        <time>2017-03-03T10:22:57Z</time>
      </trkpt>
      <trkpt lat="43.41211" lon="5.54213">
        <ele>389</ele>
        <time>2017-03-03T10:22:57Z</time>
      </trkpt>
      <trkpt lat="43.41209" lon="5.54215">
        <ele>389</ele>
        <time>2017-03-03T10:23:41Z</time>
      </trkpt>
      <trkpt lat="43.41208" lon="5.54215">
        <ele>386</ele>
        <time>2017-03-03T10:23:41Z</time>
      </trkpt>
      <trkpt lat="43.41206" lon="5.54216">
        <ele>386</ele>
        <time>2017-03-03T10:23:41Z</time>
      </trkpt>
      <trkpt lat="43.41203" lon="5.54216">
        <ele>386</ele>
        <time>2017-03-03T10:23:41Z</time>
      </trkpt>
      <trkpt lat="43.41199" lon="5.54219">
        <ele>386</ele>
        <time>2017-03-03T10:23:41Z</time>
      </trkpt>
      <trkpt lat="43.41197" lon="5.5422">
        <ele>386</ele>
        <time>2017-03-03T10:23:57Z</time>
      </trkpt>
      <trkpt lat="43.41194" lon="5.54222">
        <ele>386</ele>
        <time>2017-03-03T10:23:57Z</time>
      </trkpt>
      <trkpt lat="43.41189" lon="5.54222">
        <ele>386</ele>
        <time>2017-03-03T10:23:57Z</time>
      </trkpt>
      <trkpt lat="43.41187" lon="5.54224">
        <ele>386</ele>
        <time>2017-03-03T10:23:57Z</time>
      </trkpt>
      <trkpt lat="43.41183" lon="5.54224">
        <ele>386</ele>
        <time>2017-03-03T10:24:13Z</time>
      </trkpt>
      <trkpt lat="43.41179" lon="5.5423">
        <ele>386</ele>
        <time>2017-03-03T10:24:13Z</time>
      </trkpt>
      <trkpt lat="43.41177" lon="5.54235">
        <ele>386</ele>
        <time>2017-03-03T10:24:13Z</time>
      </trkpt>
      <trkpt lat="43.41176" lon="5.54242">
        <ele>386</ele>
        <time>2017-03-03T10:24:13Z</time>
      </trkpt>
      <trkpt lat="43.41175" lon="5.54251">
        <ele>386</ele>
        <time>2017-03-03T10:24:29Z</time>
      </trkpt>
      <trkpt lat="43.41177" lon="5.54256">
        <ele>386</ele>
        <time>2017-03-03T10:24:29Z</time>
      </trkpt>
      <trkpt lat="43.4118" lon="5.54261">
        <ele>386</ele>
        <time>2017-03-03T10:24:29Z</time>
      </trkpt>
      <trkpt lat="43.41183" lon="5.54265">
        <ele>386</ele>
        <time>2017-03-03T10:24:29Z</time>
      </trkpt>
      <trkpt lat="43.41186" lon="5.54269">
        <ele>386</ele>
        <time>2017-03-03T10:24:45Z</time>
      </trkpt>
      <trkpt lat="43.4119" lon="5.54272">
        <ele>386</ele>
        <time>2017-03-03T10:24:45Z</time>
      </trkpt>
      <trkpt lat="43.41194" lon="5.54275">
        <ele>386</ele>
        <time>2017-03-03T10:24:45Z</time>
      </trkpt>
      <trkpt lat="43.41197" lon="5.54279">
        <ele>386</ele>
        <time>2017-03-03T10:24:45Z</time>
      </trkpt>
      <trkpt lat="43.41199" lon="5.54284">
        <ele>386</ele>
        <time>2017-03-03T10:25:01Z</time>
      </trkpt>
      <trkpt lat="43.41201" lon="5.54289">
        <ele>386</ele>
        <time>2017-03-03T10:25:01Z</time>
      </trkpt>
      <trkpt lat="43.41204" lon="5.54293">
        <ele>379</ele>
        <time>2017-03-03T10:25:01Z</time>
      </trkpt>
      <trkpt lat="43.41207" lon="5.54297">
        <ele>379</ele>
        <time>2017-03-03T10:25:01Z</time>
      </trkpt>
      <trkpt lat="43.41208" lon="5.543">
        <ele>381</ele>
        <time>2017-03-03T10:25:17Z</time>
      </trkpt>
      <trkpt lat="43.4121" lon="5.54304">
        <ele>381</ele>
        <time>2017-03-03T10:25:17Z</time>
      </trkpt>
      <trkpt lat="43.41213" lon="5.5431">
        <ele>381</ele>
        <time>2017-03-03T10:25:17Z</time>
      </trkpt>
      <trkpt lat="43.41214" lon="5.54314">
        <ele>381</ele>
        <time>2017-03-03T10:25:17Z</time>
      </trkpt>
      <trkpt lat="43.41217" lon="5.5432">
        <ele>381</ele>
        <time>2017-03-03T10:25:33Z</time>
      </trkpt>
      <trkpt lat="43.4122" lon="5.54323">
        <ele>381</ele>
        <time>2017-03-03T10:25:33Z</time>
      </trkpt>
      <trkpt lat="43.41222" lon="5.54327">
        <ele>381</ele>
        <time>2017-03-03T10:25:33Z</time>
      </trkpt>
      <trkpt lat="43.41224" lon="5.5433">
        <ele>381</ele>
        <time>2017-03-03T10:25:33Z</time>
      </trkpt>
      <trkpt lat="43.41227" lon="5.54332">
        <ele>381</ele>
        <time>2017-03-03T10:25:49Z</time>
      </trkpt>
      <trkpt lat="43.41231" lon="5.54337">
        <ele>381</ele>
        <time>2017-03-03T10:25:49Z</time>
      </trkpt>
      <trkpt lat="43.41236" lon="5.54342">
        <ele>381</ele>
        <time>2017-03-03T10:25:49Z</time>
      </trkpt>
      <trkpt lat="43.41239" lon="5.54349">
        <ele>381</ele>
        <time>2017-03-03T10:25:49Z</time>
      </trkpt>
      <trkpt lat="43.41244" lon="5.54359">
        <ele>381</ele>
        <time>2017-03-03T10:26:29Z</time>
      </trkpt>
      <trkpt lat="43.41247" lon="5.54362">
        <ele>381</ele>
        <time>2017-03-03T10:26:29Z</time>
      </trkpt>
      <trkpt lat="43.4125" lon="5.54365">
        <ele>381</ele>
        <time>2017-03-03T10:26:29Z</time>
      </trkpt>
      <trkpt lat="43.41251" lon="5.54366">
        <ele>381</ele>
        <time>2017-03-03T10:26:29Z</time>
      </trkpt>
      <trkpt lat="43.41255" lon="5.5437">
        <ele>381</ele>
        <time>2017-03-03T10:26:29Z</time>
      </trkpt>
      <trkpt lat="43.41256" lon="5.54374">
        <ele>381</ele>
        <time>2017-03-03T10:26:49Z</time>
      </trkpt>
      <trkpt lat="43.41256" lon="5.54376">
        <ele>370</ele>
        <time>2017-03-03T10:26:49Z</time>
      </trkpt>
      <trkpt lat="43.41257" lon="5.54378">
        <ele>370</ele>
        <time>2017-03-03T10:26:49Z</time>
      </trkpt>
      <trkpt lat="43.41261" lon="5.5438">
        <ele>370</ele>
        <time>2017-03-03T10:26:49Z</time>
      </trkpt>
      <trkpt lat="43.41265" lon="5.54385">
        <ele>370</ele>
        <time>2017-03-03T10:26:49Z</time>
      </trkpt>
      <trkpt lat="43.41269" lon="5.54387">
        <ele>370</ele>
        <time>2017-03-03T10:27:05Z</time>
      </trkpt>
      <trkpt lat="43.41272" lon="5.54389">
        <ele>370</ele>
        <time>2017-03-03T10:27:05Z</time>
      </trkpt>
      <trkpt lat="43.41275" lon="5.54393">
        <ele>370</ele>
        <time>2017-03-03T10:27:05Z</time>
      </trkpt>
      <trkpt lat="43.41278" lon="5.54396">
        <ele>370</ele>
        <time>2017-03-03T10:27:05Z</time>
      </trkpt>
      <trkpt lat="43.41281" lon="5.54401">
        <ele>370</ele>
        <time>2017-03-03T10:27:21Z</time>
      </trkpt>
      <trkpt lat="43.41283" lon="5.54405">
        <ele>370</ele>
        <time>2017-03-03T10:27:21Z</time>
      </trkpt>
      <trkpt lat="43.41286" lon="5.5441">
        <ele>370</ele>
        <time>2017-03-03T10:27:21Z</time>
      </trkpt>
      <trkpt lat="43.4129" lon="5.54415">
        <ele>370</ele>
        <time>2017-03-03T10:27:21Z</time>
      </trkpt>
      <trkpt lat="43.41292" lon="5.54419">
        <ele>369</ele>
        <time>2017-03-03T10:27:37Z</time>
      </trkpt>
      <trkpt lat="43.41295" lon="5.54422">
        <ele>369</ele>
        <time>2017-03-03T10:27:37Z</time>
      </trkpt>
      <trkpt lat="43.41297" lon="5.54426">
        <ele>369</ele>
        <time>2017-03-03T10:27:37Z</time>
      </trkpt>
      <trkpt lat="43.413" lon="5.5443">
        <ele>369</ele>
        <time>2017-03-03T10:27:37Z</time>
      </trkpt>
      <trkpt lat="43.41302" lon="5.54433">
        <ele>369</ele>
        <time>2017-03-03T10:27:57Z</time>
      </trkpt>
      <trkpt lat="43.41302" lon="5.54434">
        <ele>369</ele>
        <time>2017-03-03T10:27:57Z</time>
      </trkpt>
      <trkpt lat="43.41303" lon="5.54438">
        <ele>369</ele>
        <time>2017-03-03T10:27:57Z</time>
      </trkpt>
      <trkpt lat="43.41307" lon="5.54441">
        <ele>369</ele>
        <time>2017-03-03T10:27:57Z</time>
      </trkpt>
      <trkpt lat="43.41308" lon="5.54449">
        <ele>369</ele>
        <time>2017-03-03T10:27:57Z</time>
      </trkpt>
      <trkpt lat="43.4131" lon="5.54453">
        <ele>369</ele>
        <time>2017-03-03T10:28:17Z</time>
      </trkpt>
      <trkpt lat="43.41311" lon="5.54457">
        <ele>369</ele>
        <time>2017-03-03T10:28:17Z</time>
      </trkpt>
      <trkpt lat="43.41311" lon="5.54462">
        <ele>361</ele>
        <time>2017-03-03T10:28:17Z</time>
      </trkpt>
      <trkpt lat="43.4131" lon="5.54464">
        <ele>361</ele>
        <time>2017-03-03T10:28:17Z</time>
      </trkpt>
      <trkpt lat="43.41308" lon="5.54467">
        <ele>361</ele>
        <time>2017-03-03T10:28:17Z</time>
      </trkpt>
      <trkpt lat="43.41308" lon="5.54473">
        <ele>361</ele>
        <time>2017-03-03T10:28:37Z</time>
      </trkpt>
      <trkpt lat="43.41309" lon="5.54476">
        <ele>361</ele>
        <time>2017-03-03T10:28:37Z</time>
      </trkpt>
      <trkpt lat="43.4131" lon="5.54478">
        <ele>361</ele>
        <time>2017-03-03T10:28:37Z</time>
      </trkpt>
      <trkpt lat="43.41312" lon="5.54479">
        <ele>361</ele>
        <time>2017-03-03T10:28:37Z</time>
      </trkpt>
      <trkpt lat="43.41315" lon="5.54481">
        <ele>361</ele>
        <time>2017-03-03T10:28:37Z</time>
      </trkpt>
      <trkpt lat="43.41321" lon="5.54487">
        <ele>361</ele>
        <time>2017-03-03T10:28:53Z</time>
      </trkpt>
      <trkpt lat="43.41326" lon="5.54491">
        <ele>361</ele>
        <time>2017-03-03T10:28:53Z</time>
      </trkpt>
      <trkpt lat="43.41329" lon="5.54495">
        <ele>361</ele>
        <time>2017-03-03T10:28:53Z</time>
      </trkpt>
      <trkpt lat="43.4133" lon="5.54501">
        <ele>361</ele>
        <time>2017-03-03T10:28:53Z</time>
      </trkpt>
      <trkpt lat="43.41334" lon="5.54505">
        <ele>361</ele>
        <time>2017-03-03T10:29:09Z</time>
      </trkpt>
      <trkpt lat="43.41337" lon="5.54509">
        <ele>361</ele>
        <time>2017-03-03T10:29:09Z</time>
      </trkpt>
      <trkpt lat="43.41341" lon="5.54514">
        <ele>361</ele>
        <time>2017-03-03T10:29:09Z</time>
      </trkpt>
      <trkpt lat="43.41344" lon="5.5452">
        <ele>361</ele>
        <time>2017-03-03T10:29:09Z</time>
      </trkpt>
      <trkpt lat="43.41346" lon="5.54524">
        <ele>361</ele>
        <time>2017-03-03T10:29:25Z</time>
      </trkpt>
      <trkpt lat="43.41349" lon="5.54526">
        <ele>361</ele>
        <time>2017-03-03T10:29:25Z</time>
      </trkpt>
      <trkpt lat="43.41351" lon="5.5453">
        <ele>361</ele>
        <time>2017-03-03T10:29:25Z</time>
      </trkpt>
      <trkpt lat="43.41356" lon="5.54535">
        <ele>361</ele>
        <time>2017-03-03T10:29:25Z</time>
      </trkpt>
      <trkpt lat="43.4136" lon="5.54539">
        <ele>361</ele>
        <time>2017-03-03T10:29:45Z</time>
      </trkpt>
      <trkpt lat="43.41362" lon="5.54543">
        <ele>356</ele>
        <time>2017-03-03T10:29:45Z</time>
      </trkpt>
      <trkpt lat="43.41364" lon="5.54545">
        <ele>356</ele>
        <time>2017-03-03T10:29:45Z</time>
      </trkpt>
      <trkpt lat="43.41366" lon="5.54547">
        <ele>356</ele>
        <time>2017-03-03T10:29:45Z</time>
      </trkpt>
      <trkpt lat="43.41368" lon="5.54551">
        <ele>356</ele>
        <time>2017-03-03T10:29:45Z</time>
      </trkpt>
      <trkpt lat="43.41377" lon="5.54562">
        <ele>352</ele>
        <time>2017-03-03T10:30:09Z</time>
      </trkpt>
      <trkpt lat="43.41378" lon="5.54563">
        <ele>352</ele>
        <time>2017-03-03T10:30:09Z</time>
      </trkpt>
      <trkpt lat="43.41378" lon="5.54564">
        <ele>352</ele>
        <time>2017-03-03T10:30:09Z</time>
      </trkpt>
      <trkpt lat="43.41378" lon="5.54565">
        <ele>352</ele>
        <time>2017-03-03T10:30:09Z</time>
      </trkpt>
      <trkpt lat="43.41383" lon="5.54567">
        <ele>352</ele>
        <time>2017-03-03T10:30:09Z</time>
      </trkpt>
      <trkpt lat="43.41389" lon="5.54578">
        <ele>352</ele>
        <time>2017-03-03T10:30:41Z</time>
      </trkpt>
      <trkpt lat="43.4139" lon="5.5458">
        <ele>352</ele>
        <time>2017-03-03T10:30:41Z</time>
      </trkpt>
      <trkpt lat="43.41392" lon="5.54584">
        <ele>352</ele>
        <time>2017-03-03T10:30:41Z</time>
      </trkpt>
      <trkpt lat="43.41393" lon="5.54587">
        <ele>352</ele>
        <time>2017-03-03T10:30:41Z</time>
      </trkpt>
      <trkpt lat="43.41395" lon="5.5459">
        <ele>352</ele>
        <time>2017-03-03T10:30:41Z</time>
      </trkpt>
      <trkpt lat="43.41396" lon="5.54595">
        <ele>352</ele>
        <time>2017-03-03T10:30:57Z</time>
      </trkpt>
      <trkpt lat="43.41397" lon="5.54598">
        <ele>352</ele>
        <time>2017-03-03T10:30:57Z</time>
      </trkpt>
      <trkpt lat="43.41398" lon="5.54601">
        <ele>352</ele>
        <time>2017-03-03T10:30:57Z</time>
      </trkpt>
      <trkpt lat="43.414" lon="5.54607">
        <ele>352</ele>
        <time>2017-03-03T10:30:57Z</time>
      </trkpt>
      <trkpt lat="43.41405" lon="5.5462">
        <ele>352</ele>
        <time>2017-03-03T10:31:33Z</time>
      </trkpt>
      <trkpt lat="43.41405" lon="5.5462">
        <ele>352</ele>
        <time>2017-03-03T10:31:33Z</time>
      </trkpt>
      <trkpt lat="43.41405" lon="5.54624">
        <ele>352</ele>
        <time>2017-03-03T10:31:33Z</time>
      </trkpt>
      <trkpt lat="43.41404" lon="5.54632">
        <ele>349</ele>
        <time>2017-03-03T10:31:33Z</time>
      </trkpt>
      <trkpt lat="43.41404" lon="5.54636">
        <ele>349</ele>
        <time>2017-03-03T10:31:33Z</time>
      </trkpt>
      <trkpt lat="43.41401" lon="5.54639">
        <ele>349</ele>
        <time>2017-03-03T10:32:05Z</time>
      </trkpt>
      <trkpt lat="43.414" lon="5.54641">
        <ele>349</ele>
        <time>2017-03-03T10:32:05Z</time>
      </trkpt>
      <trkpt lat="43.41398" lon="5.54642">
        <ele>349</ele>
        <time>2017-03-03T10:32:05Z</time>
      </trkpt>
      <trkpt lat="43.41395" lon="5.54641">
        <ele>349</ele>
        <time>2017-03-03T10:32:05Z</time>
      </trkpt>
      <trkpt lat="43.41391" lon="5.54642">
        <ele>349</ele>
        <time>2017-03-03T10:32:05Z</time>
      </trkpt>
      <trkpt lat="43.41385" lon="5.5464">
        <ele>349</ele>
        <time>2017-03-03T10:32:37Z</time>
      </trkpt>
      <trkpt lat="43.41384" lon="5.54641">
        <ele>349</ele>
        <time>2017-03-03T10:32:37Z</time>
      </trkpt>
      <trkpt lat="43.41383" lon="5.54641">
        <ele>349</ele>
        <time>2017-03-03T10:32:37Z</time>
      </trkpt>
      <trkpt lat="43.4138" lon="5.5464">
        <ele>349</ele>
        <time>2017-03-03T10:32:37Z</time>
      </trkpt>
      <trkpt lat="43.41375" lon="5.54641">
        <ele>349</ele>
        <time>2017-03-03T10:32:37Z</time>
      </trkpt>
      <trkpt lat="43.41371" lon="5.54646">
        <ele>351</ele>
        <time>2017-03-03T10:32:53Z</time>
      </trkpt>
      <trkpt lat="43.41366" lon="5.54653">
        <ele>351</ele>
        <time>2017-03-03T10:32:53Z</time>
      </trkpt>
      <trkpt lat="43.41363" lon="5.54656">
        <ele>351</ele>
        <time>2017-03-03T10:32:53Z</time>
      </trkpt>
      <trkpt lat="43.4136" lon="5.54662">
        <ele>351</ele>
        <time>2017-03-03T10:32:53Z</time>
      </trkpt>
      <trkpt lat="43.41359" lon="5.54666">
        <ele>351</ele>
        <time>2017-03-03T10:33:09Z</time>
      </trkpt>
      <trkpt lat="43.41358" lon="5.54669">
        <ele>351</ele>
        <time>2017-03-03T10:33:09Z</time>
      </trkpt>
      <trkpt lat="43.41356" lon="5.54674">
        <ele>351</ele>
        <time>2017-03-03T10:33:09Z</time>
      </trkpt>
      <trkpt lat="43.41355" lon="5.54678">
        <ele>351</ele>
        <time>2017-03-03T10:33:09Z</time>
      </trkpt>
      <trkpt lat="43.41352" lon="5.54682">
        <ele>351</ele>
        <time>2017-03-03T10:33:25Z</time>
      </trkpt>
      <trkpt lat="43.41349" lon="5.54687">
        <ele>351</ele>
        <time>2017-03-03T10:33:25Z</time>
      </trkpt>
      <trkpt lat="43.41347" lon="5.54691">
        <ele>351</ele>
        <time>2017-03-03T10:33:25Z</time>
      </trkpt>
      <trkpt lat="43.41343" lon="5.54694">
        <ele>351</ele>
        <time>2017-03-03T10:33:25Z</time>
      </trkpt>
      <trkpt lat="43.4134" lon="5.54698">
        <ele>351</ele>
        <time>2017-03-03T10:33:41Z</time>
      </trkpt>
      <trkpt lat="43.41339" lon="5.54701">
        <ele>351</ele>
        <time>2017-03-03T10:33:41Z</time>
      </trkpt>
      <trkpt lat="43.41337" lon="5.54704">
        <ele>351</ele>
        <time>2017-03-03T10:33:41Z</time>
      </trkpt>
      <trkpt lat="43.41334" lon="5.54712">
        <ele>350</ele>
        <time>2017-03-03T10:33:41Z</time>
      </trkpt>
      <trkpt lat="43.41332" lon="5.54717">
        <ele>350</ele>
        <time>2017-03-03T10:33:57Z</time>
      </trkpt>
      <trkpt lat="43.41329" lon="5.54721">
        <ele>350</ele>
        <time>2017-03-03T10:33:57Z</time>
      </trkpt>
      <trkpt lat="43.41326" lon="5.54724">
        <ele>350</ele>
        <time>2017-03-03T10:33:57Z</time>
      </trkpt>
      <trkpt lat="43.4132" lon="5.54727">
        <ele>350</ele>
        <time>2017-03-03T10:33:57Z</time>
      </trkpt>
      <trkpt lat="43.41317" lon="5.54727">
        <ele>350</ele>
        <time>2017-03-03T10:34:13Z</time>
      </trkpt>
      <trkpt lat="43.41313" lon="5.54726">
        <ele>350</ele>
        <time>2017-03-03T10:34:13Z</time>
      </trkpt>
      <trkpt lat="43.41307" lon="5.54728">
        <ele>350</ele>
        <time>2017-03-03T10:34:13Z</time>
      </trkpt>
      <trkpt lat="43.41302" lon="5.54729">
        <ele>350</ele>
        <time>2017-03-03T10:34:13Z</time>
      </trkpt>
      <trkpt lat="43.41296" lon="5.54729">
        <ele>350</ele>
        <time>2017-03-03T10:34:29Z</time>
      </trkpt>
      <trkpt lat="43.41292" lon="5.54731">
        <ele>346</ele>
        <time>2017-03-03T10:34:29Z</time>
      </trkpt>
      <trkpt lat="43.41287" lon="5.54732">
        <ele>346</ele>
        <time>2017-03-03T10:34:29Z</time>
      </trkpt>
      <trkpt lat="43.41284" lon="5.54733">
        <ele>346</ele>
        <time>2017-03-03T10:34:29Z</time>
      </trkpt>
      <trkpt lat="43.41281" lon="5.54733">
        <ele>346</ele>
        <time>2017-03-03T10:34:45Z</time>
      </trkpt>
      <trkpt lat="43.41278" lon="5.54733">
        <ele>346</ele>
        <time>2017-03-03T10:34:45Z</time>
      </trkpt>
      <trkpt lat="43.41273" lon="5.54734">
        <ele>346</ele>
        <time>2017-03-03T10:34:45Z</time>
      </trkpt>
      <trkpt lat="43.4127" lon="5.54736">
        <ele>346</ele>
        <time>2017-03-03T10:34:45Z</time>
      </trkpt>
      <trkpt lat="43.41265" lon="5.5474">
        <ele>346</ele>
        <time>2017-03-03T10:35:01Z</time>
      </trkpt>
      <trkpt lat="43.41261" lon="5.54743">
        <ele>346</ele>
        <time>2017-03-03T10:35:01Z</time>
      </trkpt>
      <trkpt lat="43.41254" lon="5.5475">
        <ele>346</ele>
        <time>2017-03-03T10:35:01Z</time>
      </trkpt>
      <trkpt lat="43.41251" lon="5.54755">
        <ele>346</ele>
        <time>2017-03-03T10:35:01Z</time>
      </trkpt>
      <trkpt lat="43.41251" lon="5.54755">
        <ele>346</ele>
        <time>2017-03-03T10:35:17Z</time>
      </trkpt>
      <trkpt lat="43.41251" lon="5.54754">
        <ele>346</ele>
        <time>2017-03-03T10:35:17Z</time>
      </trkpt>
      <trkpt lat="43.41251" lon="5.54761">
        <ele>346</ele>
        <time>2017-03-03T10:35:17Z</time>
      </trkpt>
      <trkpt lat="43.41253" lon="5.54769">
        <ele>346</ele>
        <time>2017-03-03T10:35:17Z</time>
      </trkpt>
      <trkpt lat="43.41253" lon="5.54774">
        <ele>346</ele>
        <time>2017-03-03T10:35:33Z</time>
      </trkpt>
      <trkpt lat="43.41254" lon="5.54778">
        <ele>346</ele>
        <time>2017-03-03T10:35:33Z</time>
      </trkpt>
      <trkpt lat="43.41254" lon="5.54784">
        <ele>346</ele>
        <time>2017-03-03T10:35:33Z</time>
      </trkpt>
      <trkpt lat="43.41254" lon="5.54787">
        <ele>346</ele>
        <time>2017-03-03T10:35:33Z</time>
      </trkpt>
      <trkpt lat="43.41258" lon="5.54784">
        <ele>346</ele>
        <time>2017-03-03T10:36:49Z</time>
      </trkpt>
      <trkpt lat="43.4126" lon="5.54786">
        <ele>346</ele>
        <time>2017-03-03T10:36:49Z</time>
      </trkpt>
      <trkpt lat="43.41261" lon="5.54791">
        <ele>346</ele>
        <time>2017-03-03T10:36:49Z</time>
      </trkpt>
      <trkpt lat="43.41262" lon="5.54798">
        <ele>347</ele>
        <time>2017-03-03T10:36:49Z</time>
      </trkpt>
      <trkpt lat="43.41262" lon="5.548">
        <ele>347</ele>
        <time>2017-03-03T10:36:49Z</time>
      </trkpt>
      <trkpt lat="43.41262" lon="5.54805">
        <ele>347</ele>
        <time>2017-03-03T10:37:05Z</time>
      </trkpt>
      <trkpt lat="43.41261" lon="5.54811">
        <ele>347</ele>
        <time>2017-03-03T10:37:05Z</time>
      </trkpt>
      <trkpt lat="43.41261" lon="5.54817">
        <ele>347</ele>
        <time>2017-03-03T10:37:05Z</time>
      </trkpt>
      <trkpt lat="43.4126" lon="5.54821">
        <ele>347</ele>
        <time>2017-03-03T10:37:05Z</time>
      </trkpt>
      <trkpt lat="43.4126" lon="5.54827">
        <ele>347</ele>
        <time>2017-03-03T10:37:21Z</time>
      </trkpt>
      <trkpt lat="43.41259" lon="5.54831">
        <ele>347</ele>
        <time>2017-03-03T10:37:21Z</time>
      </trkpt>
      <trkpt lat="43.41257" lon="5.54836">
        <ele>347</ele>
        <time>2017-03-03T10:37:21Z</time>
      </trkpt>
      <trkpt lat="43.41255" lon="5.54842">
        <ele>347</ele>
        <time>2017-03-03T10:37:21Z</time>
      </trkpt>
      <trkpt lat="43.41253" lon="5.54847">
        <ele>347</ele>
        <time>2017-03-03T10:37:37Z</time>
      </trkpt>
      <trkpt lat="43.4125" lon="5.54852">
        <ele>347</ele>
        <time>2017-03-03T10:37:37Z</time>
      </trkpt>
      <trkpt lat="43.4125" lon="5.54857">
        <ele>347</ele>
        <time>2017-03-03T10:37:37Z</time>
      </trkpt>
      <trkpt lat="43.4125" lon="5.54861">
        <ele>347</ele>
        <time>2017-03-03T10:37:37Z</time>
      </trkpt>
      <trkpt lat="43.4125" lon="5.54866">
        <ele>347</ele>
        <time>2017-03-03T10:37:57Z</time>
      </trkpt>
      <trkpt lat="43.41252" lon="5.54868">
        <ele>347</ele>
        <time>2017-03-03T10:37:57Z</time>
      </trkpt>
      <trkpt lat="43.41253" lon="5.54872">
        <ele>347</ele>
        <time>2017-03-03T10:37:57Z</time>
      </trkpt>
      <trkpt lat="43.41257" lon="5.54874">
        <ele>347</ele>
        <time>2017-03-03T10:37:57Z</time>
      </trkpt>
      <trkpt lat="43.41259" lon="5.54874">
        <ele>347</ele>
        <time>2017-03-03T10:37:57Z</time>
      </trkpt>
      <trkpt lat="43.4126" lon="5.54874">
        <ele>347</ele>
        <time>2017-03-03T10:38:13Z</time>
      </trkpt>
      <trkpt lat="43.41266" lon="5.54874">
        <ele>347</ele>
        <time>2017-03-03T10:38:13Z</time>
      </trkpt>
      <trkpt lat="43.41275" lon="5.54882">
        <ele>347</ele>
        <time>2017-03-03T10:38:13Z</time>
      </trkpt>
      <trkpt lat="43.41279" lon="5.54886">
        <ele>347</ele>
        <time>2017-03-03T10:38:13Z</time>
      </trkpt>
      <trkpt lat="43.41282" lon="5.54892">
        <ele>347</ele>
        <time>2017-03-03T10:38:29Z</time>
      </trkpt>
      <trkpt lat="43.41284" lon="5.54896">
        <ele>347</ele>
        <time>2017-03-03T10:38:29Z</time>
      </trkpt>
      <trkpt lat="43.41285" lon="5.54902">
        <ele>347</ele>
        <time>2017-03-03T10:38:29Z</time>
      </trkpt>
      <trkpt lat="43.41287" lon="5.54906">
        <ele>347</ele>
        <time>2017-03-03T10:38:29Z</time>
      </trkpt>
      <trkpt lat="43.4129" lon="5.5491">
        <ele>347</ele>
        <time>2017-03-03T10:38:45Z</time>
      </trkpt>
      <trkpt lat="43.41292" lon="5.54916">
        <ele>349</ele>
        <time>2017-03-03T10:38:45Z</time>
      </trkpt>
      <trkpt lat="43.41295" lon="5.54922">
        <ele>349</ele>
        <time>2017-03-03T10:38:45Z</time>
      </trkpt>
      <trkpt lat="43.41298" lon="5.54926">
        <ele>349</ele>
        <time>2017-03-03T10:38:45Z</time>
      </trkpt>
      <trkpt lat="43.413" lon="5.54928">
        <ele>349</ele>
        <time>2017-03-03T10:39:01Z</time>
      </trkpt>
      <trkpt lat="43.41303" lon="5.54931">
        <ele>349</ele>
        <time>2017-03-03T10:39:01Z</time>
      </trkpt>
      <trkpt lat="43.41306" lon="5.54936">
        <ele>349</ele>
        <time>2017-03-03T10:39:01Z</time>
      </trkpt>
      <trkpt lat="43.4131" lon="5.54938">
        <ele>349</ele>
        <time>2017-03-03T10:39:01Z</time>
      </trkpt>
      <trkpt lat="43.41313" lon="5.54941">
        <ele>349</ele>
        <time>2017-03-03T10:39:17Z</time>
      </trkpt>
      <trkpt lat="43.41319" lon="5.54943">
        <ele>349</ele>
        <time>2017-03-03T10:39:17Z</time>
      </trkpt>
      <trkpt lat="43.41322" lon="5.54945">
        <ele>349</ele>
        <time>2017-03-03T10:39:17Z</time>
      </trkpt>
      <trkpt lat="43.41324" lon="5.54948">
        <ele>349</ele>
        <time>2017-03-03T10:39:17Z</time>
      </trkpt>
      <trkpt lat="43.41327" lon="5.5495">
        <ele>349</ele>
        <time>2017-03-03T10:39:37Z</time>
      </trkpt>
      <trkpt lat="43.41328" lon="5.54952">
        <ele>349</ele>
        <time>2017-03-03T10:39:37Z</time>
      </trkpt>
      <trkpt lat="43.41331" lon="5.54956">
        <ele>349</ele>
        <time>2017-03-03T10:39:37Z</time>
      </trkpt>
      <trkpt lat="43.41331" lon="5.54957">
        <ele>349</ele>
        <time>2017-03-03T10:39:37Z</time>
      </trkpt>
      <trkpt lat="43.41331" lon="5.54964">
        <ele>348</ele>
        <time>2017-03-03T10:39:37Z</time>
      </trkpt>
      <trkpt lat="43.41334" lon="5.54969">
        <ele>348</ele>
        <time>2017-03-03T10:39:53Z</time>
      </trkpt>
      <trkpt lat="43.41335" lon="5.54975">
        <ele>348</ele>
        <time>2017-03-03T10:39:53Z</time>
      </trkpt>
      <trkpt lat="43.41339" lon="5.54979">
        <ele>348</ele>
        <time>2017-03-03T10:39:53Z</time>
      </trkpt>
      <trkpt lat="43.41344" lon="5.54985">
        <ele>348</ele>
        <time>2017-03-03T10:39:53Z</time>
      </trkpt>
      <trkpt lat="43.41347" lon="5.54993">
        <ele>348</ele>
        <time>2017-03-03T10:40:17Z</time>
      </trkpt>
      <trkpt lat="43.41348" lon="5.54996">
        <ele>348</ele>
        <time>2017-03-03T10:40:17Z</time>
      </trkpt>
      <trkpt lat="43.41348" lon="5.54995">
        <ele>348</ele>
        <time>2017-03-03T10:40:17Z</time>
      </trkpt>
      <trkpt lat="43.41349" lon="5.55">
        <ele>348</ele>
        <time>2017-03-03T10:40:17Z</time>
      </trkpt>
      <trkpt lat="43.41349" lon="5.55005">
        <ele>348</ele>
        <time>2017-03-03T10:40:17Z</time>
      </trkpt>
      <trkpt lat="43.41349" lon="5.55012">
        <ele>348</ele>
        <time>2017-03-03T10:40:37Z</time>
      </trkpt>
      <trkpt lat="43.41349" lon="5.55018">
        <ele>348</ele>
        <time>2017-03-03T10:40:37Z</time>
      </trkpt>
      <trkpt lat="43.41349" lon="5.55021">
        <ele>348</ele>
        <time>2017-03-03T10:40:37Z</time>
      </trkpt>
      <trkpt lat="43.4135" lon="5.55024">
        <ele>348</ele>
        <time>2017-03-03T10:40:37Z</time>
      </trkpt>
      <trkpt lat="43.41351" lon="5.55029">
        <ele>348</ele>
        <time>2017-03-03T10:40:37Z</time>
      </trkpt>
      <trkpt lat="43.41351" lon="5.55035">
        <ele>348</ele>
        <time>2017-03-03T10:40:53Z</time>
      </trkpt>
      <trkpt lat="43.41351" lon="5.5504">
        <ele>348</ele>
        <time>2017-03-03T10:40:53Z</time>
      </trkpt>
      <trkpt lat="43.41352" lon="5.55046">
        <ele>345</ele>
        <time>2017-03-03T10:40:53Z</time>
      </trkpt>
      <trkpt lat="43.41355" lon="5.55049">
        <ele>345</ele>
        <time>2017-03-03T10:40:53Z</time>
      </trkpt>
      <trkpt lat="43.41355" lon="5.55056">
        <ele>345</ele>
        <time>2017-03-03T10:41:09Z</time>
      </trkpt>
      <trkpt lat="43.41357" lon="5.55063">
        <ele>345</ele>
        <time>2017-03-03T10:41:09Z</time>
      </trkpt>
      <trkpt lat="43.41358" lon="5.55068">
        <ele>345</ele>
        <time>2017-03-03T10:41:09Z</time>
      </trkpt>
      <trkpt lat="43.41358" lon="5.55074">
        <ele>345</ele>
        <time>2017-03-03T10:41:09Z</time>
      </trkpt>
      <trkpt lat="43.41358" lon="5.5508">
        <ele>345</ele>
        <time>2017-03-03T10:41:25Z</time>
      </trkpt>
      <trkpt lat="43.41357" lon="5.55086">
        <ele>345</ele>
        <time>2017-03-03T10:41:25Z</time>
      </trkpt>
      <trkpt lat="43.41357" lon="5.5509">
        <ele>345</ele>
        <time>2017-03-03T10:41:25Z</time>
      </trkpt>
      <trkpt lat="43.41357" lon="5.55097">
        <ele>345</ele>
        <time>2017-03-03T10:41:25Z</time>
      </trkpt>
      <trkpt lat="43.41357" lon="5.55104">
        <ele>345</ele>
        <time>2017-03-03T10:41:41Z</time>
      </trkpt>
      <trkpt lat="43.41357" lon="5.55109">
        <ele>345</ele>
        <time>2017-03-03T10:41:41Z</time>
      </trkpt>
      <trkpt lat="43.41359" lon="5.55115">
        <ele>345</ele>
        <time>2017-03-03T10:41:41Z</time>
      </trkpt>
      <trkpt lat="43.41359" lon="5.5512">
        <ele>345</ele>
        <time>2017-03-03T10:41:41Z</time>
      </trkpt>
      <trkpt lat="43.41359" lon="5.55127">
        <ele>346</ele>
        <time>2017-03-03T10:41:57Z</time>
      </trkpt>
      <trkpt lat="43.41359" lon="5.55132">
        <ele>346</ele>
        <time>2017-03-03T10:41:57Z</time>
      </trkpt>
      <trkpt lat="43.41359" lon="5.55137">
        <ele>346</ele>
        <time>2017-03-03T10:41:57Z</time>
      </trkpt>
      <trkpt lat="43.41359" lon="5.55141">
        <ele>346</ele>
        <time>2017-03-03T10:41:57Z</time>
      </trkpt>
      <trkpt lat="43.41359" lon="5.55146">
        <ele>346</ele>
        <time>2017-03-03T10:42:13Z</time>
      </trkpt>
      <trkpt lat="43.41358" lon="5.55152">
        <ele>346</ele>
        <time>2017-03-03T10:42:13Z</time>
      </trkpt>
      <trkpt lat="43.41358" lon="5.55158">
        <ele>346</ele>
        <time>2017-03-03T10:42:13Z</time>
      </trkpt>
      <trkpt lat="43.41358" lon="5.55161">
        <ele>346</ele>
        <time>2017-03-03T10:42:13Z</time>
      </trkpt>
      <trkpt lat="43.41359" lon="5.55165">
        <ele>346</ele>
        <time>2017-03-03T10:42:29Z</time>
      </trkpt>
      <trkpt lat="43.41357" lon="5.55168">
        <ele>346</ele>
        <time>2017-03-03T10:42:29Z</time>
      </trkpt>
      <trkpt lat="43.41355" lon="5.55167">
        <ele>346</ele>
        <time>2017-03-03T10:42:29Z</time>
      </trkpt>
      <trkpt lat="43.4135" lon="5.55168">
        <ele>346</ele>
        <time>2017-03-03T10:42:29Z</time>
      </trkpt>
      <trkpt lat="43.41349" lon="5.5517">
        <ele>346</ele>
        <time>2017-03-03T10:42:45Z</time>
      </trkpt>
      <trkpt lat="43.41343" lon="5.55184">
        <ele>346</ele>
        <time>2017-03-03T10:42:45Z</time>
      </trkpt>
      <trkpt lat="43.41339" lon="5.55186">
        <ele>346</ele>
        <time>2017-03-03T10:42:45Z</time>
      </trkpt>
      <trkpt lat="43.41338" lon="5.5519">
        <ele>346</ele>
        <time>2017-03-03T10:42:45Z</time>
      </trkpt>
      <trkpt lat="43.41338" lon="5.55192">
        <ele>346</ele>
        <time>2017-03-03T10:43:05Z</time>
      </trkpt>
      <trkpt lat="43.41338" lon="5.55194">
        <ele>346</ele>
        <time>2017-03-03T10:43:05Z</time>
      </trkpt>
      <trkpt lat="43.41338" lon="5.552">
        <ele>346</ele>
        <time>2017-03-03T10:43:05Z</time>
      </trkpt>
      <trkpt lat="43.41338" lon="5.55203">
        <ele>346</ele>
        <time>2017-03-03T10:43:05Z</time>
      </trkpt>
      <trkpt lat="43.41334" lon="5.55208">
        <ele>346</ele>
        <time>2017-03-03T10:43:05Z</time>
      </trkpt>
      <trkpt lat="43.41332" lon="5.55211">
        <ele>349</ele>
        <time>2017-03-03T10:43:21Z</time>
      </trkpt>
      <trkpt lat="43.4133" lon="5.55218">
        <ele>349</ele>
        <time>2017-03-03T10:43:21Z</time>
      </trkpt>
      <trkpt lat="43.41326" lon="5.55227">
        <ele>349</ele>
        <time>2017-03-03T10:43:21Z</time>
      </trkpt>
      <trkpt lat="43.41325" lon="5.55234">
        <ele>349</ele>
        <time>2017-03-03T10:43:21Z</time>
      </trkpt>
      <trkpt lat="43.41324" lon="5.55237">
        <ele>349</ele>
        <time>2017-03-03T10:43:41Z</time>
      </trkpt>
      <trkpt lat="43.41323" lon="5.55241">
        <ele>349</ele>
        <time>2017-03-03T10:43:41Z</time>
      </trkpt>
      <trkpt lat="43.41322" lon="5.55245">
        <ele>349</ele>
        <time>2017-03-03T10:43:41Z</time>
      </trkpt>
      <trkpt lat="43.41322" lon="5.55247">
        <ele>349</ele>
        <time>2017-03-03T10:43:41Z</time>
      </trkpt>
      <trkpt lat="43.4132" lon="5.55253">
        <ele>349</ele>
        <time>2017-03-03T10:43:41Z</time>
      </trkpt>
      <trkpt lat="43.41318" lon="5.5526">
        <ele>349</ele>
        <time>2017-03-03T10:43:57Z</time>
      </trkpt>
      <trkpt lat="43.41318" lon="5.55263">
        <ele>349</ele>
        <time>2017-03-03T10:43:57Z</time>
      </trkpt>
      <trkpt lat="43.41319" lon="5.5527">
        <ele>349</ele>
        <time>2017-03-03T10:43:57Z</time>
      </trkpt>
      <trkpt lat="43.41318" lon="5.55276">
        <ele>349</ele>
        <time>2017-03-03T10:43:57Z</time>
      </trkpt>
      <trkpt lat="43.41317" lon="5.55281">
        <ele>349</ele>
        <time>2017-03-03T10:44:13Z</time>
      </trkpt>
      <trkpt lat="43.41314" lon="5.55288">
        <ele>349</ele>
        <time>2017-03-03T10:44:13Z</time>
      </trkpt>
      <trkpt lat="43.41311" lon="5.55293">
        <ele>350</ele>
        <time>2017-03-03T10:44:13Z</time>
      </trkpt>
      <trkpt lat="43.4131" lon="5.55303">
        <ele>350</ele>
        <time>2017-03-03T10:44:13Z</time>
      </trkpt>
      <trkpt lat="43.41308" lon="5.55308">
        <ele>350</ele>
        <time>2017-03-03T10:44:29Z</time>
      </trkpt>
      <trkpt lat="43.41307" lon="5.55313">
        <ele>350</ele>
        <time>2017-03-03T10:44:29Z</time>
      </trkpt>
      <trkpt lat="43.41306" lon="5.55319">
        <ele>350</ele>
        <time>2017-03-03T10:44:29Z</time>
      </trkpt>
      <trkpt lat="43.41306" lon="5.55322">
        <ele>350</ele>
        <time>2017-03-03T10:44:29Z</time>
      </trkpt>
      <trkpt lat="43.41306" lon="5.55326">
        <ele>350</ele>
        <time>2017-03-03T10:44:45Z</time>
      </trkpt>
      <trkpt lat="43.41305" lon="5.55331">
        <ele>350</ele>
        <time>2017-03-03T10:44:45Z</time>
      </trkpt>
      <trkpt lat="43.41305" lon="5.55338">
        <ele>350</ele>
        <time>2017-03-03T10:44:45Z</time>
      </trkpt>
      <trkpt lat="43.41305" lon="5.55349">
        <ele>350</ele>
        <time>2017-03-03T10:44:45Z</time>
      </trkpt>
      <trkpt lat="43.41304" lon="5.55353">
        <ele>350</ele>
        <time>2017-03-03T10:45:01Z</time>
      </trkpt>
      <trkpt lat="43.41302" lon="5.55358">
        <ele>350</ele>
        <time>2017-03-03T10:45:01Z</time>
      </trkpt>
      <trkpt lat="43.413" lon="5.55363">
        <ele>350</ele>
        <time>2017-03-03T10:45:01Z</time>
      </trkpt>
      <trkpt lat="43.41297" lon="5.55367">
        <ele>350</ele>
        <time>2017-03-03T10:45:01Z</time>
      </trkpt>
      <trkpt lat="43.41294" lon="5.55371">
        <ele>350</ele>
        <time>2017-03-03T10:45:21Z</time>
      </trkpt>
      <trkpt lat="43.41293" lon="5.55373">
        <ele>350</ele>
        <time>2017-03-03T10:45:21Z</time>
      </trkpt>
      <trkpt lat="43.41292" lon="5.55376">
        <ele>351</ele>
        <time>2017-03-03T10:45:21Z</time>
      </trkpt>
      <trkpt lat="43.41289" lon="5.55379">
        <ele>351</ele>
        <time>2017-03-03T10:45:21Z</time>
      </trkpt>
      <trkpt lat="43.41286" lon="5.55382">
        <ele>351</ele>
        <time>2017-03-03T10:45:21Z</time>
      </trkpt>
      <trkpt lat="43.41282" lon="5.55386">
        <ele>351</ele>
        <time>2017-03-03T10:45:37Z</time>
      </trkpt>
      <trkpt lat="43.41278" lon="5.55388">
        <ele>351</ele>
        <time>2017-03-03T10:45:37Z</time>
      </trkpt>
      <trkpt lat="43.41273" lon="5.55388">
        <ele>351</ele>
        <time>2017-03-03T10:45:37Z</time>
      </trkpt>
      <trkpt lat="43.41267" lon="5.55388">
        <ele>351</ele>
        <time>2017-03-03T10:45:37Z</time>
      </trkpt>
      <trkpt lat="43.41263" lon="5.55391">
        <ele>351</ele>
        <time>2017-03-03T10:45:53Z</time>
      </trkpt>
      <trkpt lat="43.41261" lon="5.55392">
        <ele>351</ele>
        <time>2017-03-03T10:45:53Z</time>
      </trkpt>
      <trkpt lat="43.41257" lon="5.55397">
        <ele>351</ele>
        <time>2017-03-03T10:45:53Z</time>
      </trkpt>
      <trkpt lat="43.41253" lon="5.554">
        <ele>351</ele>
        <time>2017-03-03T10:45:53Z</time>
      </trkpt>
      <trkpt lat="43.41248" lon="5.55404">
        <ele>351</ele>
        <time>2017-03-03T10:46:17Z</time>
      </trkpt>
      <trkpt lat="43.41248" lon="5.55404">
        <ele>351</ele>
        <time>2017-03-03T10:46:17Z</time>
      </trkpt>
      <trkpt lat="43.41248" lon="5.55404">
        <ele>351</ele>
        <time>2017-03-03T10:46:17Z</time>
      </trkpt>
      <trkpt lat="43.41245" lon="5.55406">
        <ele>351</ele>
        <time>2017-03-03T10:46:17Z</time>
      </trkpt>
      <trkpt lat="43.41242" lon="5.55408">
        <ele>351</ele>
        <time>2017-03-03T10:46:17Z</time>
      </trkpt>
      <trkpt lat="43.41238" lon="5.55415">
        <ele>351</ele>
        <time>2017-03-03T10:46:45Z</time>
      </trkpt>
      <trkpt lat="43.41237" lon="5.55415">
        <ele>351</ele>
        <time>2017-03-03T10:46:45Z</time>
      </trkpt>
      <trkpt lat="43.41234" lon="5.55419">
        <ele>351</ele>
        <time>2017-03-03T10:46:45Z</time>
      </trkpt>
      <trkpt lat="43.41232" lon="5.55422">
        <ele>351</ele>
        <time>2017-03-03T10:46:45Z</time>
      </trkpt>
      <trkpt lat="43.4123" lon="5.55423">
        <ele>351</ele>
        <time>2017-03-03T10:46:45Z</time>
      </trkpt>
      <trkpt lat="43.41229" lon="5.55426">
        <ele>351</ele>
        <time>2017-03-03T10:47:01Z</time>
      </trkpt>
      <trkpt lat="43.41227" lon="5.5543">
        <ele>351</ele>
        <time>2017-03-03T10:47:01Z</time>
      </trkpt>
      <trkpt lat="43.41224" lon="5.55437">
        <ele>351</ele>
        <time>2017-03-03T10:47:01Z</time>
      </trkpt>
      <trkpt lat="43.4122" lon="5.55442">
        <ele>351</ele>
        <time>2017-03-03T10:47:01Z</time>
      </trkpt>
      <trkpt lat="43.41218" lon="5.55446">
        <ele>351</ele>
        <time>2017-03-03T10:47:17Z</time>
      </trkpt>
      <trkpt lat="43.41215" lon="5.55451">
        <ele>351</ele>
        <time>2017-03-03T10:47:17Z</time>
      </trkpt>
      <trkpt lat="43.41213" lon="5.55456">
        <ele>351</ele>
        <time>2017-03-03T10:47:17Z</time>
      </trkpt>
      <trkpt lat="43.41211" lon="5.55461">
        <ele>352</ele>
        <time>2017-03-03T10:47:17Z</time>
      </trkpt>
      <trkpt lat="43.41209" lon="5.55464">
        <ele>352</ele>
        <time>2017-03-03T10:47:33Z</time>
      </trkpt>
      <trkpt lat="43.41208" lon="5.55469">
        <ele>350</ele>
        <time>2017-03-03T10:47:33Z</time>
      </trkpt>
      <trkpt lat="43.41205" lon="5.55472">
        <ele>350</ele>
        <time>2017-03-03T10:47:33Z</time>
      </trkpt>
      <trkpt lat="43.41202" lon="5.55476">
        <ele>350</ele>
        <time>2017-03-03T10:47:33Z</time>
      </trkpt>
      <trkpt lat="43.41198" lon="5.55478">
        <ele>350</ele>
        <time>2017-03-03T10:47:49Z</time>
      </trkpt>
      <trkpt lat="43.41195" lon="5.55481">
        <ele>350</ele>
        <time>2017-03-03T10:47:49Z</time>
      </trkpt>
      <trkpt lat="43.41191" lon="5.55488">
        <ele>350</ele>
        <time>2017-03-03T10:47:49Z</time>
      </trkpt>
      <trkpt lat="43.4119" lon="5.55496">
        <ele>350</ele>
        <time>2017-03-03T10:47:49Z</time>
      </trkpt>
      <trkpt lat="43.41187" lon="5.55503">
        <ele>350</ele>
        <time>2017-03-03T10:48:05Z</time>
      </trkpt>
      <trkpt lat="43.41185" lon="5.5551">
        <ele>350</ele>
        <time>2017-03-03T10:48:05Z</time>
      </trkpt>
      <trkpt lat="43.41185" lon="5.55512">
        <ele>350</ele>
        <time>2017-03-03T10:48:05Z</time>
      </trkpt>
      <trkpt lat="43.41181" lon="5.55517">
        <ele>350</ele>
        <time>2017-03-03T10:48:05Z</time>
      </trkpt>
      <trkpt lat="43.41178" lon="5.55521">
        <ele>350</ele>
        <time>2017-03-03T10:48:25Z</time>
      </trkpt>
      <trkpt lat="43.41176" lon="5.55525">
        <ele>350</ele>
        <time>2017-03-03T10:48:25Z</time>
      </trkpt>
      <trkpt lat="43.41175" lon="5.55527">
        <ele>350</ele>
        <time>2017-03-03T10:48:25Z</time>
      </trkpt>
      <trkpt lat="43.41173" lon="5.55529">
        <ele>350</ele>
        <time>2017-03-03T10:48:25Z</time>
      </trkpt>
      <trkpt lat="43.41173" lon="5.55536">
        <ele>350</ele>
        <time>2017-03-03T10:48:25Z</time>
      </trkpt>
      <trkpt lat="43.41171" lon="5.55542">
        <ele>354</ele>
        <time>2017-03-03T10:48:41Z</time>
      </trkpt>
      <trkpt lat="43.4117" lon="5.55545">
        <ele>354</ele>
        <time>2017-03-03T10:48:41Z</time>
      </trkpt>
      <trkpt lat="43.4117" lon="5.55552">
        <ele>354</ele>
        <time>2017-03-03T10:48:41Z</time>
      </trkpt>
      <trkpt lat="43.41167" lon="5.55561">
        <ele>354</ele>
        <time>2017-03-03T10:48:41Z</time>
      </trkpt>
      <trkpt lat="43.41166" lon="5.55563">
        <ele>354</ele>
        <time>2017-03-03T10:49:01Z</time>
      </trkpt>
      <trkpt lat="43.41163" lon="5.55566">
        <ele>354</ele>
        <time>2017-03-03T10:49:01Z</time>
      </trkpt>
      <trkpt lat="43.4116" lon="5.55568">
        <ele>354</ele>
        <time>2017-03-03T10:49:01Z</time>
      </trkpt>
      <trkpt lat="43.41159" lon="5.55569">
        <ele>354</ele>
        <time>2017-03-03T10:49:01Z</time>
      </trkpt>
      <trkpt lat="43.41156" lon="5.55571">
        <ele>354</ele>
        <time>2017-03-03T10:49:01Z</time>
      </trkpt>
      <trkpt lat="43.41154" lon="5.55576">
        <ele>354</ele>
        <time>2017-03-03T10:49:17Z</time>
      </trkpt>
      <trkpt lat="43.41149" lon="5.55579">
        <ele>354</ele>
        <time>2017-03-03T10:49:17Z</time>
      </trkpt>
      <trkpt lat="43.41145" lon="5.55582">
        <ele>354</ele>
        <time>2017-03-03T10:49:17Z</time>
      </trkpt>
      <trkpt lat="43.4114" lon="5.55588">
        <ele>354</ele>
        <time>2017-03-03T10:49:17Z</time>
      </trkpt>
      <trkpt lat="43.41138" lon="5.55593">
        <ele>354</ele>
        <time>2017-03-03T10:49:33Z</time>
      </trkpt>
      <trkpt lat="43.41135" lon="5.55598">
        <ele>354</ele>
        <time>2017-03-03T10:49:33Z</time>
      </trkpt>
      <trkpt lat="43.41131" lon="5.55603">
        <ele>354</ele>
        <time>2017-03-03T10:49:33Z</time>
      </trkpt>
      <trkpt lat="43.41129" lon="5.55607">
        <ele>354</ele>
        <time>2017-03-03T10:49:33Z</time>
      </trkpt>
      <trkpt lat="43.41127" lon="5.55612">
        <ele>354</ele>
        <time>2017-03-03T10:49:53Z</time>
      </trkpt>
      <trkpt lat="43.41126" lon="5.55615">
        <ele>354</ele>
        <time>2017-03-03T10:49:53Z</time>
      </trkpt>
      <trkpt lat="43.41123" lon="5.5562">
        <ele>352</ele>
        <time>2017-03-03T10:49:53Z</time>
      </trkpt>
      <trkpt lat="43.41122" lon="5.55622">
        <ele>352</ele>
        <time>2017-03-03T10:49:53Z</time>
      </trkpt>
      <trkpt lat="43.41121" lon="5.55625">
        <ele>352</ele>
        <time>2017-03-03T10:49:53Z</time>
      </trkpt>
      <trkpt lat="43.41121" lon="5.55628">
        <ele>355</ele>
        <time>2017-03-03T10:50:09Z</time>
      </trkpt>
      <trkpt lat="43.41118" lon="5.55633">
        <ele>355</ele>
        <time>2017-03-03T10:50:09Z</time>
      </trkpt>
      <trkpt lat="43.41117" lon="5.55639">
        <ele>355</ele>
        <time>2017-03-03T10:50:09Z</time>
      </trkpt>
      <trkpt lat="43.41113" lon="5.55647">
        <ele>355</ele>
        <time>2017-03-03T10:50:09Z</time>
      </trkpt>
      <trkpt lat="43.41112" lon="5.55653">
        <ele>355</ele>
        <time>2017-03-03T10:50:25Z</time>
      </trkpt>
      <trkpt lat="43.41112" lon="5.55662">
        <ele>355</ele>
        <time>2017-03-03T10:50:25Z</time>
      </trkpt>
      <trkpt lat="43.41113" lon="5.55666">
        <ele>355</ele>
        <time>2017-03-03T10:50:25Z</time>
      </trkpt>
      <trkpt lat="43.41117" lon="5.5567">
        <ele>355</ele>
        <time>2017-03-03T10:50:25Z</time>
      </trkpt>
      <trkpt lat="43.41119" lon="5.55674">
        <ele>355</ele>
        <time>2017-03-03T10:50:41Z</time>
      </trkpt>
      <trkpt lat="43.4112" lon="5.55677">
        <ele>355</ele>
        <time>2017-03-03T10:50:41Z</time>
      </trkpt>
      <trkpt lat="43.41121" lon="5.55683">
        <ele>355</ele>
        <time>2017-03-03T10:50:41Z</time>
      </trkpt>
      <trkpt lat="43.41123" lon="5.55689">
        <ele>355</ele>
        <time>2017-03-03T10:50:41Z</time>
      </trkpt>
      <trkpt lat="43.41126" lon="5.55694">
        <ele>358</ele>
        <time>2017-03-03T10:50:57Z</time>
      </trkpt>
      <trkpt lat="43.41127" lon="5.55696">
        <ele>358</ele>
        <time>2017-03-03T10:50:57Z</time>
      </trkpt>
      <trkpt lat="43.4113" lon="5.55705">
        <ele>358</ele>
        <time>2017-03-03T10:50:57Z</time>
      </trkpt>
      <trkpt lat="43.41131" lon="5.55711">
        <ele>364</ele>
        <time>2017-03-03T10:50:57Z</time>
      </trkpt>
      <trkpt lat="43.41133" lon="5.55716">
        <ele>364</ele>
        <time>2017-03-03T10:51:13Z</time>
      </trkpt>
      <trkpt lat="43.41135" lon="5.55722">
        <ele>364</ele>
        <time>2017-03-03T10:51:13Z</time>
      </trkpt>
      <trkpt lat="43.41137" lon="5.55724">
        <ele>364</ele>
        <time>2017-03-03T10:51:13Z</time>
      </trkpt>
      <trkpt lat="43.4114" lon="5.55727">
        <ele>364</ele>
        <time>2017-03-03T10:51:13Z</time>
      </trkpt>
      <trkpt lat="43.41144" lon="5.55731">
        <ele>364</ele>
        <time>2017-03-03T10:51:29Z</time>
      </trkpt>
      <trkpt lat="43.41146" lon="5.55734">
        <ele>364</ele>
        <time>2017-03-03T10:51:29Z</time>
      </trkpt>
      <trkpt lat="43.41149" lon="5.55739">
        <ele>364</ele>
        <time>2017-03-03T10:51:29Z</time>
      </trkpt>
      <trkpt lat="43.41149" lon="5.55745">
        <ele>364</ele>
        <time>2017-03-03T10:51:29Z</time>
      </trkpt>
      <trkpt lat="43.41149" lon="5.5575">
        <ele>364</ele>
        <time>2017-03-03T10:51:45Z</time>
      </trkpt>
      <trkpt lat="43.41151" lon="5.55754">
        <ele>364</ele>
        <time>2017-03-03T10:51:45Z</time>
      </trkpt>
      <trkpt lat="43.41153" lon="5.55761">
        <ele>364</ele>
        <time>2017-03-03T10:51:45Z</time>
      </trkpt>
      <trkpt lat="43.41151" lon="5.55764">
        <ele>364</ele>
        <time>2017-03-03T10:51:45Z</time>
      </trkpt>
      <trkpt lat="43.41149" lon="5.55767">
        <ele>364</ele>
        <time>2017-03-03T10:52:01Z</time>
      </trkpt>
      <trkpt lat="43.41146" lon="5.55774">
        <ele>364</ele>
        <time>2017-03-03T10:52:01Z</time>
      </trkpt>
      <trkpt lat="43.41144" lon="5.55777">
        <ele>364</ele>
        <time>2017-03-03T10:52:01Z</time>
      </trkpt>
      <trkpt lat="43.41143" lon="5.55781">
        <ele>364</ele>
        <time>2017-03-03T10:52:01Z</time>
      </trkpt>
      <trkpt lat="43.41142" lon="5.55786">
        <ele>364</ele>
        <time>2017-03-03T10:52:17Z</time>
      </trkpt>
      <trkpt lat="43.41141" lon="5.55789">
        <ele>364</ele>
        <time>2017-03-03T10:52:17Z</time>
      </trkpt>
      <trkpt lat="43.41142" lon="5.55793">
        <ele>367</ele>
        <time>2017-03-03T10:52:17Z</time>
      </trkpt>
      <trkpt lat="43.41144" lon="5.55798">
        <ele>367</ele>
        <time>2017-03-03T10:52:17Z</time>
      </trkpt>
      <trkpt lat="43.41144" lon="5.55804">
        <ele>367</ele>
        <time>2017-03-03T10:52:33Z</time>
      </trkpt>
      <trkpt lat="43.41146" lon="5.55807">
        <ele>367</ele>
        <time>2017-03-03T10:52:33Z</time>
      </trkpt>
      <trkpt lat="43.41148" lon="5.55812">
        <ele>367</ele>
        <time>2017-03-03T10:52:33Z</time>
      </trkpt>
      <trkpt lat="43.41151" lon="5.55814">
        <ele>367</ele>
        <time>2017-03-03T10:52:33Z</time>
      </trkpt>
      <trkpt lat="43.41155" lon="5.55818">
        <ele>367</ele>
        <time>2017-03-03T10:52:49Z</time>
      </trkpt>
      <trkpt lat="43.41158" lon="5.55821">
        <ele>367</ele>
        <time>2017-03-03T10:52:49Z</time>
      </trkpt>
      <trkpt lat="43.4116" lon="5.55825">
        <ele>367</ele>
        <time>2017-03-03T10:52:49Z</time>
      </trkpt>
      <trkpt lat="43.41163" lon="5.55828">
        <ele>367</ele>
        <time>2017-03-03T10:52:49Z</time>
      </trkpt>
      <trkpt lat="43.41165" lon="5.55834">
        <ele>367</ele>
        <time>2017-03-03T10:53:09Z</time>
      </trkpt>
      <trkpt lat="43.41166" lon="5.55839">
        <ele>367</ele>
        <time>2017-03-03T10:53:09Z</time>
      </trkpt>
      <trkpt lat="43.41164" lon="5.55842">
        <ele>367</ele>
        <time>2017-03-03T10:53:09Z</time>
      </trkpt>
      <trkpt lat="43.41163" lon="5.55845">
        <ele>367</ele>
        <time>2017-03-03T10:53:09Z</time>
      </trkpt>
      <trkpt lat="43.41159" lon="5.5585">
        <ele>367</ele>
        <time>2017-03-03T10:53:09Z</time>
      </trkpt>
      <trkpt lat="43.41156" lon="5.55852">
        <ele>367</ele>
        <time>2017-03-03T10:53:25Z</time>
      </trkpt>
      <trkpt lat="43.41154" lon="5.55856">
        <ele>367</ele>
        <time>2017-03-03T10:53:25Z</time>
      </trkpt>
      <trkpt lat="43.41152" lon="5.55857">
        <ele>367</ele>
        <time>2017-03-03T10:53:25Z</time>
      </trkpt>
      <trkpt lat="43.41149" lon="5.55862">
        <ele>367</ele>
        <time>2017-03-03T10:53:25Z</time>
      </trkpt>
      <trkpt lat="43.41146" lon="5.55863">
        <ele>367</ele>
        <time>2017-03-03T10:53:41Z</time>
      </trkpt>
      <trkpt lat="43.4114" lon="5.55865">
        <ele>367</ele>
        <time>2017-03-03T10:53:41Z</time>
      </trkpt>
      <trkpt lat="43.41134" lon="5.5587">
        <ele>367</ele>
        <time>2017-03-03T10:53:41Z</time>
      </trkpt>
      <trkpt lat="43.41133" lon="5.55872">
        <ele>367</ele>
        <time>2017-03-03T10:53:41Z</time>
      </trkpt>
      <trkpt lat="43.41129" lon="5.55881">
        <ele>369</ele>
        <time>2017-03-03T10:53:57Z</time>
      </trkpt>
      <trkpt lat="43.41126" lon="5.55884">
        <ele>369</ele>
        <time>2017-03-03T10:53:57Z</time>
      </trkpt>
      <trkpt lat="43.41123" lon="5.55891">
        <ele>366</ele>
        <time>2017-03-03T10:53:57Z</time>
      </trkpt>
      <trkpt lat="43.41121" lon="5.55895">
        <ele>366</ele>
        <time>2017-03-03T10:53:57Z</time>
      </trkpt>
      <trkpt lat="43.41121" lon="5.55895">
        <ele>366</ele>
        <time>2017-03-03T10:54:17Z</time>
      </trkpt>
      <trkpt lat="43.4112" lon="5.55896">
        <ele>366</ele>
        <time>2017-03-03T10:54:17Z</time>
      </trkpt>
      <trkpt lat="43.41118" lon="5.55901">
        <ele>366</ele>
        <time>2017-03-03T10:54:17Z</time>
      </trkpt>
      <trkpt lat="43.41117" lon="5.55905">
        <ele>366</ele>
        <time>2017-03-03T10:54:17Z</time>
      </trkpt>
      <trkpt lat="43.41113" lon="5.55912">
        <ele>366</ele>
        <time>2017-03-03T10:54:17Z</time>
      </trkpt>
      <trkpt lat="43.41111" lon="5.55913">
        <ele>366</ele>
        <time>2017-03-03T10:54:33Z</time>
      </trkpt>
      <trkpt lat="43.41111" lon="5.55917">
        <ele>366</ele>
        <time>2017-03-03T10:54:33Z</time>
      </trkpt>
      <trkpt lat="43.41109" lon="5.55923">
        <ele>366</ele>
        <time>2017-03-03T10:54:33Z</time>
      </trkpt>
      <trkpt lat="43.41108" lon="5.55926">
        <ele>366</ele>
        <time>2017-03-03T10:54:33Z</time>
      </trkpt>
      <trkpt lat="43.41106" lon="5.55931">
        <ele>366</ele>
        <time>2017-03-03T10:54:49Z</time>
      </trkpt>
      <trkpt lat="43.41103" lon="5.55936">
        <ele>366</ele>
        <time>2017-03-03T10:54:49Z</time>
      </trkpt>
      <trkpt lat="43.41105" lon="5.55939">
        <ele>366</ele>
        <time>2017-03-03T10:54:49Z</time>
      </trkpt>
      <trkpt lat="43.41101" lon="5.55944">
        <ele>366</ele>
        <time>2017-03-03T10:54:49Z</time>
      </trkpt>
      <trkpt lat="43.41097" lon="5.55948">
        <ele>366</ele>
        <time>2017-03-03T10:55:21Z</time>
      </trkpt>
      <trkpt lat="43.41097" lon="5.55948">
        <ele>366</ele>
        <time>2017-03-03T10:55:21Z</time>
      </trkpt>
      <trkpt lat="43.41094" lon="5.55953">
        <ele>366</ele>
        <time>2017-03-03T10:55:21Z</time>
      </trkpt>
      <trkpt lat="43.41093" lon="5.55956">
        <ele>366</ele>
        <time>2017-03-03T10:55:21Z</time>
      </trkpt>
      <trkpt lat="43.41091" lon="5.55958">
        <ele>366</ele>
        <time>2017-03-03T10:55:21Z</time>
      </trkpt>
      <trkpt lat="43.41088" lon="5.55964">
        <ele>368</ele>
        <time>2017-03-03T10:55:37Z</time>
      </trkpt>
      <trkpt lat="43.41086" lon="5.55966">
        <ele>368</ele>
        <time>2017-03-03T10:55:37Z</time>
      </trkpt>
      <trkpt lat="43.41083" lon="5.5597">
        <ele>368</ele>
        <time>2017-03-03T10:55:37Z</time>
      </trkpt>
      <trkpt lat="43.41079" lon="5.55975">
        <ele>368</ele>
        <time>2017-03-03T10:55:37Z</time>
      </trkpt>
      <trkpt lat="43.41077" lon="5.55982">
        <ele>368</ele>
        <time>2017-03-03T10:56:01Z</time>
      </trkpt>
      <trkpt lat="43.41074" lon="5.55984">
        <ele>368</ele>
        <time>2017-03-03T10:56:01Z</time>
      </trkpt>
      <trkpt lat="43.41073" lon="5.55987">
        <ele>368</ele>
        <time>2017-03-03T10:56:01Z</time>
      </trkpt>
      <trkpt lat="43.41074" lon="5.55991">
        <ele>368</ele>
        <time>2017-03-03T10:56:01Z</time>
      </trkpt>
      <trkpt lat="43.41072" lon="5.55993">
        <ele>368</ele>
        <time>2017-03-03T10:56:01Z</time>
      </trkpt>
      <trkpt lat="43.41074" lon="5.56004">
        <ele>368</ele>
        <time>2017-03-03T10:56:17Z</time>
      </trkpt>
      <trkpt lat="43.41075" lon="5.56012">
        <ele>368</ele>
        <time>2017-03-03T10:56:17Z</time>
      </trkpt>
      <trkpt lat="43.41071" lon="5.5602">
        <ele>368</ele>
        <time>2017-03-03T10:56:17Z</time>
      </trkpt>
      <trkpt lat="43.41068" lon="5.56026">
        <ele>368</ele>
        <time>2017-03-03T10:56:17Z</time>
      </trkpt>
      <trkpt lat="43.41063" lon="5.56033">
        <ele>368</ele>
        <time>2017-03-03T10:56:41Z</time>
      </trkpt>
      <trkpt lat="43.41063" lon="5.56033">
        <ele>368</ele>
        <time>2017-03-03T10:56:41Z</time>
      </trkpt>
      <trkpt lat="43.41062" lon="5.56036">
        <ele>368</ele>
        <time>2017-03-03T10:56:41Z</time>
      </trkpt>
      <trkpt lat="43.41063" lon="5.56041">
        <ele>368</ele>
        <time>2017-03-03T10:56:41Z</time>
      </trkpt>
      <trkpt lat="43.41063" lon="5.56044">
        <ele>373</ele>
        <time>2017-03-03T10:56:41Z</time>
      </trkpt>
      <trkpt lat="43.41066" lon="5.56049">
        <ele>373</ele>
        <time>2017-03-03T10:56:57Z</time>
      </trkpt>
      <trkpt lat="43.41069" lon="5.56053">
        <ele>373</ele>
        <time>2017-03-03T10:56:57Z</time>
      </trkpt>
      <trkpt lat="43.41069" lon="5.56056">
        <ele>373</ele>
        <time>2017-03-03T10:56:57Z</time>
      </trkpt>
      <trkpt lat="43.4107" lon="5.56062">
        <ele>373</ele>
        <time>2017-03-03T10:56:57Z</time>
      </trkpt>
      <trkpt lat="43.41072" lon="5.56066">
        <ele>373</ele>
        <time>2017-03-03T10:57:13Z</time>
      </trkpt>
      <trkpt lat="43.41073" lon="5.56068">
        <ele>373</ele>
        <time>2017-03-03T10:57:13Z</time>
      </trkpt>
      <trkpt lat="43.41076" lon="5.56072">
        <ele>373</ele>
        <time>2017-03-03T10:57:13Z</time>
      </trkpt>
      <trkpt lat="43.41079" lon="5.56075">
        <ele>373</ele>
        <time>2017-03-03T10:57:13Z</time>
      </trkpt>
      <trkpt lat="43.41082" lon="5.56079">
        <ele>373</ele>
        <time>2017-03-03T10:57:29Z</time>
      </trkpt>
      <trkpt lat="43.41086" lon="5.56085">
        <ele>373</ele>
        <time>2017-03-03T10:57:29Z</time>
      </trkpt>
      <trkpt lat="43.41089" lon="5.5609">
        <ele>373</ele>
        <time>2017-03-03T10:57:29Z</time>
      </trkpt>
      <trkpt lat="43.41093" lon="5.56094">
        <ele>373</ele>
        <time>2017-03-03T10:57:29Z</time>
      </trkpt>
      <trkpt lat="43.41095" lon="5.56096">
        <ele>373</ele>
        <time>2017-03-03T10:57:45Z</time>
      </trkpt>
      <trkpt lat="43.41098" lon="5.56099">
        <ele>373</ele>
        <time>2017-03-03T10:57:45Z</time>
      </trkpt>
      <trkpt lat="43.411" lon="5.561">
        <ele>373</ele>
        <time>2017-03-03T10:57:45Z</time>
      </trkpt>
      <trkpt lat="43.41104" lon="5.56101">
        <ele>373</ele>
        <time>2017-03-03T10:57:45Z</time>
      </trkpt>
      <trkpt lat="43.41107" lon="5.56102">
        <ele>373</ele>
        <time>2017-03-03T10:58:01Z</time>
      </trkpt>
      <trkpt lat="43.41108" lon="5.56107">
        <ele>373</ele>
        <time>2017-03-03T10:58:01Z</time>
      </trkpt>
      <trkpt lat="43.41112" lon="5.56108">
        <ele>373</ele>
        <time>2017-03-03T10:58:01Z</time>
      </trkpt>
      <trkpt lat="43.41115" lon="5.5611">
        <ele>373</ele>
        <time>2017-03-03T10:58:01Z</time>
      </trkpt>
      <trkpt lat="43.41117" lon="5.56113">
        <ele>373</ele>
        <time>2017-03-03T10:58:17Z</time>
      </trkpt>
      <trkpt lat="43.41123" lon="5.56114">
        <ele>373</ele>
        <time>2017-03-03T10:58:17Z</time>
      </trkpt>
      <trkpt lat="43.41128" lon="5.56116">
        <ele>374</ele>
        <time>2017-03-03T10:58:17Z</time>
      </trkpt>
      <trkpt lat="43.41128" lon="5.56121">
        <ele>374</ele>
        <time>2017-03-03T10:58:17Z</time>
      </trkpt>
      <trkpt lat="43.41129" lon="5.56125">
        <ele>375</ele>
        <time>2017-03-03T10:58:37Z</time>
      </trkpt>
      <trkpt lat="43.4113" lon="5.56129">
        <ele>375</ele>
        <time>2017-03-03T10:58:37Z</time>
      </trkpt>
      <trkpt lat="43.41132" lon="5.56132">
        <ele>375</ele>
        <time>2017-03-03T10:58:37Z</time>
      </trkpt>
      <trkpt lat="43.41134" lon="5.56135">
        <ele>375</ele>
        <time>2017-03-03T10:58:37Z</time>
      </trkpt>
      <trkpt lat="43.41137" lon="5.56142">
        <ele>375</ele>
        <time>2017-03-03T10:58:37Z</time>
      </trkpt>
      <trkpt lat="43.41138" lon="5.56147">
        <ele>375</ele>
        <time>2017-03-03T10:58:53Z</time>
      </trkpt>
      <trkpt lat="43.41142" lon="5.56152">
        <ele>375</ele>
        <time>2017-03-03T10:58:53Z</time>
      </trkpt>
      <trkpt lat="43.41145" lon="5.5616">
        <ele>375</ele>
        <time>2017-03-03T10:58:53Z</time>
      </trkpt>
      <trkpt lat="43.41146" lon="5.56165">
        <ele>375</ele>
        <time>2017-03-03T10:58:53Z</time>
      </trkpt>
      <trkpt lat="43.41148" lon="5.56172">
        <ele>375</ele>
        <time>2017-03-03T10:59:09Z</time>
      </trkpt>
      <trkpt lat="43.41149" lon="5.56177">
        <ele>375</ele>
        <time>2017-03-03T10:59:09Z</time>
      </trkpt>
      <trkpt lat="43.4115" lon="5.5618">
        <ele>375</ele>
        <time>2017-03-03T10:59:09Z</time>
      </trkpt>
      <trkpt lat="43.41151" lon="5.56184">
        <ele>375</ele>
        <time>2017-03-03T10:59:09Z</time>
      </trkpt>
      <trkpt lat="43.41152" lon="5.56189">
        <ele>375</ele>
        <time>2017-03-03T10:59:25Z</time>
      </trkpt>
      <trkpt lat="43.41153" lon="5.56196">
        <ele>375</ele>
        <time>2017-03-03T10:59:25Z</time>
      </trkpt>
      <trkpt lat="43.41154" lon="5.562">
        <ele>375</ele>
        <time>2017-03-03T10:59:25Z</time>
      </trkpt>
      <trkpt lat="43.41155" lon="5.56202">
        <ele>375</ele>
        <time>2017-03-03T10:59:25Z</time>
      </trkpt>
      <trkpt lat="43.41156" lon="5.56204">
        <ele>375</ele>
        <time>2017-03-03T10:59:41Z</time>
      </trkpt>
      <trkpt lat="43.41156" lon="5.56207">
        <ele>375</ele>
        <time>2017-03-03T10:59:41Z</time>
      </trkpt>
      <trkpt lat="43.41159" lon="5.56213">
        <ele>378</ele>
        <time>2017-03-03T10:59:41Z</time>
      </trkpt>
      <trkpt lat="43.41161" lon="5.56219">
        <ele>378</ele>
        <time>2017-03-03T10:59:41Z</time>
      </trkpt>
      <trkpt lat="43.41165" lon="5.56223">
        <ele>378</ele>
        <time>2017-03-03T10:59:57Z</time>
      </trkpt>
      <trkpt lat="43.41167" lon="5.56228">
        <ele>378</ele>
        <time>2017-03-03T10:59:57Z</time>
      </trkpt>
      <trkpt lat="43.41172" lon="5.56234">
        <ele>378</ele>
        <time>2017-03-03T10:59:57Z</time>
      </trkpt>
      <trkpt lat="43.41175" lon="5.56236">
        <ele>378</ele>
        <time>2017-03-03T10:59:57Z</time>
      </trkpt>
      <trkpt lat="43.4118" lon="5.56239">
        <ele>378</ele>
        <time>2017-03-03T11:00:13Z</time>
      </trkpt>
      <trkpt lat="43.41184" lon="5.56244">
        <ele>378</ele>
        <time>2017-03-03T11:00:13Z</time>
      </trkpt>
      <trkpt lat="43.41185" lon="5.56245">
        <ele>378</ele>
        <time>2017-03-03T11:00:13Z</time>
      </trkpt>
      <trkpt lat="43.41189" lon="5.56252">
        <ele>378</ele>
        <time>2017-03-03T11:00:13Z</time>
      </trkpt>
      <trkpt lat="43.41193" lon="5.56254">
        <ele>378</ele>
        <time>2017-03-03T11:00:29Z</time>
      </trkpt>
      <trkpt lat="43.41197" lon="5.56256">
        <ele>378</ele>
        <time>2017-03-03T11:00:29Z</time>
      </trkpt>
      <trkpt lat="43.412" lon="5.56259">
        <ele>378</ele>
        <time>2017-03-03T11:00:29Z</time>
      </trkpt>
      <trkpt lat="43.41205" lon="5.5626">
        <ele>378</ele>
        <time>2017-03-03T11:00:29Z</time>
      </trkpt>
      <trkpt lat="43.41209" lon="5.56261">
        <ele>380</ele>
        <time>2017-03-03T11:00:45Z</time>
      </trkpt>
      <trkpt lat="43.41213" lon="5.56263">
        <ele>380</ele>
        <time>2017-03-03T11:00:45Z</time>
      </trkpt>
      <trkpt lat="43.41214" lon="5.56266">
        <ele>380</ele>
        <time>2017-03-03T11:00:45Z</time>
      </trkpt>
      <trkpt lat="43.41217" lon="5.56267">
        <ele>380</ele>
        <time>2017-03-03T11:00:45Z</time>
      </trkpt>
      <trkpt lat="43.41222" lon="5.56267">
        <ele>380</ele>
        <time>2017-03-03T11:01:09Z</time>
      </trkpt>
      <trkpt lat="43.41222" lon="5.56264">
        <ele>380</ele>
        <time>2017-03-03T11:01:09Z</time>
      </trkpt>
      <trkpt lat="43.41223" lon="5.56268">
        <ele>380</ele>
        <time>2017-03-03T11:01:09Z</time>
      </trkpt>
      <trkpt lat="43.41226" lon="5.56272">
        <ele>380</ele>
        <time>2017-03-03T11:01:09Z</time>
      </trkpt>
      <trkpt lat="43.41228" lon="5.56275">
        <ele>380</ele>
        <time>2017-03-03T11:01:09Z</time>
      </trkpt>
      <trkpt lat="43.41231" lon="5.56277">
        <ele>380</ele>
        <time>2017-03-03T11:01:25Z</time>
      </trkpt>
      <trkpt lat="43.41233" lon="5.56278">
        <ele>380</ele>
        <time>2017-03-03T11:01:25Z</time>
      </trkpt>
      <trkpt lat="43.41236" lon="5.5628">
        <ele>380</ele>
        <time>2017-03-03T11:01:25Z</time>
      </trkpt>
      <trkpt lat="43.4124" lon="5.56284">
        <ele>380</ele>
        <time>2017-03-03T11:01:25Z</time>
      </trkpt>
      <trkpt lat="43.41243" lon="5.56285">
        <ele>380</ele>
        <time>2017-03-03T11:01:41Z</time>
      </trkpt>
      <trkpt lat="43.41245" lon="5.56287">
        <ele>380</ele>
        <time>2017-03-03T11:01:41Z</time>
      </trkpt>
      <trkpt lat="43.41252" lon="5.56288">
        <ele>380</ele>
        <time>2017-03-03T11:01:41Z</time>
      </trkpt>
      <trkpt lat="43.41257" lon="5.56293">
        <ele>385</ele>
        <time>2017-03-03T11:01:41Z</time>
      </trkpt>
      <trkpt lat="43.41258" lon="5.56295">
        <ele>385</ele>
        <time>2017-03-03T11:02:01Z</time>
      </trkpt>
      <trkpt lat="43.41258" lon="5.56295">
        <ele>385</ele>
        <time>2017-03-03T11:02:01Z</time>
      </trkpt>
      <trkpt lat="43.41259" lon="5.56295">
        <ele>385</ele>
        <time>2017-03-03T11:02:01Z</time>
      </trkpt>
      <trkpt lat="43.41262" lon="5.563">
        <ele>385</ele>
        <time>2017-03-03T11:02:01Z</time>
      </trkpt>
      <trkpt lat="43.41265" lon="5.56302">
        <ele>385</ele>
        <time>2017-03-03T11:02:01Z</time>
      </trkpt>
      <trkpt lat="43.41266" lon="5.56303">
        <ele>385</ele>
        <time>2017-03-03T11:02:17Z</time>
      </trkpt>
      <trkpt lat="43.4127" lon="5.56307">
        <ele>385</ele>
        <time>2017-03-03T11:02:17Z</time>
      </trkpt>
      <trkpt lat="43.41273" lon="5.5631">
        <ele>385</ele>
        <time>2017-03-03T11:02:17Z</time>
      </trkpt>
      <trkpt lat="43.41275" lon="5.56313">
        <ele>385</ele>
        <time>2017-03-03T11:02:17Z</time>
      </trkpt>
      <trkpt lat="43.41276" lon="5.56315">
        <ele>385</ele>
        <time>2017-03-03T11:02:33Z</time>
      </trkpt>
      <trkpt lat="43.41279" lon="5.56314">
        <ele>385</ele>
        <time>2017-03-03T11:02:33Z</time>
      </trkpt>
      <trkpt lat="43.41282" lon="5.56317">
        <ele>385</ele>
        <time>2017-03-03T11:02:33Z</time>
      </trkpt>
      <trkpt lat="43.41286" lon="5.56318">
        <ele>385</ele>
        <time>2017-03-03T11:02:33Z</time>
      </trkpt>
      <trkpt lat="43.41287" lon="5.56322">
        <ele>385</ele>
        <time>2017-03-03T11:02:53Z</time>
      </trkpt>
      <trkpt lat="43.41289" lon="5.56323">
        <ele>385</ele>
        <time>2017-03-03T11:02:53Z</time>
      </trkpt>
      <trkpt lat="43.41291" lon="5.56324">
        <ele>385</ele>
        <time>2017-03-03T11:02:53Z</time>
      </trkpt>
      <trkpt lat="43.41292" lon="5.56325">
        <ele>391</ele>
        <time>2017-03-03T11:02:53Z</time>
      </trkpt>
      <trkpt lat="43.41296" lon="5.56326">
        <ele>391</ele>
        <time>2017-03-03T11:02:53Z</time>
      </trkpt>
      <trkpt lat="43.41299" lon="5.56328">
        <ele>391</ele>
        <time>2017-03-03T11:03:13Z</time>
      </trkpt>
      <trkpt lat="43.41301" lon="5.56329">
        <ele>391</ele>
        <time>2017-03-03T11:03:13Z</time>
      </trkpt>
      <trkpt lat="43.41304" lon="5.56331">
        <ele>391</ele>
        <time>2017-03-03T11:03:13Z</time>
      </trkpt>
      <trkpt lat="43.41306" lon="5.56331">
        <ele>391</ele>
        <time>2017-03-03T11:03:13Z</time>
      </trkpt>
      <trkpt lat="43.41309" lon="5.56332">
        <ele>391</ele>
        <time>2017-03-03T11:03:13Z</time>
      </trkpt>
      <trkpt lat="43.41316" lon="5.56337">
        <ele>391</ele>
        <time>2017-03-03T11:03:41Z</time>
      </trkpt>
      <trkpt lat="43.41319" lon="5.56336">
        <ele>391</ele>
        <time>2017-03-03T11:03:41Z</time>
      </trkpt>
      <trkpt lat="43.41319" lon="5.56336">
        <ele>391</ele>
        <time>2017-03-03T11:03:41Z</time>
      </trkpt>
      <trkpt lat="43.4132" lon="5.56336">
        <ele>391</ele>
        <time>2017-03-03T11:03:41Z</time>
      </trkpt>
      <trkpt lat="43.4132" lon="5.56336">
        <ele>391</ele>
        <time>2017-03-03T11:03:41Z</time>
      </trkpt>
      <trkpt lat="43.41323" lon="5.56336">
        <ele>391</ele>
        <time>2017-03-03T11:04:09Z</time>
      </trkpt>
      <trkpt lat="43.41325" lon="5.56333">
        <ele>391</ele>
        <time>2017-03-03T11:04:09Z</time>
      </trkpt>
      <trkpt lat="43.41328" lon="5.56332">
        <ele>391</ele>
        <time>2017-03-03T11:04:09Z</time>
      </trkpt>
      <trkpt lat="43.41329" lon="5.56331">
        <ele>391</ele>
        <time>2017-03-03T11:04:09Z</time>
      </trkpt>
      <trkpt lat="43.41332" lon="5.56328">
        <ele>391</ele>
        <time>2017-03-03T11:04:09Z</time>
      </trkpt>
      <trkpt lat="43.41333" lon="5.56326">
        <ele>391</ele>
        <time>2017-03-03T11:04:25Z</time>
      </trkpt>
      <trkpt lat="43.41335" lon="5.56321">
        <ele>391</ele>
        <time>2017-03-03T11:04:25Z</time>
      </trkpt>
      <trkpt lat="43.41337" lon="5.56317">
        <ele>391</ele>
        <time>2017-03-03T11:04:25Z</time>
      </trkpt>
      <trkpt lat="43.41338" lon="5.56313">
        <ele>391</ele>
        <time>2017-03-03T11:04:25Z</time>
      </trkpt>
      <trkpt lat="43.41341" lon="5.56303">
        <ele>391</ele>
        <time>2017-03-03T11:05:29Z</time>
      </trkpt>
      <trkpt lat="43.41341" lon="5.56303">
        <ele>391</ele>
        <time>2017-03-03T11:05:29Z</time>
      </trkpt>
      <trkpt lat="43.41344" lon="5.563">
        <ele>391</ele>
        <time>2017-03-03T11:05:29Z</time>
      </trkpt>
      <trkpt lat="43.41345" lon="5.56298">
        <ele>391</ele>
        <time>2017-03-03T11:05:29Z</time>
      </trkpt>
      <trkpt lat="43.41347" lon="5.56295">
        <ele>391</ele>
        <time>2017-03-03T11:05:29Z</time>
      </trkpt>
      <trkpt lat="43.41351" lon="5.56287">
        <ele>387</ele>
        <time>2017-03-03T11:05:53Z</time>
      </trkpt>
      <trkpt lat="43.41352" lon="5.56284">
        <ele>387</ele>
        <time>2017-03-03T11:05:53Z</time>
      </trkpt>
      <trkpt lat="43.41353" lon="5.56282">
        <ele>387</ele>
        <time>2017-03-03T11:05:53Z</time>
      </trkpt>
      <trkpt lat="43.41354" lon="5.56279">
        <ele>387</ele>
        <time>2017-03-03T11:05:53Z</time>
      </trkpt>
      <trkpt lat="43.41355" lon="5.56277">
        <ele>387</ele>
        <time>2017-03-03T11:05:53Z</time>
      </trkpt>
      <trkpt lat="43.41358" lon="5.56274">
        <ele>387</ele>
        <time>2017-03-03T11:06:09Z</time>
      </trkpt>
      <trkpt lat="43.41359" lon="5.56271">
        <ele>387</ele>
        <time>2017-03-03T11:06:09Z</time>
      </trkpt>
      <trkpt lat="43.41361" lon="5.56268">
        <ele>387</ele>
        <time>2017-03-03T11:06:09Z</time>
      </trkpt>
      <trkpt lat="43.41363" lon="5.56261">
        <ele>387</ele>
        <time>2017-03-03T11:06:09Z</time>
      </trkpt>
      <trkpt lat="43.41365" lon="5.56256">
        <ele>387</ele>
        <time>2017-03-03T11:06:29Z</time>
      </trkpt>
      <trkpt lat="43.41366" lon="5.56253">
        <ele>387</ele>
        <time>2017-03-03T11:06:29Z</time>
      </trkpt>
      <trkpt lat="43.41368" lon="5.5625">
        <ele>387</ele>
        <time>2017-03-03T11:06:29Z</time>
      </trkpt>
      <trkpt lat="43.4137" lon="5.56249">
        <ele>387</ele>
        <time>2017-03-03T11:06:29Z</time>
      </trkpt>
      <trkpt lat="43.41371" lon="5.56246">
        <ele>387</ele>
        <time>2017-03-03T11:06:29Z</time>
      </trkpt>
      <trkpt lat="43.41375" lon="5.56238">
        <ele>387</ele>
        <time>2017-03-03T11:07:41Z</time>
      </trkpt>
      <trkpt lat="43.41375" lon="5.56236">
        <ele>387</ele>
        <time>2017-03-03T11:07:41Z</time>
      </trkpt>
      <trkpt lat="43.41375" lon="5.56235">
        <ele>387</ele>
        <time>2017-03-03T11:07:41Z</time>
      </trkpt>
      <trkpt lat="43.41376" lon="5.56234">
        <ele>384</ele>
        <time>2017-03-03T11:07:41Z</time>
      </trkpt>
      <trkpt lat="43.41376" lon="5.5623">
        <ele>384</ele>
        <time>2017-03-03T11:07:41Z</time>
      </trkpt>
      <trkpt lat="43.41377" lon="5.56227">
        <ele>384</ele>
        <time>2017-03-03T11:08:09Z</time>
      </trkpt>
      <trkpt lat="43.41377" lon="5.56225">
        <ele>384</ele>
        <time>2017-03-03T11:08:09Z</time>
      </trkpt>
      <trkpt lat="43.41378" lon="5.56222">
        <ele>384</ele>
        <time>2017-03-03T11:08:09Z</time>
      </trkpt>
      <trkpt lat="43.41378" lon="5.56221">
        <ele>384</ele>
        <time>2017-03-03T11:08:09Z</time>
      </trkpt>
      <trkpt lat="43.4138" lon="5.56217">
        <ele>384</ele>
        <time>2017-03-03T11:08:09Z</time>
      </trkpt>
      <trkpt lat="43.4138" lon="5.56215">
        <ele>384</ele>
        <time>2017-03-03T11:08:29Z</time>
      </trkpt>
      <trkpt lat="43.41381" lon="5.56215">
        <ele>384</ele>
        <time>2017-03-03T11:08:29Z</time>
      </trkpt>
      <trkpt lat="43.41383" lon="5.5621">
        <ele>384</ele>
        <time>2017-03-03T11:08:29Z</time>
      </trkpt>
      <trkpt lat="43.41386" lon="5.56207">
        <ele>383</ele>
        <time>2017-03-03T11:08:29Z</time>
      </trkpt>
      <trkpt lat="43.41386" lon="5.56206">
        <ele>383</ele>
        <time>2017-03-03T11:08:29Z</time>
      </trkpt>
      <trkpt lat="43.41387" lon="5.56205">
        <ele>383</ele>
        <time>2017-03-03T11:08:45Z</time>
      </trkpt>
      <trkpt lat="43.41389" lon="5.56199">
        <ele>383</ele>
        <time>2017-03-03T11:08:45Z</time>
      </trkpt>
      <trkpt lat="43.41391" lon="5.56197">
        <ele>383</ele>
        <time>2017-03-03T11:08:45Z</time>
      </trkpt>
      <trkpt lat="43.41392" lon="5.56195">
        <ele>383</ele>
        <time>2017-03-03T11:08:45Z</time>
      </trkpt>
      <trkpt lat="43.41396" lon="5.56193">
        <ele>383</ele>
        <time>2017-03-03T11:09:01Z</time>
      </trkpt>
      <trkpt lat="43.41399" lon="5.5619">
        <ele>383</ele>
        <time>2017-03-03T11:09:01Z</time>
      </trkpt>
      <trkpt lat="43.41401" lon="5.56183">
        <ele>383</ele>
        <time>2017-03-03T11:09:01Z</time>
      </trkpt>
      <trkpt lat="43.41403" lon="5.56177">
        <ele>383</ele>
        <time>2017-03-03T11:09:01Z</time>
      </trkpt>
      <trkpt lat="43.41405" lon="5.5617">
        <ele>383</ele>
        <time>2017-03-03T11:09:37Z</time>
      </trkpt>
      <trkpt lat="43.41406" lon="5.56171">
        <ele>383</ele>
        <time>2017-03-03T11:09:37Z</time>
      </trkpt>
      <trkpt lat="43.41406" lon="5.56176">
        <ele>383</ele>
        <time>2017-03-03T11:09:37Z</time>
      </trkpt>
      <trkpt lat="43.41407" lon="5.56182">
        <ele>383</ele>
        <time>2017-03-03T11:09:37Z</time>
      </trkpt>
      <trkpt lat="43.4141" lon="5.56186">
        <ele>383</ele>
        <time>2017-03-03T11:09:37Z</time>
      </trkpt>
      <trkpt lat="43.41416" lon="5.56192">
        <ele>383</ele>
        <time>2017-03-03T11:10:09Z</time>
      </trkpt>
      <trkpt lat="43.41417" lon="5.56192">
        <ele>383</ele>
        <time>2017-03-03T11:10:09Z</time>
      </trkpt>
      <trkpt lat="43.4142" lon="5.56197">
        <ele>383</ele>
        <time>2017-03-03T11:10:09Z</time>
      </trkpt>
      <trkpt lat="43.41424" lon="5.56202">
        <ele>383</ele>
        <time>2017-03-03T11:10:09Z</time>
      </trkpt>
      <trkpt lat="43.41429" lon="5.56207">
        <ele>383</ele>
        <time>2017-03-03T11:10:09Z</time>
      </trkpt>
      <trkpt lat="43.41431" lon="5.5621">
        <ele>384</ele>
        <time>2017-03-03T11:10:29Z</time>
      </trkpt>
      <trkpt lat="43.41434" lon="5.56211">
        <ele>384</ele>
        <time>2017-03-03T11:10:29Z</time>
      </trkpt>
      <trkpt lat="43.41434" lon="5.56212">
        <ele>384</ele>
        <time>2017-03-03T11:10:29Z</time>
      </trkpt>
      <trkpt lat="43.41436" lon="5.56215">
        <ele>384</ele>
        <time>2017-03-03T11:10:29Z</time>
      </trkpt>
      <trkpt lat="43.41439" lon="5.56218">
        <ele>384</ele>
        <time>2017-03-03T11:10:29Z</time>
      </trkpt>
      <trkpt lat="43.41441" lon="5.56221">
        <ele>384</ele>
        <time>2017-03-03T11:10:45Z</time>
      </trkpt>
      <trkpt lat="43.41445" lon="5.56224">
        <ele>384</ele>
        <time>2017-03-03T11:10:45Z</time>
      </trkpt>
      <trkpt lat="43.4145" lon="5.56226">
        <ele>384</ele>
        <time>2017-03-03T11:10:45Z</time>
      </trkpt>
      <trkpt lat="43.41452" lon="5.56226">
        <ele>384</ele>
        <time>2017-03-03T11:10:45Z</time>
      </trkpt>
      <trkpt lat="43.41453" lon="5.56226">
        <ele>384</ele>
        <time>2017-03-03T11:11:37Z</time>
      </trkpt>
      <trkpt lat="43.41454" lon="5.56221">
        <ele>384</ele>
        <time>2017-03-03T11:11:37Z</time>
      </trkpt>
      <trkpt lat="43.41453" lon="5.56217">
        <ele>384</ele>
        <time>2017-03-03T11:11:37Z</time>
      </trkpt>
      <trkpt lat="43.41451" lon="5.56194">
        <ele>383</ele>
        <time>2017-03-03T11:11:37Z</time>
      </trkpt>
      <trkpt lat="43.41453" lon="5.5619">
        <ele>383</ele>
        <time>2017-03-03T11:11:37Z</time>
      </trkpt>
      <trkpt lat="43.4145" lon="5.56202">
        <ele>383</ele>
        <time>2017-03-03T11:11:53Z</time>
      </trkpt>
      <trkpt lat="43.4145" lon="5.56195">
        <ele>383</ele>
        <time>2017-03-03T11:11:53Z</time>
      </trkpt>
      <trkpt lat="43.41448" lon="5.5619">
        <ele>383</ele>
        <time>2017-03-03T11:11:53Z</time>
      </trkpt>
      <trkpt lat="43.41443" lon="5.56189">
        <ele>383</ele>
        <time>2017-03-03T11:11:53Z</time>
      </trkpt>
      <trkpt lat="43.41439" lon="5.56187">
        <ele>383</ele>
        <time>2017-03-03T11:12:09Z</time>
      </trkpt>
      <trkpt lat="43.41435" lon="5.56187">
        <ele>383</ele>
        <time>2017-03-03T11:12:09Z</time>
      </trkpt>
      <trkpt lat="43.41432" lon="5.56188">
        <ele>383</ele>
        <time>2017-03-03T11:12:09Z</time>
      </trkpt>
      <trkpt lat="43.41429" lon="5.56191">
        <ele>383</ele>
        <time>2017-03-03T11:12:09Z</time>
      </trkpt>
      <trkpt lat="43.41426" lon="5.56199">
        <ele>383</ele>
        <time>2017-03-03T11:12:25Z</time>
      </trkpt>
      <trkpt lat="43.41425" lon="5.56203">
        <ele>383</ele>
        <time>2017-03-03T11:12:25Z</time>
      </trkpt>
      <trkpt lat="43.41424" lon="5.56208">
        <ele>383</ele>
        <time>2017-03-03T11:12:25Z</time>
      </trkpt>
      <trkpt lat="43.41422" lon="5.56213">
        <ele>384</ele>
        <time>2017-03-03T11:12:25Z</time>
      </trkpt>
      <trkpt lat="43.41422" lon="5.56215">
        <ele>384</ele>
        <time>2017-03-03T11:12:41Z</time>
      </trkpt>
      <trkpt lat="43.41422" lon="5.56222">
        <ele>384</ele>
        <time>2017-03-03T11:12:41Z</time>
      </trkpt>
      <trkpt lat="43.41424" lon="5.56226">
        <ele>384</ele>
        <time>2017-03-03T11:12:41Z</time>
      </trkpt>
      <trkpt lat="43.41426" lon="5.56233">
        <ele>384</ele>
        <time>2017-03-03T11:12:41Z</time>
      </trkpt>
      <trkpt lat="43.41432" lon="5.56242">
        <ele>384</ele>
        <time>2017-03-03T11:13:09Z</time>
      </trkpt>
      <trkpt lat="43.41433" lon="5.56244">
        <ele>384</ele>
        <time>2017-03-03T11:13:09Z</time>
      </trkpt>
      <trkpt lat="43.41434" lon="5.56245">
        <ele>384</ele>
        <time>2017-03-03T11:13:09Z</time>
      </trkpt>
      <trkpt lat="43.41434" lon="5.56245">
        <ele>384</ele>
        <time>2017-03-03T11:13:09Z</time>
      </trkpt>
      <trkpt lat="43.41434" lon="5.56246">
        <ele>384</ele>
        <time>2017-03-03T11:13:09Z</time>
      </trkpt>
      <trkpt lat="43.41434" lon="5.56252">
        <ele>384</ele>
        <time>2017-03-03T11:14:29Z</time>
      </trkpt>
      <trkpt lat="43.41435" lon="5.56255">
        <ele>384</ele>
        <time>2017-03-03T11:14:29Z</time>
      </trkpt>
      <trkpt lat="43.41436" lon="5.56256">
        <ele>384</ele>
        <time>2017-03-03T11:14:29Z</time>
      </trkpt>
      <trkpt lat="43.41437" lon="5.56258">
        <ele>384</ele>
        <time>2017-03-03T11:14:29Z</time>
      </trkpt>
      <trkpt lat="43.41437" lon="5.56262">
        <ele>384</ele>
        <time>2017-03-03T11:14:29Z</time>
      </trkpt>
      <trkpt lat="43.41438" lon="5.56266">
        <ele>384</ele>
        <time>2017-03-03T11:14:45Z</time>
      </trkpt>
      <trkpt lat="43.41439" lon="5.56271">
        <ele>384</ele>
        <time>2017-03-03T11:14:45Z</time>
      </trkpt>
      <trkpt lat="43.41441" lon="5.56276">
        <ele>384</ele>
        <time>2017-03-03T11:14:45Z</time>
      </trkpt>
      <trkpt lat="43.41444" lon="5.56282">
        <ele>384</ele>
        <time>2017-03-03T11:14:45Z</time>
      </trkpt>
      <trkpt lat="43.41444" lon="5.56286">
        <ele>384</ele>
        <time>2017-03-03T11:15:09Z</time>
      </trkpt>
      <trkpt lat="43.41443" lon="5.56286">
        <ele>384</ele>
        <time>2017-03-03T11:15:09Z</time>
      </trkpt>
      <trkpt lat="43.41442" lon="5.56289">
        <ele>384</ele>
        <time>2017-03-03T11:15:09Z</time>
      </trkpt>
      <trkpt lat="43.41438" lon="5.56288">
        <ele>384</ele>
        <time>2017-03-03T11:15:09Z</time>
      </trkpt>
      <trkpt lat="43.41434" lon="5.5629">
        <ele>384</ele>
        <time>2017-03-03T11:15:09Z</time>
      </trkpt>
      <trkpt lat="43.41428" lon="5.56292">
        <ele>384</ele>
        <time>2017-03-03T11:15:25Z</time>
      </trkpt>
      <trkpt lat="43.41425" lon="5.56292">
        <ele>384</ele>
        <time>2017-03-03T11:15:25Z</time>
      </trkpt>
      <trkpt lat="43.41418" lon="5.56295">
        <ele>382</ele>
        <time>2017-03-03T11:15:25Z</time>
      </trkpt>
      <trkpt lat="43.41413" lon="5.56294">
        <ele>382</ele>
        <time>2017-03-03T11:15:25Z</time>
      </trkpt>
      <trkpt lat="43.41411" lon="5.56299">
        <ele>382</ele>
        <time>2017-03-03T11:15:41Z</time>
      </trkpt>
      <trkpt lat="43.41408" lon="5.56303">
        <ele>382</ele>
        <time>2017-03-03T11:15:41Z</time>
      </trkpt>
      <trkpt lat="43.41403" lon="5.56307">
        <ele>382</ele>
        <time>2017-03-03T11:15:41Z</time>
      </trkpt>
      <trkpt lat="43.41399" lon="5.56311">
        <ele>382</ele>
        <time>2017-03-03T11:15:41Z</time>
      </trkpt>
      <trkpt lat="43.41398" lon="5.56315">
        <ele>382</ele>
        <time>2017-03-03T11:16:01Z</time>
      </trkpt>
      <trkpt lat="43.41397" lon="5.56318">
        <ele>382</ele>
        <time>2017-03-03T11:16:01Z</time>
      </trkpt>
      <trkpt lat="43.41394" lon="5.5632">
        <ele>382</ele>
        <time>2017-03-03T11:16:01Z</time>
      </trkpt>
      <trkpt lat="43.41393" lon="5.56323">
        <ele>382</ele>
        <time>2017-03-03T11:16:01Z</time>
      </trkpt>
      <trkpt lat="43.41392" lon="5.5633">
        <ele>382</ele>
        <time>2017-03-03T11:16:01Z</time>
      </trkpt>
      <trkpt lat="43.41387" lon="5.56332">
        <ele>382</ele>
        <time>2017-03-03T11:16:17Z</time>
      </trkpt>
      <trkpt lat="43.41384" lon="5.56336">
        <ele>382</ele>
        <time>2017-03-03T11:16:17Z</time>
      </trkpt>
      <trkpt lat="43.41381" lon="5.56337">
        <ele>382</ele>
        <time>2017-03-03T11:16:17Z</time>
      </trkpt>
      <trkpt lat="43.41377" lon="5.56335">
        <ele>382</ele>
        <time>2017-03-03T11:16:17Z</time>
      </trkpt>
      <trkpt lat="43.41374" lon="5.56338">
        <ele>391</ele>
        <time>2017-03-03T11:16:33Z</time>
      </trkpt>
      <trkpt lat="43.41371" lon="5.5634">
        <ele>391</ele>
        <time>2017-03-03T11:16:33Z</time>
      </trkpt>
      <trkpt lat="43.41369" lon="5.56342">
        <ele>391</ele>
        <time>2017-03-03T11:16:33Z</time>
      </trkpt>
      <trkpt lat="43.41366" lon="5.56344">
        <ele>391</ele>
        <time>2017-03-03T11:16:33Z</time>
      </trkpt>
      <trkpt lat="43.41363" lon="5.56346">
        <ele>391</ele>
        <time>2017-03-03T11:16:49Z</time>
      </trkpt>
      <trkpt lat="43.4136" lon="5.56347">
        <ele>391</ele>
        <time>2017-03-03T11:16:49Z</time>
      </trkpt>
      <trkpt lat="43.41359" lon="5.5635">
        <ele>391</ele>
        <time>2017-03-03T11:16:49Z</time>
      </trkpt>
      <trkpt lat="43.41356" lon="5.56354">
        <ele>391</ele>
        <time>2017-03-03T11:16:49Z</time>
      </trkpt>
      <trkpt lat="43.41356" lon="5.56355">
        <ele>391</ele>
        <time>2017-03-03T11:17:09Z</time>
      </trkpt>
      <trkpt lat="43.41355" lon="5.56358">
        <ele>391</ele>
        <time>2017-03-03T11:17:09Z</time>
      </trkpt>
      <trkpt lat="43.41352" lon="5.56362">
        <ele>391</ele>
        <time>2017-03-03T11:17:09Z</time>
      </trkpt>
      <trkpt lat="43.41349" lon="5.56363">
        <ele>391</ele>
        <time>2017-03-03T11:17:09Z</time>
      </trkpt>
      <trkpt lat="43.41345" lon="5.56365">
        <ele>391</ele>
        <time>2017-03-03T11:17:09Z</time>
      </trkpt>
      <trkpt lat="43.41342" lon="5.56367">
        <ele>391</ele>
        <time>2017-03-03T11:17:25Z</time>
      </trkpt>
      <trkpt lat="43.41339" lon="5.56369">
        <ele>391</ele>
        <time>2017-03-03T11:17:25Z</time>
      </trkpt>
      <trkpt lat="43.41336" lon="5.56371">
        <ele>391</ele>
        <time>2017-03-03T11:17:25Z</time>
      </trkpt>
      <trkpt lat="43.41335" lon="5.56378">
        <ele>386</ele>
        <time>2017-03-03T11:17:25Z</time>
      </trkpt>
      <trkpt lat="43.41334" lon="5.56383">
        <ele>386</ele>
        <time>2017-03-03T11:17:41Z</time>
      </trkpt>
      <trkpt lat="43.41332" lon="5.56384">
        <ele>386</ele>
        <time>2017-03-03T11:17:41Z</time>
      </trkpt>
      <trkpt lat="43.41326" lon="5.56392">
        <ele>386</ele>
        <time>2017-03-03T11:17:41Z</time>
      </trkpt>
      <trkpt lat="43.41322" lon="5.56399">
        <ele>386</ele>
        <time>2017-03-03T11:17:41Z</time>
      </trkpt>
      <trkpt lat="43.41319" lon="5.56407">
        <ele>386</ele>
        <time>2017-03-03T11:17:57Z</time>
      </trkpt>
      <trkpt lat="43.41318" lon="5.56412">
        <ele>386</ele>
        <time>2017-03-03T11:17:57Z</time>
      </trkpt>
      <trkpt lat="43.41318" lon="5.56417">
        <ele>386</ele>
        <time>2017-03-03T11:17:57Z</time>
      </trkpt>
      <trkpt lat="43.4132" lon="5.5642">
        <ele>386</ele>
        <time>2017-03-03T11:17:57Z</time>
      </trkpt>
      <trkpt lat="43.41323" lon="5.56423">
        <ele>386</ele>
        <time>2017-03-03T11:18:17Z</time>
      </trkpt>
      <trkpt lat="43.41325" lon="5.56426">
        <ele>386</ele>
        <time>2017-03-03T11:18:17Z</time>
      </trkpt>
      <trkpt lat="43.41326" lon="5.56427">
        <ele>386</ele>
        <time>2017-03-03T11:18:17Z</time>
      </trkpt>
      <trkpt lat="43.41329" lon="5.5643">
        <ele>386</ele>
        <time>2017-03-03T11:18:17Z</time>
      </trkpt>
      <trkpt lat="43.4133" lon="5.56435">
        <ele>386</ele>
        <time>2017-03-03T11:18:17Z</time>
      </trkpt>
      <trkpt lat="43.41332" lon="5.56439">
        <ele>386</ele>
        <time>2017-03-03T11:18:37Z</time>
      </trkpt>
      <trkpt lat="43.41333" lon="5.56443">
        <ele>386</ele>
        <time>2017-03-03T11:18:37Z</time>
      </trkpt>
      <trkpt lat="43.41334" lon="5.56446">
        <ele>386</ele>
        <time>2017-03-03T11:18:37Z</time>
      </trkpt>
      <trkpt lat="43.41335" lon="5.56449">
        <ele>386</ele>
        <time>2017-03-03T11:18:37Z</time>
      </trkpt>
      <trkpt lat="43.41337" lon="5.56453">
        <ele>386</ele>
        <time>2017-03-03T11:18:37Z</time>
      </trkpt>
      <trkpt lat="43.41341" lon="5.56456">
        <ele>386</ele>
        <time>2017-03-03T11:18:53Z</time>
      </trkpt>
      <trkpt lat="43.41346" lon="5.56462">
        <ele>382</ele>
        <time>2017-03-03T11:18:53Z</time>
      </trkpt>
      <trkpt lat="43.41349" lon="5.56467">
        <ele>382</ele>
        <time>2017-03-03T11:18:53Z</time>
      </trkpt>
      <trkpt lat="43.41351" lon="5.56472">
        <ele>382</ele>
        <time>2017-03-03T11:18:53Z</time>
      </trkpt>
      <trkpt lat="43.41354" lon="5.56477">
        <ele>382</ele>
        <time>2017-03-03T11:19:09Z</time>
      </trkpt>
      <trkpt lat="43.41356" lon="5.56481">
        <ele>382</ele>
        <time>2017-03-03T11:19:09Z</time>
      </trkpt>
      <trkpt lat="43.41359" lon="5.56485">
        <ele>382</ele>
        <time>2017-03-03T11:19:09Z</time>
      </trkpt>
      <trkpt lat="43.41363" lon="5.56488">
        <ele>382</ele>
        <time>2017-03-03T11:19:09Z</time>
      </trkpt>
      <trkpt lat="43.41366" lon="5.56493">
        <ele>382</ele>
        <time>2017-03-03T11:19:25Z</time>
      </trkpt>
      <trkpt lat="43.4137" lon="5.56499">
        <ele>382</ele>
        <time>2017-03-03T11:19:25Z</time>
      </trkpt>
      <trkpt lat="43.41373" lon="5.56504">
        <ele>382</ele>
        <time>2017-03-03T11:19:25Z</time>
      </trkpt>
      <trkpt lat="43.41377" lon="5.56508">
        <ele>377</ele>
        <time>2017-03-03T11:19:25Z</time>
      </trkpt>
      <trkpt lat="43.41378" lon="5.56511">
        <ele>377</ele>
        <time>2017-03-03T11:19:41Z</time>
      </trkpt>
      <trkpt lat="43.4138" lon="5.56513">
        <ele>377</ele>
        <time>2017-03-03T11:19:41Z</time>
      </trkpt>
      <trkpt lat="43.41384" lon="5.56516">
        <ele>377</ele>
        <time>2017-03-03T11:19:41Z</time>
      </trkpt>
      <trkpt lat="43.41386" lon="5.5652">
        <ele>377</ele>
        <time>2017-03-03T11:19:41Z</time>
      </trkpt>
      <trkpt lat="43.4139" lon="5.56525">
        <ele>377</ele>
        <time>2017-03-03T11:19:57Z</time>
      </trkpt>
      <trkpt lat="43.41392" lon="5.56527">
        <ele>377</ele>
        <time>2017-03-03T11:19:57Z</time>
      </trkpt>
      <trkpt lat="43.41396" lon="5.56529">
        <ele>377</ele>
        <time>2017-03-03T11:19:57Z</time>
      </trkpt>
      <trkpt lat="43.41398" lon="5.56531">
        <ele>377</ele>
        <time>2017-03-03T11:19:57Z</time>
      </trkpt>
      <trkpt lat="43.41399" lon="5.56533">
        <ele>377</ele>
        <time>2017-03-03T11:20:13Z</time>
      </trkpt>
      <trkpt lat="43.41404" lon="5.56535">
        <ele>377</ele>
        <time>2017-03-03T11:20:13Z</time>
      </trkpt>
      <trkpt lat="43.41406" lon="5.56538">
        <ele>377</ele>
        <time>2017-03-03T11:20:13Z</time>
      </trkpt>
      <trkpt lat="43.4141" lon="5.56539">
        <ele>377</ele>
        <time>2017-03-03T11:20:13Z</time>
      </trkpt>
      <trkpt lat="43.41414" lon="5.5654">
        <ele>377</ele>
        <time>2017-03-03T11:20:33Z</time>
      </trkpt>
      <trkpt lat="43.41416" lon="5.56541">
        <ele>377</ele>
        <time>2017-03-03T11:20:33Z</time>
      </trkpt>
      <trkpt lat="43.41418" lon="5.5654">
        <ele>377</ele>
        <time>2017-03-03T11:20:33Z</time>
      </trkpt>
      <trkpt lat="43.41421" lon="5.56542">
        <ele>377</ele>
        <time>2017-03-03T11:20:33Z</time>
      </trkpt>
      <trkpt lat="43.41424" lon="5.56542">
        <ele>385</ele>
        <time>2017-03-03T11:20:33Z</time>
      </trkpt>
      <trkpt lat="43.41428" lon="5.56544">
        <ele>385</ele>
        <time>2017-03-03T11:20:49Z</time>
      </trkpt>
      <trkpt lat="43.41431" lon="5.56545">
        <ele>385</ele>
        <time>2017-03-03T11:20:49Z</time>
      </trkpt>
      <trkpt lat="43.41434" lon="5.56547">
        <ele>385</ele>
        <time>2017-03-03T11:20:49Z</time>
      </trkpt>
      <trkpt lat="43.4144" lon="5.56549">
        <ele>385</ele>
        <time>2017-03-03T11:20:49Z</time>
      </trkpt>
      <trkpt lat="43.41443" lon="5.56549">
        <ele>385</ele>
        <time>2017-03-03T11:21:05Z</time>
      </trkpt>
      <trkpt lat="43.4145" lon="5.56552">
        <ele>385</ele>
        <time>2017-03-03T11:21:05Z</time>
      </trkpt>
      <trkpt lat="43.41453" lon="5.56552">
        <ele>385</ele>
        <time>2017-03-03T11:21:05Z</time>
      </trkpt>
      <trkpt lat="43.41457" lon="5.56554">
        <ele>385</ele>
        <time>2017-03-03T11:21:05Z</time>
      </trkpt>
      <trkpt lat="43.41462" lon="5.56557">
        <ele>384</ele>
        <time>2017-03-03T11:21:33Z</time>
      </trkpt>
      <trkpt lat="43.41463" lon="5.56559">
        <ele>384</ele>
        <time>2017-03-03T11:21:33Z</time>
      </trkpt>
      <trkpt lat="43.41466" lon="5.56563">
        <ele>384</ele>
        <time>2017-03-03T11:21:33Z</time>
      </trkpt>
      <trkpt lat="43.4147" lon="5.56565">
        <ele>384</ele>
        <time>2017-03-03T11:21:33Z</time>
      </trkpt>
      <trkpt lat="43.41476" lon="5.56567">
        <ele>384</ele>
        <time>2017-03-03T11:21:33Z</time>
      </trkpt>
      <trkpt lat="43.41481" lon="5.56569">
        <ele>384</ele>
        <time>2017-03-03T11:21:49Z</time>
      </trkpt>
      <trkpt lat="43.41487" lon="5.56573">
        <ele>384</ele>
        <time>2017-03-03T11:21:49Z</time>
      </trkpt>
      <trkpt lat="43.4149" lon="5.56578">
        <ele>384</ele>
        <time>2017-03-03T11:21:49Z</time>
      </trkpt>
      <trkpt lat="43.41492" lon="5.5658">
        <ele>384</ele>
        <time>2017-03-03T11:21:49Z</time>
      </trkpt>
      <trkpt lat="43.41493" lon="5.56581">
        <ele>384</ele>
        <time>2017-03-03T11:22:29Z</time>
      </trkpt>
      <trkpt lat="43.41493" lon="5.56581">
        <ele>384</ele>
        <time>2017-03-03T11:22:29Z</time>
      </trkpt>
      <trkpt lat="43.41494" lon="5.56583">
        <ele>384</ele>
        <time>2017-03-03T11:22:29Z</time>
      </trkpt>
      <trkpt lat="43.41496" lon="5.56587">
        <ele>384</ele>
        <time>2017-03-03T11:22:29Z</time>
      </trkpt>
      <trkpt lat="43.41497" lon="5.56592">
        <ele>384</ele>
        <time>2017-03-03T11:22:29Z</time>
      </trkpt>
      <trkpt lat="43.41498" lon="5.56598">
        <ele>384</ele>
        <time>2017-03-03T11:22:45Z</time>
      </trkpt>
      <trkpt lat="43.41499" lon="5.56603">
        <ele>384</ele>
        <time>2017-03-03T11:22:45Z</time>
      </trkpt>
      <trkpt lat="43.415" lon="5.56607">
        <ele>384</ele>
        <time>2017-03-03T11:22:45Z</time>
      </trkpt>
      <trkpt lat="43.41501" lon="5.56614">
        <ele>384</ele>
        <time>2017-03-03T11:22:45Z</time>
      </trkpt>
      <trkpt lat="43.41504" lon="5.5662">
        <ele>384</ele>
        <time>2017-03-03T11:23:01Z</time>
      </trkpt>
      <trkpt lat="43.41508" lon="5.56623">
        <ele>384</ele>
        <time>2017-03-03T11:23:01Z</time>
      </trkpt>
      <trkpt lat="43.41512" lon="5.56627">
        <ele>388</ele>
        <time>2017-03-03T11:23:01Z</time>
      </trkpt>
      <trkpt lat="43.41519" lon="5.5663">
        <ele>388</ele>
        <time>2017-03-03T11:23:01Z</time>
      </trkpt>
      <trkpt lat="43.41524" lon="5.56632">
        <ele>388</ele>
        <time>2017-03-03T11:23:17Z</time>
      </trkpt>
      <trkpt lat="43.41527" lon="5.56631">
        <ele>388</ele>
        <time>2017-03-03T11:23:17Z</time>
      </trkpt>
      <trkpt lat="43.41532" lon="5.56631">
        <ele>388</ele>
        <time>2017-03-03T11:23:17Z</time>
      </trkpt>
      <trkpt lat="43.41534" lon="5.56631">
        <ele>388</ele>
        <time>2017-03-03T11:23:17Z</time>
      </trkpt>
      <trkpt lat="43.41537" lon="5.56632">
        <ele>388</ele>
        <time>2017-03-03T11:23:33Z</time>
      </trkpt>
      <trkpt lat="43.4154" lon="5.56632">
        <ele>388</ele>
        <time>2017-03-03T11:23:33Z</time>
      </trkpt>
      <trkpt lat="43.41545" lon="5.56633">
        <ele>390</ele>
        <time>2017-03-03T11:23:33Z</time>
      </trkpt>
      <trkpt lat="43.41548" lon="5.56632">
        <ele>390</ele>
        <time>2017-03-03T11:23:33Z</time>
      </trkpt>
      <trkpt lat="43.4155" lon="5.56632">
        <ele>390</ele>
        <time>2017-03-03T11:23:53Z</time>
      </trkpt>
      <trkpt lat="43.41552" lon="5.56633">
        <ele>390</ele>
        <time>2017-03-03T11:23:53Z</time>
      </trkpt>
      <trkpt lat="43.41553" lon="5.56633">
        <ele>390</ele>
        <time>2017-03-03T11:23:53Z</time>
      </trkpt>
      <trkpt lat="43.41557" lon="5.56635">
        <ele>390</ele>
        <time>2017-03-03T11:23:53Z</time>
      </trkpt>
      <trkpt lat="43.41561" lon="5.5664">
        <ele>390</ele>
        <time>2017-03-03T11:23:53Z</time>
      </trkpt>
      <trkpt lat="43.41564" lon="5.56646">
        <ele>390</ele>
        <time>2017-03-03T11:24:09Z</time>
      </trkpt>
      <trkpt lat="43.41568" lon="5.5665">
        <ele>390</ele>
        <time>2017-03-03T11:24:09Z</time>
      </trkpt>
      <trkpt lat="43.41571" lon="5.56654">
        <ele>390</ele>
        <time>2017-03-03T11:24:09Z</time>
      </trkpt>
      <trkpt lat="43.41575" lon="5.56658">
        <ele>390</ele>
        <time>2017-03-03T11:24:09Z</time>
      </trkpt>
      <trkpt lat="43.4158" lon="5.56659">
        <ele>390</ele>
        <time>2017-03-03T11:24:25Z</time>
      </trkpt>
      <trkpt lat="43.41584" lon="5.56662">
        <ele>390</ele>
        <time>2017-03-03T11:24:25Z</time>
      </trkpt>
      <trkpt lat="43.41588" lon="5.56665">
        <ele>390</ele>
        <time>2017-03-03T11:24:25Z</time>
      </trkpt>
      <trkpt lat="43.41591" lon="5.56662">
        <ele>390</ele>
        <time>2017-03-03T11:24:25Z</time>
      </trkpt>
      <trkpt lat="43.41597" lon="5.56657">
        <ele>390</ele>
        <time>2017-03-03T11:24:41Z</time>
      </trkpt>
      <trkpt lat="43.41601" lon="5.56655">
        <ele>390</ele>
        <time>2017-03-03T11:24:41Z</time>
      </trkpt>
      <trkpt lat="43.41605" lon="5.56652">
        <ele>390</ele>
        <time>2017-03-03T11:24:41Z</time>
      </trkpt>
      <trkpt lat="43.41607" lon="5.5665">
        <ele>390</ele>
        <time>2017-03-03T11:24:41Z</time>
      </trkpt>
      <trkpt lat="43.41608" lon="5.56648">
        <ele>390</ele>
        <time>2017-03-03T11:24:57Z</time>
      </trkpt>
      <trkpt lat="43.41611" lon="5.56643">
        <ele>390</ele>
        <time>2017-03-03T11:24:57Z</time>
      </trkpt>
      <trkpt lat="43.41615" lon="5.56641">
        <ele>390</ele>
        <time>2017-03-03T11:24:57Z</time>
      </trkpt>
      <trkpt lat="43.41616" lon="5.56635">
        <ele>390</ele>
        <time>2017-03-03T11:24:57Z</time>
      </trkpt>
      <trkpt lat="43.41617" lon="5.56634">
        <ele>390</ele>
        <time>2017-03-03T11:25:29Z</time>
      </trkpt>
      <trkpt lat="43.41619" lon="5.56632">
        <ele>390</ele>
        <time>2017-03-03T11:25:29Z</time>
      </trkpt>
      <trkpt lat="43.4162" lon="5.56628">
        <ele>390</ele>
        <time>2017-03-03T11:25:29Z</time>
      </trkpt>
      <trkpt lat="43.41621" lon="5.56628">
        <ele>390</ele>
        <time>2017-03-03T11:25:29Z</time>
      </trkpt>
      <trkpt lat="43.41625" lon="5.56625">
        <ele>382</ele>
        <time>2017-03-03T11:25:29Z</time>
      </trkpt>
      <trkpt lat="43.41627" lon="5.5662">
        <ele>393</ele>
        <time>2017-03-03T11:25:49Z</time>
      </trkpt>
      <trkpt lat="43.41627" lon="5.56616">
        <ele>393</ele>
        <time>2017-03-03T11:25:49Z</time>
      </trkpt>
      <trkpt lat="43.41628" lon="5.56616">
        <ele>393</ele>
        <time>2017-03-03T11:25:49Z</time>
      </trkpt>
      <trkpt lat="43.41632" lon="5.56615">
        <ele>393</ele>
        <time>2017-03-03T11:25:49Z</time>
      </trkpt>
      <trkpt lat="43.41637" lon="5.56615">
        <ele>393</ele>
        <time>2017-03-03T11:25:49Z</time>
      </trkpt>
      <trkpt lat="43.4164" lon="5.56612">
        <ele>393</ele>
        <time>2017-03-03T11:26:09Z</time>
      </trkpt>
      <trkpt lat="43.41644" lon="5.56611">
        <ele>393</ele>
        <time>2017-03-03T11:26:09Z</time>
      </trkpt>
      <trkpt lat="43.41646" lon="5.56611">
        <ele>393</ele>
        <time>2017-03-03T11:26:09Z</time>
      </trkpt>
      <trkpt lat="43.41648" lon="5.56608">
        <ele>393</ele>
        <time>2017-03-03T11:26:09Z</time>
      </trkpt>
      <trkpt lat="43.41652" lon="5.56611">
        <ele>393</ele>
        <time>2017-03-03T11:26:09Z</time>
      </trkpt>
      <trkpt lat="43.41659" lon="5.5661">
        <ele>393</ele>
        <time>2017-03-03T11:26:25Z</time>
      </trkpt>
      <trkpt lat="43.41664" lon="5.5661">
        <ele>393</ele>
        <time>2017-03-03T11:26:25Z</time>
      </trkpt>
      <trkpt lat="43.41671" lon="5.5661">
        <ele>393</ele>
        <time>2017-03-03T11:26:25Z</time>
      </trkpt>
      <trkpt lat="43.4168" lon="5.56608">
        <ele>393</ele>
        <time>2017-03-03T11:26:25Z</time>
      </trkpt>
      <trkpt lat="43.41688" lon="5.56605">
        <ele>393</ele>
        <time>2017-03-03T11:26:41Z</time>
      </trkpt>
      <trkpt lat="43.41693" lon="5.56604">
        <ele>393</ele>
        <time>2017-03-03T11:26:41Z</time>
      </trkpt>
      <trkpt lat="43.41694" lon="5.56604">
        <ele>393</ele>
        <time>2017-03-03T11:26:41Z</time>
      </trkpt>
      <trkpt lat="43.41697" lon="5.566">
        <ele>393</ele>
        <time>2017-03-03T11:26:41Z</time>
      </trkpt>
      <trkpt lat="43.41701" lon="5.56596">
        <ele>393</ele>
        <time>2017-03-03T11:26:57Z</time>
      </trkpt>
      <trkpt lat="43.41703" lon="5.56594">
        <ele>393</ele>
        <time>2017-03-03T11:26:57Z</time>
      </trkpt>
      <trkpt lat="43.41708" lon="5.56588">
        <ele>393</ele>
        <time>2017-03-03T11:26:57Z</time>
      </trkpt>
      <trkpt lat="43.41712" lon="5.56584">
        <ele>396</ele>
        <time>2017-03-03T11:26:57Z</time>
      </trkpt>
      <trkpt lat="43.41718" lon="5.5658">
        <ele>396</ele>
        <time>2017-03-03T11:27:17Z</time>
      </trkpt>
      <trkpt lat="43.41722" lon="5.56579">
        <ele>396</ele>
        <time>2017-03-03T11:27:17Z</time>
      </trkpt>
      <trkpt lat="43.41724" lon="5.56577">
        <ele>396</ele>
        <time>2017-03-03T11:27:17Z</time>
      </trkpt>
      <trkpt lat="43.41726" lon="5.56575">
        <ele>396</ele>
        <time>2017-03-03T11:27:17Z</time>
      </trkpt>
      <trkpt lat="43.41729" lon="5.56574">
        <ele>396</ele>
        <time>2017-03-03T11:27:17Z</time>
      </trkpt>
      <trkpt lat="43.41733" lon="5.56573">
        <ele>396</ele>
        <time>2017-03-03T11:27:33Z</time>
      </trkpt>
      <trkpt lat="43.41739" lon="5.56571">
        <ele>396</ele>
        <time>2017-03-03T11:27:33Z</time>
      </trkpt>
      <trkpt lat="43.41742" lon="5.56567">
        <ele>396</ele>
        <time>2017-03-03T11:27:33Z</time>
      </trkpt>
      <trkpt lat="43.41749" lon="5.5656">
        <ele>396</ele>
        <time>2017-03-03T11:27:33Z</time>
      </trkpt>
      <trkpt lat="43.41752" lon="5.56556">
        <ele>396</ele>
        <time>2017-03-03T11:28:01Z</time>
      </trkpt>
      <trkpt lat="43.41754" lon="5.56555">
        <ele>396</ele>
        <time>2017-03-03T11:28:01Z</time>
      </trkpt>
      <trkpt lat="43.41754" lon="5.56555">
        <ele>396</ele>
        <time>2017-03-03T11:28:01Z</time>
      </trkpt>
      <trkpt lat="43.41755" lon="5.56555">
        <ele>396</ele>
        <time>2017-03-03T11:28:01Z</time>
      </trkpt>
      <trkpt lat="43.41756" lon="5.56548">
        <ele>396</ele>
        <time>2017-03-03T11:28:01Z</time>
      </trkpt>
      <trkpt lat="43.41756" lon="5.56541">
        <ele>392</ele>
        <time>2017-03-03T11:28:17Z</time>
      </trkpt>
      <trkpt lat="43.41757" lon="5.56536">
        <ele>392</ele>
        <time>2017-03-03T11:28:17Z</time>
      </trkpt>
      <trkpt lat="43.41759" lon="5.56532">
        <ele>392</ele>
        <time>2017-03-03T11:28:17Z</time>
      </trkpt>
      <trkpt lat="43.41759" lon="5.56529">
        <ele>392</ele>
        <time>2017-03-03T11:28:17Z</time>
      </trkpt>
      <trkpt lat="43.41761" lon="5.56523">
        <ele>392</ele>
        <time>2017-03-03T11:28:33Z</time>
      </trkpt>
      <trkpt lat="43.41761" lon="5.56516">
        <ele>392</ele>
        <time>2017-03-03T11:28:33Z</time>
      </trkpt>
      <trkpt lat="43.41762" lon="5.56511">
        <ele>392</ele>
        <time>2017-03-03T11:28:33Z</time>
      </trkpt>
      <trkpt lat="43.41762" lon="5.56508">
        <ele>392</ele>
        <time>2017-03-03T11:28:33Z</time>
      </trkpt>
      <trkpt lat="43.41761" lon="5.56504">
        <ele>392</ele>
        <time>2017-03-03T11:28:49Z</time>
      </trkpt>
      <trkpt lat="43.4176" lon="5.56501">
        <ele>392</ele>
        <time>2017-03-03T11:28:49Z</time>
      </trkpt>
      <trkpt lat="43.41756" lon="5.56495">
        <ele>392</ele>
        <time>2017-03-03T11:28:49Z</time>
      </trkpt>
      <trkpt lat="43.41753" lon="5.56489">
        <ele>392</ele>
        <time>2017-03-03T11:28:49Z</time>
      </trkpt>
      <trkpt lat="43.41752" lon="5.56484">
        <ele>392</ele>
        <time>2017-03-03T11:29:05Z</time>
      </trkpt>
      <trkpt lat="43.4175" lon="5.56478">
        <ele>392</ele>
        <time>2017-03-03T11:29:05Z</time>
      </trkpt>
      <trkpt lat="43.41748" lon="5.56469">
        <ele>392</ele>
        <time>2017-03-03T11:29:05Z</time>
      </trkpt>
      <trkpt lat="43.41745" lon="5.56461">
        <ele>392</ele>
        <time>2017-03-03T11:29:05Z</time>
      </trkpt>
      <trkpt lat="43.41744" lon="5.56457">
        <ele>388</ele>
        <time>2017-03-03T11:29:21Z</time>
      </trkpt>
      <trkpt lat="43.41743" lon="5.56453">
        <ele>388</ele>
        <time>2017-03-03T11:29:21Z</time>
      </trkpt>
      <trkpt lat="43.41743" lon="5.5644">
        <ele>388</ele>
        <time>2017-03-03T11:29:21Z</time>
      </trkpt>
      <trkpt lat="43.41742" lon="5.56438">
        <ele>388</ele>
        <time>2017-03-03T11:29:21Z</time>
      </trkpt>
      <trkpt lat="43.41739" lon="5.56435">
        <ele>388</ele>
        <time>2017-03-03T11:29:41Z</time>
      </trkpt>
      <trkpt lat="43.41737" lon="5.5643">
        <ele>388</ele>
        <time>2017-03-03T11:29:41Z</time>
      </trkpt>
      <trkpt lat="43.41737" lon="5.56429">
        <ele>388</ele>
        <time>2017-03-03T11:29:41Z</time>
      </trkpt>
      <trkpt lat="43.41737" lon="5.56425">
        <ele>388</ele>
        <time>2017-03-03T11:29:41Z</time>
      </trkpt>
      <trkpt lat="43.41737" lon="5.56421">
        <ele>388</ele>
        <time>2017-03-03T11:29:41Z</time>
      </trkpt>
      <trkpt lat="43.41736" lon="5.56417">
        <ele>388</ele>
        <time>2017-03-03T11:29:57Z</time>
      </trkpt>
      <trkpt lat="43.41737" lon="5.56414">
        <ele>388</ele>
        <time>2017-03-03T11:29:57Z</time>
      </trkpt>
      <trkpt lat="43.41736" lon="5.56408">
        <ele>388</ele>
        <time>2017-03-03T11:29:57Z</time>
      </trkpt>
      <trkpt lat="43.41735" lon="5.56402">
        <ele>388</ele>
        <time>2017-03-03T11:29:57Z</time>
      </trkpt>
      <trkpt lat="43.41735" lon="5.56398">
        <ele>388</ele>
        <time>2017-03-03T11:30:13Z</time>
      </trkpt>
      <trkpt lat="43.41735" lon="5.56394">
        <ele>388</ele>
        <time>2017-03-03T11:30:13Z</time>
      </trkpt>
      <trkpt lat="43.41737" lon="5.56388">
        <ele>388</ele>
        <time>2017-03-03T11:30:13Z</time>
      </trkpt>
      <trkpt lat="43.41737" lon="5.56375">
        <ele>388</ele>
        <time>2017-03-03T11:30:13Z</time>
      </trkpt>
      <trkpt lat="43.41738" lon="5.56369">
        <ele>384</ele>
        <time>2017-03-03T11:30:29Z</time>
      </trkpt>
      <trkpt lat="43.41739" lon="5.56362">
        <ele>384</ele>
        <time>2017-03-03T11:30:29Z</time>
      </trkpt>
      <trkpt lat="43.41736" lon="5.56355">
        <ele>384</ele>
        <time>2017-03-03T11:30:29Z</time>
      </trkpt>
      <trkpt lat="43.41736" lon="5.56348">
        <ele>384</ele>
        <time>2017-03-03T11:30:29Z</time>
      </trkpt>
      <trkpt lat="43.41737" lon="5.56344">
        <ele>384</ele>
        <time>2017-03-03T11:30:45Z</time>
      </trkpt>
      <trkpt lat="43.41736" lon="5.5634">
        <ele>384</ele>
        <time>2017-03-03T11:30:45Z</time>
      </trkpt>
      <trkpt lat="43.41736" lon="5.56336">
        <ele>384</ele>
        <time>2017-03-03T11:30:45Z</time>
      </trkpt>
      <trkpt lat="43.41736" lon="5.56327">
        <ele>384</ele>
        <time>2017-03-03T11:30:45Z</time>
      </trkpt>
      <trkpt lat="43.41737" lon="5.56321">
        <ele>384</ele>
        <time>2017-03-03T11:31:05Z</time>
      </trkpt>
      <trkpt lat="43.41737" lon="5.56318">
        <ele>384</ele>
        <time>2017-03-03T11:31:05Z</time>
      </trkpt>
      <trkpt lat="43.41739" lon="5.56317">
        <ele>384</ele>
        <time>2017-03-03T11:31:05Z</time>
      </trkpt>
      <trkpt lat="43.41741" lon="5.56311">
        <ele>384</ele>
        <time>2017-03-03T11:31:05Z</time>
      </trkpt>
      <trkpt lat="43.41742" lon="5.56307">
        <ele>384</ele>
        <time>2017-03-03T11:31:05Z</time>
      </trkpt>
      <trkpt lat="43.41744" lon="5.56303">
        <ele>384</ele>
        <time>2017-03-03T11:31:21Z</time>
      </trkpt>
      <trkpt lat="43.41747" lon="5.56299">
        <ele>384</ele>
        <time>2017-03-03T11:31:21Z</time>
      </trkpt>
      <trkpt lat="43.41749" lon="5.56295">
        <ele>384</ele>
        <time>2017-03-03T11:31:21Z</time>
      </trkpt>
      <trkpt lat="43.41752" lon="5.5629">
        <ele>376</ele>
        <time>2017-03-03T11:31:21Z</time>
      </trkpt>
      <trkpt lat="43.41755" lon="5.56285">
        <ele>376</ele>
        <time>2017-03-03T11:31:37Z</time>
      </trkpt>
      <trkpt lat="43.41757" lon="5.56279">
        <ele>376</ele>
        <time>2017-03-03T11:31:37Z</time>
      </trkpt>
      <trkpt lat="43.41759" lon="5.56275">
        <ele>376</ele>
        <time>2017-03-03T11:31:37Z</time>
      </trkpt>
      <trkpt lat="43.41762" lon="5.5627">
        <ele>376</ele>
        <time>2017-03-03T11:31:37Z</time>
      </trkpt>
      <trkpt lat="43.41764" lon="5.56264">
        <ele>376</ele>
        <time>2017-03-03T11:31:53Z</time>
      </trkpt>
      <trkpt lat="43.41765" lon="5.56259">
        <ele>376</ele>
        <time>2017-03-03T11:31:53Z</time>
      </trkpt>
      <trkpt lat="43.41768" lon="5.56252">
        <ele>376</ele>
        <time>2017-03-03T11:31:53Z</time>
      </trkpt>
      <trkpt lat="43.41771" lon="5.56248">
        <ele>376</ele>
        <time>2017-03-03T11:31:53Z</time>
      </trkpt>
      <trkpt lat="43.41774" lon="5.56242">
        <ele>376</ele>
        <time>2017-03-03T11:32:09Z</time>
      </trkpt>
      <trkpt lat="43.41775" lon="5.56238">
        <ele>376</ele>
        <time>2017-03-03T11:32:09Z</time>
      </trkpt>
      <trkpt lat="43.41777" lon="5.56231">
        <ele>376</ele>
        <time>2017-03-03T11:32:09Z</time>
      </trkpt>
      <trkpt lat="43.41778" lon="5.56226">
        <ele>376</ele>
        <time>2017-03-03T11:32:09Z</time>
      </trkpt>
      <trkpt lat="43.41778" lon="5.56221">
        <ele>376</ele>
        <time>2017-03-03T11:32:25Z</time>
      </trkpt>
      <trkpt lat="43.41779" lon="5.56217">
        <ele>376</ele>
        <time>2017-03-03T11:32:25Z</time>
      </trkpt>
      <trkpt lat="43.41779" lon="5.56213">
        <ele>376</ele>
        <time>2017-03-03T11:32:25Z</time>
      </trkpt>
      <trkpt lat="43.41779" lon="5.56206">
        <ele>373</ele>
        <time>2017-03-03T11:32:25Z</time>
      </trkpt>
      <trkpt lat="43.41779" lon="5.562">
        <ele>373</ele>
        <time>2017-03-03T11:32:41Z</time>
      </trkpt>
      <trkpt lat="43.4178" lon="5.56192">
        <ele>373</ele>
        <time>2017-03-03T11:32:41Z</time>
      </trkpt>
      <trkpt lat="43.4178" lon="5.56184">
        <ele>373</ele>
        <time>2017-03-03T11:32:41Z</time>
      </trkpt>
      <trkpt lat="43.4178" lon="5.56178">
        <ele>373</ele>
        <time>2017-03-03T11:32:41Z</time>
      </trkpt>
      <trkpt lat="43.4178" lon="5.56171">
        <ele>373</ele>
        <time>2017-03-03T11:32:57Z</time>
      </trkpt>
      <trkpt lat="43.41781" lon="5.56166">
        <ele>373</ele>
        <time>2017-03-03T11:32:57Z</time>
      </trkpt>
      <trkpt lat="43.41782" lon="5.56161">
        <ele>373</ele>
        <time>2017-03-03T11:32:57Z</time>
      </trkpt>
      <trkpt lat="43.41782" lon="5.56158">
        <ele>373</ele>
        <time>2017-03-03T11:32:57Z</time>
      </trkpt>
      <trkpt lat="43.41782" lon="5.56153">
        <ele>373</ele>
        <time>2017-03-03T11:33:13Z</time>
      </trkpt>
      <trkpt lat="43.41783" lon="5.56146">
        <ele>373</ele>
        <time>2017-03-03T11:33:13Z</time>
      </trkpt>
      <trkpt lat="43.41783" lon="5.56137">
        <ele>373</ele>
        <time>2017-03-03T11:33:13Z</time>
      </trkpt>
      <trkpt lat="43.41784" lon="5.56131">
        <ele>373</ele>
        <time>2017-03-03T11:33:13Z</time>
      </trkpt>
      <trkpt lat="43.41787" lon="5.56126">
        <ele>373</ele>
        <time>2017-03-03T11:33:29Z</time>
      </trkpt>
      <trkpt lat="43.41787" lon="5.56119">
        <ele>367</ele>
        <time>2017-03-03T11:33:29Z</time>
      </trkpt>
      <trkpt lat="43.41789" lon="5.56113">
        <ele>367</ele>
        <time>2017-03-03T11:33:29Z</time>
      </trkpt>
      <trkpt lat="43.4179" lon="5.56104">
        <ele>367</ele>
        <time>2017-03-03T11:33:29Z</time>
      </trkpt>
      <trkpt lat="43.41791" lon="5.56099">
        <ele>367</ele>
        <time>2017-03-03T11:33:45Z</time>
      </trkpt>
      <trkpt lat="43.41792" lon="5.56093">
        <ele>374</ele>
        <time>2017-03-03T11:33:45Z</time>
      </trkpt>
      <trkpt lat="43.41794" lon="5.56088">
        <ele>374</ele>
        <time>2017-03-03T11:33:45Z</time>
      </trkpt>
      <trkpt lat="43.41795" lon="5.56083">
        <ele>374</ele>
        <time>2017-03-03T11:33:45Z</time>
      </trkpt>
      <trkpt lat="43.41797" lon="5.56078">
        <ele>374</ele>
        <time>2017-03-03T11:34:01Z</time>
      </trkpt>
      <trkpt lat="43.41799" lon="5.56072">
        <ele>374</ele>
        <time>2017-03-03T11:34:01Z</time>
      </trkpt>
      <trkpt lat="43.41801" lon="5.56065">
        <ele>374</ele>
        <time>2017-03-03T11:34:01Z</time>
      </trkpt>
      <trkpt lat="43.41801" lon="5.56059">
        <ele>374</ele>
        <time>2017-03-03T11:34:01Z</time>
      </trkpt>
      <trkpt lat="43.41803" lon="5.56052">
        <ele>374</ele>
        <time>2017-03-03T11:34:17Z</time>
      </trkpt>
      <trkpt lat="43.41805" lon="5.56047">
        <ele>374</ele>
        <time>2017-03-03T11:34:17Z</time>
      </trkpt>
      <trkpt lat="43.41807" lon="5.56042">
        <ele>374</ele>
        <time>2017-03-03T11:34:17Z</time>
      </trkpt>
      <trkpt lat="43.41811" lon="5.56035">
        <ele>370</ele>
        <time>2017-03-03T11:34:17Z</time>
      </trkpt>
      <trkpt lat="43.41813" lon="5.56032">
        <ele>370</ele>
        <time>2017-03-03T11:34:33Z</time>
      </trkpt>
      <trkpt lat="43.41816" lon="5.56029">
        <ele>370</ele>
        <time>2017-03-03T11:34:33Z</time>
      </trkpt>
      <trkpt lat="43.41818" lon="5.56023">
        <ele>370</ele>
        <time>2017-03-03T11:34:33Z</time>
      </trkpt>
      <trkpt lat="43.41822" lon="5.5602">
        <ele>370</ele>
        <time>2017-03-03T11:34:33Z</time>
      </trkpt>
      <trkpt lat="43.41826" lon="5.56015">
        <ele>370</ele>
        <time>2017-03-03T11:34:49Z</time>
      </trkpt>
      <trkpt lat="43.4183" lon="5.5601">
        <ele>370</ele>
        <time>2017-03-03T11:34:49Z</time>
      </trkpt>
      <trkpt lat="43.41833" lon="5.56005">
        <ele>370</ele>
        <time>2017-03-03T11:34:49Z</time>
      </trkpt>
      <trkpt lat="43.41838" lon="5.56001">
        <ele>370</ele>
        <time>2017-03-03T11:34:49Z</time>
      </trkpt>
      <trkpt lat="43.41842" lon="5.55995">
        <ele>370</ele>
        <time>2017-03-03T11:35:05Z</time>
      </trkpt>
      <trkpt lat="43.41843" lon="5.55992">
        <ele>370</ele>
        <time>2017-03-03T11:35:05Z</time>
      </trkpt>
      <trkpt lat="43.41845" lon="5.55988">
        <ele>370</ele>
        <time>2017-03-03T11:35:05Z</time>
      </trkpt>
      <trkpt lat="43.41848" lon="5.55985">
        <ele>370</ele>
        <time>2017-03-03T11:35:05Z</time>
      </trkpt>
      <trkpt lat="43.41851" lon="5.55978">
        <ele>370</ele>
        <time>2017-03-03T11:35:21Z</time>
      </trkpt>
      <trkpt lat="43.41853" lon="5.55975">
        <ele>370</ele>
        <time>2017-03-03T11:35:21Z</time>
      </trkpt>
      <trkpt lat="43.41855" lon="5.5597">
        <ele>370</ele>
        <time>2017-03-03T11:35:21Z</time>
      </trkpt>
      <trkpt lat="43.41857" lon="5.55964">
        <ele>370</ele>
        <time>2017-03-03T11:35:21Z</time>
      </trkpt>
      <trkpt lat="43.41859" lon="5.5596">
        <ele>370</ele>
        <time>2017-03-03T11:35:37Z</time>
      </trkpt>
      <trkpt lat="43.41861" lon="5.55955">
        <ele>360</ele>
        <time>2017-03-03T11:35:37Z</time>
      </trkpt>
      <trkpt lat="43.41863" lon="5.55949">
        <ele>360</ele>
        <time>2017-03-03T11:35:37Z</time>
      </trkpt>
      <trkpt lat="43.41866" lon="5.55944">
        <ele>360</ele>
        <time>2017-03-03T11:35:37Z</time>
      </trkpt>
      <trkpt lat="43.41869" lon="5.55939">
        <ele>360</ele>
        <time>2017-03-03T11:35:53Z</time>
      </trkpt>
      <trkpt lat="43.41873" lon="5.55934">
        <ele>360</ele>
        <time>2017-03-03T11:35:53Z</time>
      </trkpt>
      <trkpt lat="43.41875" lon="5.5593">
        <ele>370</ele>
        <time>2017-03-03T11:35:53Z</time>
      </trkpt>
      <trkpt lat="43.41878" lon="5.55924">
        <ele>370</ele>
        <time>2017-03-03T11:35:53Z</time>
      </trkpt>
      <trkpt lat="43.41881" lon="5.55918">
        <ele>370</ele>
        <time>2017-03-03T11:36:09Z</time>
      </trkpt>
      <trkpt lat="43.41885" lon="5.55913">
        <ele>370</ele>
        <time>2017-03-03T11:36:09Z</time>
      </trkpt>
      <trkpt lat="43.4189" lon="5.55908">
        <ele>370</ele>
        <time>2017-03-03T11:36:09Z</time>
      </trkpt>
      <trkpt lat="43.41893" lon="5.55905">
        <ele>370</ele>
        <time>2017-03-03T11:36:09Z</time>
      </trkpt>
      <trkpt lat="43.41895" lon="5.55901">
        <ele>370</ele>
        <time>2017-03-03T11:36:25Z</time>
      </trkpt>
      <trkpt lat="43.41896" lon="5.55898">
        <ele>370</ele>
        <time>2017-03-03T11:36:25Z</time>
      </trkpt>
      <trkpt lat="43.41898" lon="5.55893">
        <ele>370</ele>
        <time>2017-03-03T11:36:25Z</time>
      </trkpt>
      <trkpt lat="43.419" lon="5.55889">
        <ele>370</ele>
        <time>2017-03-03T11:36:25Z</time>
      </trkpt>
      <trkpt lat="43.41902" lon="5.55884">
        <ele>370</ele>
        <time>2017-03-03T11:36:41Z</time>
      </trkpt>
      <trkpt lat="43.41905" lon="5.5588">
        <ele>370</ele>
        <time>2017-03-03T11:36:41Z</time>
      </trkpt>
      <trkpt lat="43.41907" lon="5.55874">
        <ele>365</ele>
        <time>2017-03-03T11:36:41Z</time>
      </trkpt>
      <trkpt lat="43.41912" lon="5.5587">
        <ele>365</ele>
        <time>2017-03-03T11:36:41Z</time>
      </trkpt>
      <trkpt lat="43.41914" lon="5.55863">
        <ele>365</ele>
        <time>2017-03-03T11:36:57Z</time>
      </trkpt>
      <trkpt lat="43.41916" lon="5.55858">
        <ele>365</ele>
        <time>2017-03-03T11:36:57Z</time>
      </trkpt>
      <trkpt lat="43.41919" lon="5.55854">
        <ele>365</ele>
        <time>2017-03-03T11:36:57Z</time>
      </trkpt>
      <trkpt lat="43.41921" lon="5.5585">
        <ele>365</ele>
        <time>2017-03-03T11:36:57Z</time>
      </trkpt>
      <trkpt lat="43.41923" lon="5.55846">
        <ele>365</ele>
        <time>2017-03-03T11:37:13Z</time>
      </trkpt>
      <trkpt lat="43.41926" lon="5.55842">
        <ele>365</ele>
        <time>2017-03-03T11:37:13Z</time>
      </trkpt>
      <trkpt lat="43.41928" lon="5.55838">
        <ele>365</ele>
        <time>2017-03-03T11:37:13Z</time>
      </trkpt>
      <trkpt lat="43.41932" lon="5.55832">
        <ele>365</ele>
        <time>2017-03-03T11:37:13Z</time>
      </trkpt>
      <trkpt lat="43.41935" lon="5.55827">
        <ele>365</ele>
        <time>2017-03-03T11:37:29Z</time>
      </trkpt>
      <trkpt lat="43.41937" lon="5.55824">
        <ele>365</ele>
        <time>2017-03-03T11:37:29Z</time>
      </trkpt>
      <trkpt lat="43.4194" lon="5.55818">
        <ele>365</ele>
        <time>2017-03-03T11:37:29Z</time>
      </trkpt>
      <trkpt lat="43.41943" lon="5.55814">
        <ele>365</ele>
        <time>2017-03-03T11:37:29Z</time>
      </trkpt>
      <trkpt lat="43.41945" lon="5.55809">
        <ele>365</ele>
        <time>2017-03-03T11:37:45Z</time>
      </trkpt>
      <trkpt lat="43.41948" lon="5.55806">
        <ele>365</ele>
        <time>2017-03-03T11:37:45Z</time>
      </trkpt>
      <trkpt lat="43.41951" lon="5.55802">
        <ele>365</ele>
        <time>2017-03-03T11:37:45Z</time>
      </trkpt>
      <trkpt lat="43.41952" lon="5.55799">
        <ele>365</ele>
        <time>2017-03-03T11:37:45Z</time>
      </trkpt>
      <trkpt lat="43.41955" lon="5.55795">
        <ele>365</ele>
        <time>2017-03-03T11:38:01Z</time>
      </trkpt>
      <trkpt lat="43.41959" lon="5.55789">
        <ele>361</ele>
        <time>2017-03-03T11:38:01Z</time>
      </trkpt>
      <trkpt lat="43.41963" lon="5.55784">
        <ele>361</ele>
        <time>2017-03-03T11:38:01Z</time>
      </trkpt>
      <trkpt lat="43.41967" lon="5.55779">
        <ele>361</ele>
        <time>2017-03-03T11:38:01Z</time>
      </trkpt>
      <trkpt lat="43.41969" lon="5.55774">
        <ele>361</ele>
        <time>2017-03-03T11:38:17Z</time>
      </trkpt>
      <trkpt lat="43.41972" lon="5.55771">
        <ele>361</ele>
        <time>2017-03-03T11:38:17Z</time>
      </trkpt>
      <trkpt lat="43.41974" lon="5.55767">
        <ele>361</ele>
        <time>2017-03-03T11:38:17Z</time>
      </trkpt>
      <trkpt lat="43.41978" lon="5.55764">
        <ele>361</ele>
        <time>2017-03-03T11:38:17Z</time>
      </trkpt>
      <trkpt lat="43.41982" lon="5.55762">
        <ele>361</ele>
        <time>2017-03-03T11:38:33Z</time>
      </trkpt>
      <trkpt lat="43.41984" lon="5.55761">
        <ele>361</ele>
        <time>2017-03-03T11:38:33Z</time>
      </trkpt>
      <trkpt lat="43.41986" lon="5.55761">
        <ele>361</ele>
        <time>2017-03-03T11:38:33Z</time>
      </trkpt>
      <trkpt lat="43.41993" lon="5.55759">
        <ele>361</ele>
        <time>2017-03-03T11:38:33Z</time>
      </trkpt>
      <trkpt lat="43.41998" lon="5.55759">
        <ele>361</ele>
        <time>2017-03-03T11:38:49Z</time>
      </trkpt>
      <trkpt lat="43.42003" lon="5.5576">
        <ele>361</ele>
        <time>2017-03-03T11:38:49Z</time>
      </trkpt>
      <trkpt lat="43.42008" lon="5.5576">
        <ele>361</ele>
        <time>2017-03-03T11:38:49Z</time>
      </trkpt>
      <trkpt lat="43.42012" lon="5.55761">
        <ele>361</ele>
        <time>2017-03-03T11:38:49Z</time>
      </trkpt>
      <trkpt lat="43.42013" lon="5.55762">
        <ele>361</ele>
        <time>2017-03-03T11:39:05Z</time>
      </trkpt>
      <trkpt lat="43.4202" lon="5.55763">
        <ele>361</ele>
        <time>2017-03-03T11:39:05Z</time>
      </trkpt>
      <trkpt lat="43.42022" lon="5.55763">
        <ele>361</ele>
        <time>2017-03-03T11:39:05Z</time>
      </trkpt>
      <trkpt lat="43.42024" lon="5.55764">
        <ele>361</ele>
        <time>2017-03-03T11:39:05Z</time>
      </trkpt>
      <trkpt lat="43.4203" lon="5.55769">
        <ele>361</ele>
        <time>2017-03-03T11:40:01Z</time>
      </trkpt>
      <trkpt lat="43.4203" lon="5.5577">
        <ele>361</ele>
        <time>2017-03-03T11:40:01Z</time>
      </trkpt>
      <trkpt lat="43.42032" lon="5.55768">
        <ele>361</ele>
        <time>2017-03-03T11:40:01Z</time>
      </trkpt>
      <trkpt lat="43.42035" lon="5.55765">
        <ele>361</ele>
        <time>2017-03-03T11:40:01Z</time>
      </trkpt>
      <trkpt lat="43.42037" lon="5.55761">
        <ele>361</ele>
        <time>2017-03-03T11:40:01Z</time>
      </trkpt>
      <trkpt lat="43.42038" lon="5.55759">
        <ele>361</ele>
        <time>2017-03-03T11:40:17Z</time>
      </trkpt>
      <trkpt lat="43.4204" lon="5.55759">
        <ele>361</ele>
        <time>2017-03-03T11:40:17Z</time>
      </trkpt>
      <trkpt lat="43.42044" lon="5.55764">
        <ele>356</ele>
        <time>2017-03-03T11:40:17Z</time>
      </trkpt>
      <trkpt lat="43.42049" lon="5.55766">
        <ele>356</ele>
        <time>2017-03-03T11:40:17Z</time>
      </trkpt>
      <trkpt lat="43.42054" lon="5.55766">
        <ele>356</ele>
        <time>2017-03-03T11:40:33Z</time>
      </trkpt>
      <trkpt lat="43.42058" lon="5.55764">
        <ele>356</ele>
        <time>2017-03-03T11:40:33Z</time>
      </trkpt>
      <trkpt lat="43.42061" lon="5.55764">
        <ele>356</ele>
        <time>2017-03-03T11:40:33Z</time>
      </trkpt>
      <trkpt lat="43.42066" lon="5.55764">
        <ele>356</ele>
        <time>2017-03-03T11:40:33Z</time>
      </trkpt>
      <trkpt lat="43.42072" lon="5.55761">
        <ele>356</ele>
        <time>2017-03-03T11:40:49Z</time>
      </trkpt>
      <trkpt lat="43.42076" lon="5.55758">
        <ele>356</ele>
        <time>2017-03-03T11:40:49Z</time>
      </trkpt>
      <trkpt lat="43.42078" lon="5.55757">
        <ele>356</ele>
        <time>2017-03-03T11:40:49Z</time>
      </trkpt>
      <trkpt lat="43.42081" lon="5.55752">
        <ele>356</ele>
        <time>2017-03-03T11:40:49Z</time>
      </trkpt>
      <trkpt lat="43.42092" lon="5.55741">
        <ele>356</ele>
        <time>2017-03-03T11:41:21Z</time>
      </trkpt>
      <trkpt lat="43.42094" lon="5.55738">
        <ele>356</ele>
        <time>2017-03-03T11:41:21Z</time>
      </trkpt>
      <trkpt lat="43.42098" lon="5.55735">
        <ele>356</ele>
        <time>2017-03-03T11:41:21Z</time>
      </trkpt>
      <trkpt lat="43.42102" lon="5.55731">
        <ele>356</ele>
        <time>2017-03-03T11:41:21Z</time>
      </trkpt>
      <trkpt lat="43.42103" lon="5.55728">
        <ele>356</ele>
        <time>2017-03-03T11:41:21Z</time>
      </trkpt>
      <trkpt lat="43.42105" lon="5.55724">
        <ele>356</ele>
        <time>2017-03-03T11:41:37Z</time>
      </trkpt>
      <trkpt lat="43.42111" lon="5.55722">
        <ele>356</ele>
        <time>2017-03-03T11:41:37Z</time>
      </trkpt>
      <trkpt lat="43.42115" lon="5.55721">
        <ele>356</ele>
        <time>2017-03-03T11:41:37Z</time>
      </trkpt>
      <trkpt lat="43.42119" lon="5.5572">
        <ele>356</ele>
        <time>2017-03-03T11:41:37Z</time>
      </trkpt>
      <trkpt lat="43.42124" lon="5.55719">
        <ele>356</ele>
        <time>2017-03-03T11:41:53Z</time>
      </trkpt>
      <trkpt lat="43.42132" lon="5.55716">
        <ele>348</ele>
        <time>2017-03-03T11:41:53Z</time>
      </trkpt>
      <trkpt lat="43.4214" lon="5.55712">
        <ele>348</ele>
        <time>2017-03-03T11:41:53Z</time>
      </trkpt>
      <trkpt lat="43.42143" lon="5.55711">
        <ele>348</ele>
        <time>2017-03-03T11:41:53Z</time>
      </trkpt>
      <trkpt lat="43.4215" lon="5.55706">
        <ele>348</ele>
        <time>2017-03-03T11:42:17Z</time>
      </trkpt>
      <trkpt lat="43.42151" lon="5.55705">
        <ele>348</ele>
        <time>2017-03-03T11:42:17Z</time>
      </trkpt>
      <trkpt lat="43.42152" lon="5.55707">
        <ele>348</ele>
        <time>2017-03-03T11:42:17Z</time>
      </trkpt>
      <trkpt lat="43.42154" lon="5.55714">
        <ele>348</ele>
        <time>2017-03-03T11:42:17Z</time>
      </trkpt>
      <trkpt lat="43.42155" lon="5.5572">
        <ele>348</ele>
        <time>2017-03-03T11:42:17Z</time>
      </trkpt>
      <trkpt lat="43.42154" lon="5.55726">
        <ele>348</ele>
        <time>2017-03-03T11:42:33Z</time>
      </trkpt>
      <trkpt lat="43.42152" lon="5.55732">
        <ele>348</ele>
        <time>2017-03-03T11:42:33Z</time>
      </trkpt>
      <trkpt lat="43.4215" lon="5.55735">
        <ele>348</ele>
        <time>2017-03-03T11:42:33Z</time>
      </trkpt>
      <trkpt lat="43.42148" lon="5.55743">
        <ele>348</ele>
        <time>2017-03-03T11:42:33Z</time>
      </trkpt>
      <trkpt lat="43.42146" lon="5.55748">
        <ele>348</ele>
        <time>2017-03-03T11:42:49Z</time>
      </trkpt>
      <trkpt lat="43.42145" lon="5.55753">
        <ele>348</ele>
        <time>2017-03-03T11:42:49Z</time>
      </trkpt>
      <trkpt lat="43.42144" lon="5.55759">
        <ele>348</ele>
        <time>2017-03-03T11:42:49Z</time>
      </trkpt>
      <trkpt lat="43.42142" lon="5.55765">
        <ele>348</ele>
        <time>2017-03-03T11:42:49Z</time>
      </trkpt>
      <trkpt lat="43.4214" lon="5.55773">
        <ele>348</ele>
        <time>2017-03-03T11:43:05Z</time>
      </trkpt>
      <trkpt lat="43.42139" lon="5.55777">
        <ele>348</ele>
        <time>2017-03-03T11:43:05Z</time>
      </trkpt>
      <trkpt lat="43.42136" lon="5.55785">
        <ele>348</ele>
        <time>2017-03-03T11:43:05Z</time>
      </trkpt>
      <trkpt lat="43.42132" lon="5.55792">
        <ele>346</ele>
        <time>2017-03-03T11:43:05Z</time>
      </trkpt>
      <trkpt lat="43.42127" lon="5.55796">
        <ele>346</ele>
        <time>2017-03-03T11:43:21Z</time>
      </trkpt>
      <trkpt lat="43.42124" lon="5.558">
        <ele>353</ele>
        <time>2017-03-03T11:43:21Z</time>
      </trkpt>
      <trkpt lat="43.42121" lon="5.55805">
        <ele>353</ele>
        <time>2017-03-03T11:43:21Z</time>
      </trkpt>
      <trkpt lat="43.42117" lon="5.55807">
        <ele>353</ele>
        <time>2017-03-03T11:43:21Z</time>
      </trkpt>
      <trkpt lat="43.42113" lon="5.55811">
        <ele>353</ele>
        <time>2017-03-03T11:43:37Z</time>
      </trkpt>
      <trkpt lat="43.42112" lon="5.55815">
        <ele>353</ele>
        <time>2017-03-03T11:43:37Z</time>
      </trkpt>
      <trkpt lat="43.42108" lon="5.5582">
        <ele>353</ele>
        <time>2017-03-03T11:43:37Z</time>
      </trkpt>
      <trkpt lat="43.42104" lon="5.55825">
        <ele>353</ele>
        <time>2017-03-03T11:43:37Z</time>
      </trkpt>
      <trkpt lat="43.42102" lon="5.55831">
        <ele>353</ele>
        <time>2017-03-03T11:43:53Z</time>
      </trkpt>
      <trkpt lat="43.42099" lon="5.55837">
        <ele>353</ele>
        <time>2017-03-03T11:43:53Z</time>
      </trkpt>
      <trkpt lat="43.421" lon="5.5584">
        <ele>353</ele>
        <time>2017-03-03T11:43:53Z</time>
      </trkpt>
      <trkpt lat="43.42101" lon="5.55844">
        <ele>353</ele>
        <time>2017-03-03T11:43:53Z</time>
      </trkpt>
      <trkpt lat="43.421" lon="5.55847">
        <ele>353</ele>
        <time>2017-03-03T11:44:09Z</time>
      </trkpt>
      <trkpt lat="43.421" lon="5.55852">
        <ele>353</ele>
        <time>2017-03-03T11:44:09Z</time>
      </trkpt>
      <trkpt lat="43.42103" lon="5.55858">
        <ele>353</ele>
        <time>2017-03-03T11:44:09Z</time>
      </trkpt>
      <trkpt lat="43.42105" lon="5.5586">
        <ele>353</ele>
        <time>2017-03-03T11:44:09Z</time>
      </trkpt>
      <trkpt lat="43.42109" lon="5.55861">
        <ele>353</ele>
        <time>2017-03-03T11:44:25Z</time>
      </trkpt>
      <trkpt lat="43.42114" lon="5.55864">
        <ele>353</ele>
        <time>2017-03-03T11:44:25Z</time>
      </trkpt>
      <trkpt lat="43.42118" lon="5.55866">
        <ele>353</ele>
        <time>2017-03-03T11:44:25Z</time>
      </trkpt>
      <trkpt lat="43.42122" lon="5.55868">
        <ele>353</ele>
        <time>2017-03-03T11:44:25Z</time>
      </trkpt>
      <trkpt lat="43.42126" lon="5.55869">
        <ele>346</ele>
        <time>2017-03-03T11:44:41Z</time>
      </trkpt>
      <trkpt lat="43.42131" lon="5.5587">
        <ele>346</ele>
        <time>2017-03-03T11:44:41Z</time>
      </trkpt>
      <trkpt lat="43.42137" lon="5.55868">
        <ele>346</ele>
        <time>2017-03-03T11:44:41Z</time>
      </trkpt>
      <trkpt lat="43.42144" lon="5.55863">
        <ele>346</ele>
        <time>2017-03-03T11:44:41Z</time>
      </trkpt>
      <trkpt lat="43.4215" lon="5.55858">
        <ele>346</ele>
        <time>2017-03-03T11:44:57Z</time>
      </trkpt>
      <trkpt lat="43.42155" lon="5.55854">
        <ele>346</ele>
        <time>2017-03-03T11:44:57Z</time>
      </trkpt>
      <trkpt lat="43.42159" lon="5.5585">
        <ele>346</ele>
        <time>2017-03-03T11:44:57Z</time>
      </trkpt>
      <trkpt lat="43.42163" lon="5.55846">
        <ele>346</ele>
        <time>2017-03-03T11:44:57Z</time>
      </trkpt>
      <trkpt lat="43.42166" lon="5.55842">
        <ele>346</ele>
        <time>2017-03-03T11:45:13Z</time>
      </trkpt>
      <trkpt lat="43.42169" lon="5.55838">
        <ele>346</ele>
        <time>2017-03-03T11:45:13Z</time>
      </trkpt>
      <trkpt lat="43.42172" lon="5.55833">
        <ele>346</ele>
        <time>2017-03-03T11:45:13Z</time>
      </trkpt>
      <trkpt lat="43.42174" lon="5.55829">
        <ele>346</ele>
        <time>2017-03-03T11:45:13Z</time>
      </trkpt>
      <trkpt lat="43.42178" lon="5.55824">
        <ele>346</ele>
        <time>2017-03-03T11:45:29Z</time>
      </trkpt>
      <trkpt lat="43.42181" lon="5.55823">
        <ele>346</ele>
        <time>2017-03-03T11:45:29Z</time>
      </trkpt>
      <trkpt lat="43.42184" lon="5.55817">
        <ele>346</ele>
        <time>2017-03-03T11:45:29Z</time>
      </trkpt>
      <trkpt lat="43.42185" lon="5.55814">
        <ele>346</ele>
        <time>2017-03-03T11:45:29Z</time>
      </trkpt>
      <trkpt lat="43.42188" lon="5.55813">
        <ele>346</ele>
        <time>2017-03-03T11:45:45Z</time>
      </trkpt>
      <trkpt lat="43.4219" lon="5.55812">
        <ele>346</ele>
        <time>2017-03-03T11:45:45Z</time>
      </trkpt>
      <trkpt lat="43.42194" lon="5.55807">
        <ele>346</ele>
        <time>2017-03-03T11:45:45Z</time>
      </trkpt>
      <trkpt lat="43.42198" lon="5.55803">
        <ele>346</ele>
        <time>2017-03-03T11:45:45Z</time>
      </trkpt>
      <trkpt lat="43.42199" lon="5.55799">
        <ele>346</ele>
        <time>2017-03-03T11:46:01Z</time>
      </trkpt>
      <trkpt lat="43.42201" lon="5.55795">
        <ele>346</ele>
        <time>2017-03-03T11:46:01Z</time>
      </trkpt>
      <trkpt lat="43.42204" lon="5.55791">
        <ele>348</ele>
        <time>2017-03-03T11:46:01Z</time>
      </trkpt>
      <trkpt lat="43.42206" lon="5.55786">
        <ele>348</ele>
        <time>2017-03-03T11:46:01Z</time>
      </trkpt>
      <trkpt lat="43.42209" lon="5.55781">
        <ele>345</ele>
        <time>2017-03-03T11:46:17Z</time>
      </trkpt>
      <trkpt lat="43.42212" lon="5.55777">
        <ele>345</ele>
        <time>2017-03-03T11:46:17Z</time>
      </trkpt>
      <trkpt lat="43.42215" lon="5.55772">
        <ele>345</ele>
        <time>2017-03-03T11:46:17Z</time>
      </trkpt>
      <trkpt lat="43.42219" lon="5.55766">
        <ele>345</ele>
        <time>2017-03-03T11:46:17Z</time>
      </trkpt>
      <trkpt lat="43.42221" lon="5.55762">
        <ele>345</ele>
        <time>2017-03-03T11:46:33Z</time>
      </trkpt>
      <trkpt lat="43.42221" lon="5.55757">
        <ele>345</ele>
        <time>2017-03-03T11:46:33Z</time>
      </trkpt>
      <trkpt lat="43.42223" lon="5.55755">
        <ele>345</ele>
        <time>2017-03-03T11:46:33Z</time>
      </trkpt>
      <trkpt lat="43.42227" lon="5.5575">
        <ele>345</ele>
        <time>2017-03-03T11:46:33Z</time>
      </trkpt>
      <trkpt lat="43.4223" lon="5.55748">
        <ele>345</ele>
        <time>2017-03-03T11:46:49Z</time>
      </trkpt>
      <trkpt lat="43.42234" lon="5.55743">
        <ele>345</ele>
        <time>2017-03-03T11:46:49Z</time>
      </trkpt>
      <trkpt lat="43.42235" lon="5.55739">
        <ele>345</ele>
        <time>2017-03-03T11:46:49Z</time>
      </trkpt>
      <trkpt lat="43.42238" lon="5.55733">
        <ele>345</ele>
        <time>2017-03-03T11:46:49Z</time>
      </trkpt>
      <trkpt lat="43.4224" lon="5.55728">
        <ele>345</ele>
        <time>2017-03-03T11:47:05Z</time>
      </trkpt>
      <trkpt lat="43.42242" lon="5.55723">
        <ele>345</ele>
        <time>2017-03-03T11:47:05Z</time>
      </trkpt>
      <trkpt lat="43.42246" lon="5.55719">
        <ele>345</ele>
        <time>2017-03-03T11:47:05Z</time>
      </trkpt>
      <trkpt lat="43.42249" lon="5.55714">
        <ele>345</ele>
        <time>2017-03-03T11:47:05Z</time>
      </trkpt>
      <trkpt lat="43.42253" lon="5.55709">
        <ele>345</ele>
        <time>2017-03-03T11:47:21Z</time>
      </trkpt>
      <trkpt lat="43.42257" lon="5.55706">
        <ele>340</ele>
        <time>2017-03-03T11:47:21Z</time>
      </trkpt>
      <trkpt lat="43.42261" lon="5.55703">
        <ele>340</ele>
        <time>2017-03-03T11:47:21Z</time>
      </trkpt>
      <trkpt lat="43.42265" lon="5.55699">
        <ele>340</ele>
        <time>2017-03-03T11:47:21Z</time>
      </trkpt>
      <trkpt lat="43.42268" lon="5.55697">
        <ele>340</ele>
        <time>2017-03-03T11:47:37Z</time>
      </trkpt>
      <trkpt lat="43.42273" lon="5.55694">
        <ele>340</ele>
        <time>2017-03-03T11:47:37Z</time>
      </trkpt>
      <trkpt lat="43.42275" lon="5.55691">
        <ele>340</ele>
        <time>2017-03-03T11:47:37Z</time>
      </trkpt>
      <trkpt lat="43.42278" lon="5.55686">
        <ele>340</ele>
        <time>2017-03-03T11:47:37Z</time>
      </trkpt>
      <trkpt lat="43.42276" lon="5.55679">
        <ele>340</ele>
        <time>2017-03-03T11:47:53Z</time>
      </trkpt>
      <trkpt lat="43.42277" lon="5.55673">
        <ele>340</ele>
        <time>2017-03-03T11:47:53Z</time>
      </trkpt>
      <trkpt lat="43.42279" lon="5.55668">
        <ele>340</ele>
        <time>2017-03-03T11:47:53Z</time>
      </trkpt>
      <trkpt lat="43.42281" lon="5.55664">
        <ele>340</ele>
        <time>2017-03-03T11:47:53Z</time>
      </trkpt>
      <trkpt lat="43.42283" lon="5.55661">
        <ele>340</ele>
        <time>2017-03-03T11:48:09Z</time>
      </trkpt>
      <trkpt lat="43.42285" lon="5.55655">
        <ele>340</ele>
        <time>2017-03-03T11:48:09Z</time>
      </trkpt>
      <trkpt lat="43.42287" lon="5.55652">
        <ele>340</ele>
        <time>2017-03-03T11:48:09Z</time>
      </trkpt>
      <trkpt lat="43.42292" lon="5.55647">
        <ele>339</ele>
        <time>2017-03-03T11:48:09Z</time>
      </trkpt>
      <trkpt lat="43.42297" lon="5.55642">
        <ele>339</ele>
        <time>2017-03-03T11:48:25Z</time>
      </trkpt>
      <trkpt lat="43.42301" lon="5.55636">
        <ele>339</ele>
        <time>2017-03-03T11:48:25Z</time>
      </trkpt>
      <trkpt lat="43.42306" lon="5.55631">
        <ele>339</ele>
        <time>2017-03-03T11:48:25Z</time>
      </trkpt>
      <trkpt lat="43.42309" lon="5.55626">
        <ele>339</ele>
        <time>2017-03-03T11:48:25Z</time>
      </trkpt>
      <trkpt lat="43.42312" lon="5.55623">
        <ele>331</ele>
        <time>2017-03-03T11:48:41Z</time>
      </trkpt>
      <trkpt lat="43.42315" lon="5.55619">
        <ele>331</ele>
        <time>2017-03-03T11:48:41Z</time>
      </trkpt>
      <trkpt lat="43.42317" lon="5.55614">
        <ele>331</ele>
        <time>2017-03-03T11:48:41Z</time>
      </trkpt>
      <trkpt lat="43.4232" lon="5.55611">
        <ele>331</ele>
        <time>2017-03-03T11:48:41Z</time>
      </trkpt>
      <trkpt lat="43.42315" lon="5.55615">
        <ele>331</ele>
        <time>2017-03-03T11:49:41Z</time>
      </trkpt>
      <trkpt lat="43.42316" lon="5.5561">
        <ele>331</ele>
        <time>2017-03-03T11:49:41Z</time>
      </trkpt>
      <trkpt lat="43.42318" lon="5.55606">
        <ele>331</ele>
        <time>2017-03-03T11:49:41Z</time>
      </trkpt>
      <trkpt lat="43.42321" lon="5.55603">
        <ele>331</ele>
        <time>2017-03-03T11:49:41Z</time>
      </trkpt>
      <trkpt lat="43.42324" lon="5.55601">
        <ele>331</ele>
        <time>2017-03-03T11:49:41Z</time>
      </trkpt>
      <trkpt lat="43.42328" lon="5.55598">
        <ele>331</ele>
        <time>2017-03-03T11:49:57Z</time>
      </trkpt>
      <trkpt lat="43.42332" lon="5.55594">
        <ele>331</ele>
        <time>2017-03-03T11:49:57Z</time>
      </trkpt>
      <trkpt lat="43.42336" lon="5.55589">
        <ele>331</ele>
        <time>2017-03-03T11:49:57Z</time>
      </trkpt>
      <trkpt lat="43.4234" lon="5.55582">
        <ele>331</ele>
        <time>2017-03-03T11:49:57Z</time>
      </trkpt>
      <trkpt lat="43.42343" lon="5.55578">
        <ele>331</ele>
        <time>2017-03-03T11:50:13Z</time>
      </trkpt>
      <trkpt lat="43.42346" lon="5.55573">
        <ele>331</ele>
        <time>2017-03-03T11:50:13Z</time>
      </trkpt>
      <trkpt lat="43.4235" lon="5.5557">
        <ele>331</ele>
        <time>2017-03-03T11:50:13Z</time>
      </trkpt>
      <trkpt lat="43.42352" lon="5.55563">
        <ele>331</ele>
        <time>2017-03-03T11:50:13Z</time>
      </trkpt>
      <trkpt lat="43.42355" lon="5.55558">
        <ele>331</ele>
        <time>2017-03-03T11:50:29Z</time>
      </trkpt>
      <trkpt lat="43.42358" lon="5.55554">
        <ele>331</ele>
        <time>2017-03-03T11:50:29Z</time>
      </trkpt>
      <trkpt lat="43.42361" lon="5.55549">
        <ele>331</ele>
        <time>2017-03-03T11:50:29Z</time>
      </trkpt>
      <trkpt lat="43.42364" lon="5.55546">
        <ele>331</ele>
        <time>2017-03-03T11:50:29Z</time>
      </trkpt>
      <trkpt lat="43.42368" lon="5.55541">
        <ele>326</ele>
        <time>2017-03-03T11:50:45Z</time>
      </trkpt>
      <trkpt lat="43.42369" lon="5.55539">
        <ele>326</ele>
        <time>2017-03-03T11:50:45Z</time>
      </trkpt>
      <trkpt lat="43.42372" lon="5.55531">
        <ele>326</ele>
        <time>2017-03-03T11:50:45Z</time>
      </trkpt>
      <trkpt lat="43.42374" lon="5.55526">
        <ele>326</ele>
        <time>2017-03-03T11:50:45Z</time>
      </trkpt>
      <trkpt lat="43.42376" lon="5.55523">
        <ele>327</ele>
        <time>2017-03-03T11:51:01Z</time>
      </trkpt>
      <trkpt lat="43.42379" lon="5.5552">
        <ele>327</ele>
        <time>2017-03-03T11:51:01Z</time>
      </trkpt>
      <trkpt lat="43.42381" lon="5.55513">
        <ele>327</ele>
        <time>2017-03-03T11:51:01Z</time>
      </trkpt>
      <trkpt lat="43.42384" lon="5.55508">
        <ele>327</ele>
        <time>2017-03-03T11:51:01Z</time>
      </trkpt>
      <trkpt lat="43.42387" lon="5.55503">
        <ele>327</ele>
        <time>2017-03-03T11:51:17Z</time>
      </trkpt>
      <trkpt lat="43.42389" lon="5.55501">
        <ele>327</ele>
        <time>2017-03-03T11:51:17Z</time>
      </trkpt>
      <trkpt lat="43.42391" lon="5.55496">
        <ele>327</ele>
        <time>2017-03-03T11:51:17Z</time>
      </trkpt>
      <trkpt lat="43.42393" lon="5.5549">
        <ele>327</ele>
        <time>2017-03-03T11:51:17Z</time>
      </trkpt>
      <trkpt lat="43.42394" lon="5.55484">
        <ele>327</ele>
        <time>2017-03-03T11:51:33Z</time>
      </trkpt>
      <trkpt lat="43.42394" lon="5.55479">
        <ele>327</ele>
        <time>2017-03-03T11:51:33Z</time>
      </trkpt>
      <trkpt lat="43.42395" lon="5.55474">
        <ele>327</ele>
        <time>2017-03-03T11:51:33Z</time>
      </trkpt>
      <trkpt lat="43.42397" lon="5.5547">
        <ele>327</ele>
        <time>2017-03-03T11:51:33Z</time>
      </trkpt>
      <trkpt lat="43.42397" lon="5.55467">
        <ele>327</ele>
        <time>2017-03-03T11:51:49Z</time>
      </trkpt>
      <trkpt lat="43.42398" lon="5.55462">
        <ele>327</ele>
        <time>2017-03-03T11:51:49Z</time>
      </trkpt>
      <trkpt lat="43.42398" lon="5.55455">
        <ele>320</ele>
        <time>2017-03-03T11:51:49Z</time>
      </trkpt>
      <trkpt lat="43.42398" lon="5.55446">
        <ele>320</ele>
        <time>2017-03-03T11:51:49Z</time>
      </trkpt>
      <trkpt lat="43.42398" lon="5.5544">
        <ele>320</ele>
        <time>2017-03-03T11:52:05Z</time>
      </trkpt>
      <trkpt lat="43.42397" lon="5.55433">
        <ele>320</ele>
        <time>2017-03-03T11:52:05Z</time>
      </trkpt>
      <trkpt lat="43.42397" lon="5.55428">
        <ele>320</ele>
        <time>2017-03-03T11:52:05Z</time>
      </trkpt>
      <trkpt lat="43.42398" lon="5.55425">
        <ele>320</ele>
        <time>2017-03-03T11:52:05Z</time>
      </trkpt>
      <trkpt lat="43.42395" lon="5.55418">
        <ele>320</ele>
        <time>2017-03-03T11:52:21Z</time>
      </trkpt>
      <trkpt lat="43.42396" lon="5.55412">
        <ele>320</ele>
        <time>2017-03-03T11:52:21Z</time>
      </trkpt>
      <trkpt lat="43.42397" lon="5.55409">
        <ele>320</ele>
        <time>2017-03-03T11:52:21Z</time>
      </trkpt>
      <trkpt lat="43.42398" lon="5.55403">
        <ele>320</ele>
        <time>2017-03-03T11:52:21Z</time>
      </trkpt>
      <trkpt lat="43.424" lon="5.55392">
        <ele>320</ele>
        <time>2017-03-03T11:52:37Z</time>
      </trkpt>
      <trkpt lat="43.42403" lon="5.55389">
        <ele>320</ele>
        <time>2017-03-03T11:52:37Z</time>
      </trkpt>
      <trkpt lat="43.42404" lon="5.55385">
        <ele>320</ele>
        <time>2017-03-03T11:52:37Z</time>
      </trkpt>
      <trkpt lat="43.42405" lon="5.55378">
        <ele>320</ele>
        <time>2017-03-03T11:52:37Z</time>
      </trkpt>
      <trkpt lat="43.42408" lon="5.55374">
        <ele>316</ele>
        <time>2017-03-03T11:52:53Z</time>
      </trkpt>
      <trkpt lat="43.42408" lon="5.55369">
        <ele>316</ele>
        <time>2017-03-03T11:52:53Z</time>
      </trkpt>
      <trkpt lat="43.42406" lon="5.55362">
        <ele>316</ele>
        <time>2017-03-03T11:52:53Z</time>
      </trkpt>
      <trkpt lat="43.42402" lon="5.55357">
        <ele>316</ele>
        <time>2017-03-03T11:52:53Z</time>
      </trkpt>
      <trkpt lat="43.42402" lon="5.55353">
        <ele>316</ele>
        <time>2017-03-03T11:53:13Z</time>
      </trkpt>
      <trkpt lat="43.42402" lon="5.55348">
        <ele>316</ele>
        <time>2017-03-03T11:53:13Z</time>
      </trkpt>
      <trkpt lat="43.42405" lon="5.55345">
        <ele>316</ele>
        <time>2017-03-03T11:53:13Z</time>
      </trkpt>
      <trkpt lat="43.42406" lon="5.55344">
        <ele>316</ele>
        <time>2017-03-03T11:53:13Z</time>
      </trkpt>
      <trkpt lat="43.4241" lon="5.55342">
        <ele>316</ele>
        <time>2017-03-03T11:53:13Z</time>
      </trkpt>
      <trkpt lat="43.42415" lon="5.5534">
        <ele>316</ele>
        <time>2017-03-03T11:53:29Z</time>
      </trkpt>
      <trkpt lat="43.42418" lon="5.5534">
        <ele>316</ele>
        <time>2017-03-03T11:53:29Z</time>
      </trkpt>
      <trkpt lat="43.42422" lon="5.55341">
        <ele>316</ele>
        <time>2017-03-03T11:53:29Z</time>
      </trkpt>
      <trkpt lat="43.42424" lon="5.55342">
        <ele>316</ele>
        <time>2017-03-03T11:53:29Z</time>
      </trkpt>
      <trkpt lat="43.42428" lon="5.55341">
        <ele>316</ele>
        <time>2017-03-03T11:53:53Z</time>
      </trkpt>
      <trkpt lat="43.42429" lon="5.5534">
        <ele>316</ele>
        <time>2017-03-03T11:53:53Z</time>
      </trkpt>
      <trkpt lat="43.42429" lon="5.55339">
        <ele>316</ele>
        <time>2017-03-03T11:53:53Z</time>
      </trkpt>
      <trkpt lat="43.42428" lon="5.55334">
        <ele>316</ele>
        <time>2017-03-03T11:53:53Z</time>
      </trkpt>
      <trkpt lat="43.42428" lon="5.55329">
        <ele>316</ele>
        <time>2017-03-03T11:53:53Z</time>
      </trkpt>
      <trkpt lat="43.42428" lon="5.55326">
        <ele>316</ele>
        <time>2017-03-03T11:54:13Z</time>
      </trkpt>
      <trkpt lat="43.4243" lon="5.55324">
        <ele>316</ele>
        <time>2017-03-03T11:54:13Z</time>
      </trkpt>
      <trkpt lat="43.42431" lon="5.55321">
        <ele>316</ele>
        <time>2017-03-03T11:54:13Z</time>
      </trkpt>
      <trkpt lat="43.42432" lon="5.5532">
        <ele>316</ele>
        <time>2017-03-03T11:54:13Z</time>
      </trkpt>
      <trkpt lat="43.42435" lon="5.55315">
        <ele>316</ele>
        <time>2017-03-03T11:54:13Z</time>
      </trkpt>
      <trkpt lat="43.42437" lon="5.5531">
        <ele>316</ele>
        <time>2017-03-03T11:54:33Z</time>
      </trkpt>
      <trkpt lat="43.4244" lon="5.55307">
        <ele>316</ele>
        <time>2017-03-03T11:54:33Z</time>
      </trkpt>
      <trkpt lat="43.42441" lon="5.55307">
        <ele>316</ele>
        <time>2017-03-03T11:54:33Z</time>
      </trkpt>
      <trkpt lat="43.42441" lon="5.55307">
        <ele>316</ele>
        <time>2017-03-03T11:54:33Z</time>
      </trkpt>
      <trkpt lat="43.42445" lon="5.55306">
        <ele>316</ele>
        <time>2017-03-03T11:54:33Z</time>
      </trkpt>
      <trkpt lat="43.4245" lon="5.55304">
        <ele>316</ele>
        <time>2017-03-03T11:54:49Z</time>
      </trkpt>
      <trkpt lat="43.42452" lon="5.55298">
        <ele>316</ele>
        <time>2017-03-03T11:54:49Z</time>
      </trkpt>
      <trkpt lat="43.42455" lon="5.55294">
        <ele>316</ele>
        <time>2017-03-03T11:54:49Z</time>
      </trkpt>
      <trkpt lat="43.42459" lon="5.5529">
        <ele>318</ele>
        <time>2017-03-03T11:54:49Z</time>
      </trkpt>
      <trkpt lat="43.42461" lon="5.55288">
        <ele>318</ele>
        <time>2017-03-03T11:55:05Z</time>
      </trkpt>
      <trkpt lat="43.42464" lon="5.55283">
        <ele>318</ele>
        <time>2017-03-03T11:55:05Z</time>
      </trkpt>
      <trkpt lat="43.42466" lon="5.55278">
        <ele>318</ele>
        <time>2017-03-03T11:55:05Z</time>
      </trkpt>
      <trkpt lat="43.42468" lon="5.55274">
        <ele>318</ele>
        <time>2017-03-03T11:55:05Z</time>
      </trkpt>
      <trkpt lat="43.4247" lon="5.55268">
        <ele>318</ele>
        <time>2017-03-03T11:55:21Z</time>
      </trkpt>
      <trkpt lat="43.42473" lon="5.55266">
        <ele>318</ele>
        <time>2017-03-03T11:55:21Z</time>
      </trkpt>
      <trkpt lat="43.42475" lon="5.55264">
        <ele>318</ele>
        <time>2017-03-03T11:55:21Z</time>
      </trkpt>
      <trkpt lat="43.42476" lon="5.55259">
        <ele>318</ele>
        <time>2017-03-03T11:55:21Z</time>
      </trkpt>
      <trkpt lat="43.42477" lon="5.55254">
        <ele>318</ele>
        <time>2017-03-03T11:55:37Z</time>
      </trkpt>
      <trkpt lat="43.42478" lon="5.55249">
        <ele>318</ele>
        <time>2017-03-03T11:55:37Z</time>
      </trkpt>
      <trkpt lat="43.42478" lon="5.55242">
        <ele>318</ele>
        <time>2017-03-03T11:55:37Z</time>
      </trkpt>
      <trkpt lat="43.42476" lon="5.55239">
        <ele>318</ele>
        <time>2017-03-03T11:55:37Z</time>
      </trkpt>
      <trkpt lat="43.42475" lon="5.55235">
        <ele>318</ele>
        <time>2017-03-03T11:55:53Z</time>
      </trkpt>
      <trkpt lat="43.42476" lon="5.55229">
        <ele>318</ele>
        <time>2017-03-03T11:55:53Z</time>
      </trkpt>
      <trkpt lat="43.4248" lon="5.55226">
        <ele>318</ele>
        <time>2017-03-03T11:55:53Z</time>
      </trkpt>
      <trkpt lat="43.42481" lon="5.55224">
        <ele>318</ele>
        <time>2017-03-03T11:55:53Z</time>
      </trkpt>
      <trkpt lat="43.42481" lon="5.55222">
        <ele>318</ele>
        <time>2017-03-03T11:56:09Z</time>
      </trkpt>
      <trkpt lat="43.42486" lon="5.55218">
        <ele>318</ele>
        <time>2017-03-03T11:56:09Z</time>
      </trkpt>
      <trkpt lat="43.42484" lon="5.55207">
        <ele>328</ele>
        <time>2017-03-03T11:56:09Z</time>
      </trkpt>
      <trkpt lat="43.42484" lon="5.55205">
        <ele>328</ele>
        <time>2017-03-03T11:56:09Z</time>
      </trkpt>
      <trkpt lat="43.42485" lon="5.55201">
        <ele>328</ele>
        <time>2017-03-03T11:56:29Z</time>
      </trkpt>
      <trkpt lat="43.42484" lon="5.55199">
        <ele>328</ele>
        <time>2017-03-03T11:56:29Z</time>
      </trkpt>
      <trkpt lat="43.42483" lon="5.55197">
        <ele>328</ele>
        <time>2017-03-03T11:56:29Z</time>
      </trkpt>
      <trkpt lat="43.42484" lon="5.55191">
        <ele>328</ele>
        <time>2017-03-03T11:56:29Z</time>
      </trkpt>
      <trkpt lat="43.42485" lon="5.55186">
        <ele>328</ele>
        <time>2017-03-03T11:56:29Z</time>
      </trkpt>
      <trkpt lat="43.42491" lon="5.55183">
        <ele>328</ele>
        <time>2017-03-03T11:56:53Z</time>
      </trkpt>
      <trkpt lat="43.42491" lon="5.55177">
        <ele>328</ele>
        <time>2017-03-03T11:56:53Z</time>
      </trkpt>
      <trkpt lat="43.4249" lon="5.55176">
        <ele>328</ele>
        <time>2017-03-03T11:56:53Z</time>
      </trkpt>
      <trkpt lat="43.4249" lon="5.55173">
        <ele>328</ele>
        <time>2017-03-03T11:56:53Z</time>
      </trkpt>
      <trkpt lat="43.42489" lon="5.55169">
        <ele>328</ele>
        <time>2017-03-03T11:56:53Z</time>
      </trkpt>
      <trkpt lat="43.4249" lon="5.55166">
        <ele>328</ele>
        <time>2017-03-03T11:57:09Z</time>
      </trkpt>
      <trkpt lat="43.42491" lon="5.55162">
        <ele>328</ele>
        <time>2017-03-03T11:57:09Z</time>
      </trkpt>
      <trkpt lat="43.4249" lon="5.55157">
        <ele>328</ele>
        <time>2017-03-03T11:57:09Z</time>
      </trkpt>
      <trkpt lat="43.4249" lon="5.55152">
        <ele>328</ele>
        <time>2017-03-03T11:57:09Z</time>
      </trkpt>
      <trkpt lat="43.42492" lon="5.55148">
        <ele>328</ele>
        <time>2017-03-03T11:57:29Z</time>
      </trkpt>
      <trkpt lat="43.42493" lon="5.55144">
        <ele>328</ele>
        <time>2017-03-03T11:57:29Z</time>
      </trkpt>
      <trkpt lat="43.42494" lon="5.55142">
        <ele>328</ele>
        <time>2017-03-03T11:57:29Z</time>
      </trkpt>
      <trkpt lat="43.42495" lon="5.55138">
        <ele>328</ele>
        <time>2017-03-03T11:57:29Z</time>
      </trkpt>
      <trkpt lat="43.42497" lon="5.55134">
        <ele>328</ele>
        <time>2017-03-03T11:57:29Z</time>
      </trkpt>
      <trkpt lat="43.42501" lon="5.5512">
        <ele>332</ele>
        <time>2017-03-03T11:57:57Z</time>
      </trkpt>
      <trkpt lat="43.42502" lon="5.55119">
        <ele>332</ele>
        <time>2017-03-03T11:57:57Z</time>
      </trkpt>
      <trkpt lat="43.42501" lon="5.55117">
        <ele>332</ele>
        <time>2017-03-03T11:57:57Z</time>
      </trkpt>
      <trkpt lat="43.42502" lon="5.55117">
        <ele>332</ele>
        <time>2017-03-03T11:57:57Z</time>
      </trkpt>
      <trkpt lat="43.42505" lon="5.55115">
        <ele>332</ele>
        <time>2017-03-03T11:57:57Z</time>
      </trkpt>
      <trkpt lat="43.42509" lon="5.55111">
        <ele>332</ele>
        <time>2017-03-03T11:58:13Z</time>
      </trkpt>
      <trkpt lat="43.42512" lon="5.55109">
        <ele>332</ele>
        <time>2017-03-03T11:58:13Z</time>
      </trkpt>
      <trkpt lat="43.42517" lon="5.55106">
        <ele>332</ele>
        <time>2017-03-03T11:58:13Z</time>
      </trkpt>
      <trkpt lat="43.42521" lon="5.55104">
        <ele>332</ele>
        <time>2017-03-03T11:58:13Z</time>
      </trkpt>
      <trkpt lat="43.42523" lon="5.55104">
        <ele>332</ele>
        <time>2017-03-03T11:58:33Z</time>
      </trkpt>
      <trkpt lat="43.42524" lon="5.55105">
        <ele>332</ele>
        <time>2017-03-03T11:58:33Z</time>
      </trkpt>
      <trkpt lat="43.42526" lon="5.55105">
        <ele>332</ele>
        <time>2017-03-03T11:58:33Z</time>
      </trkpt>
      <trkpt lat="43.4253" lon="5.55105">
        <ele>332</ele>
        <time>2017-03-03T11:58:33Z</time>
      </trkpt>
      <trkpt lat="43.42533" lon="5.55104">
        <ele>332</ele>
        <time>2017-03-03T11:58:33Z</time>
      </trkpt>
      <trkpt lat="43.42537" lon="5.55104">
        <ele>332</ele>
        <time>2017-03-03T11:58:49Z</time>
      </trkpt>
      <trkpt lat="43.42541" lon="5.55106">
        <ele>332</ele>
        <time>2017-03-03T11:58:49Z</time>
      </trkpt>
      <trkpt lat="43.42543" lon="5.55107">
        <ele>333</ele>
        <time>2017-03-03T11:58:49Z</time>
      </trkpt>
      <trkpt lat="43.42548" lon="5.5511">
        <ele>333</ele>
        <time>2017-03-03T11:58:49Z</time>
      </trkpt>
      <trkpt lat="43.42551" lon="5.55113">
        <ele>333</ele>
        <time>2017-03-03T11:59:05Z</time>
      </trkpt>
      <trkpt lat="43.42555" lon="5.55115">
        <ele>333</ele>
        <time>2017-03-03T11:59:05Z</time>
      </trkpt>
      <trkpt lat="43.42559" lon="5.55116">
        <ele>333</ele>
        <time>2017-03-03T11:59:05Z</time>
      </trkpt>
      <trkpt lat="43.42564" lon="5.55118">
        <ele>333</ele>
        <time>2017-03-03T11:59:05Z</time>
      </trkpt>
      <trkpt lat="43.42568" lon="5.5512">
        <ele>333</ele>
        <time>2017-03-03T11:59:21Z</time>
      </trkpt>
      <trkpt lat="43.42573" lon="5.55124">
        <ele>333</ele>
        <time>2017-03-03T11:59:21Z</time>
      </trkpt>
      <trkpt lat="43.42577" lon="5.55128">
        <ele>331</ele>
        <time>2017-03-03T11:59:21Z</time>
      </trkpt>
      <trkpt lat="43.42581" lon="5.5513">
        <ele>331</ele>
        <time>2017-03-03T11:59:21Z</time>
      </trkpt>
      <trkpt lat="43.42583" lon="5.55131">
        <ele>331</ele>
        <time>2017-03-03T11:59:37Z</time>
      </trkpt>
      <trkpt lat="43.42585" lon="5.55131">
        <ele>331</ele>
        <time>2017-03-03T11:59:37Z</time>
      </trkpt>
      <trkpt lat="43.4259" lon="5.55131">
        <ele>331</ele>
        <time>2017-03-03T11:59:37Z</time>
      </trkpt>
      <trkpt lat="43.42595" lon="5.55131">
        <ele>331</ele>
        <time>2017-03-03T11:59:37Z</time>
      </trkpt>
      <trkpt lat="43.42598" lon="5.55133">
        <ele>331</ele>
        <time>2017-03-03T11:59:53Z</time>
      </trkpt>
      <trkpt lat="43.42601" lon="5.55135">
        <ele>331</ele>
        <time>2017-03-03T11:59:53Z</time>
      </trkpt>
      <trkpt lat="43.42606" lon="5.55136">
        <ele>331</ele>
        <time>2017-03-03T11:59:53Z</time>
      </trkpt>
      <trkpt lat="43.42611" lon="5.55137">
        <ele>331</ele>
        <time>2017-03-03T11:59:53Z</time>
      </trkpt>
      <trkpt lat="43.42614" lon="5.55139">
        <ele>331</ele>
        <time>2017-03-03T12:00:09Z</time>
      </trkpt>
      <trkpt lat="43.42618" lon="5.55139">
        <ele>331</ele>
        <time>2017-03-03T12:00:09Z</time>
      </trkpt>
      <trkpt lat="43.42621" lon="5.55139">
        <ele>331</ele>
        <time>2017-03-03T12:00:09Z</time>
      </trkpt>
      <trkpt lat="43.42626" lon="5.55139">
        <ele>330</ele>
        <time>2017-03-03T12:00:09Z</time>
      </trkpt>
      <trkpt lat="43.4263" lon="5.5514">
        <ele>330</ele>
        <time>2017-03-03T12:00:29Z</time>
      </trkpt>
      <trkpt lat="43.42631" lon="5.55142">
        <ele>330</ele>
        <time>2017-03-03T12:00:29Z</time>
      </trkpt>
      <trkpt lat="43.42632" lon="5.55143">
        <ele>330</ele>
        <time>2017-03-03T12:00:29Z</time>
      </trkpt>
      <trkpt lat="43.42637" lon="5.55143">
        <ele>330</ele>
        <time>2017-03-03T12:00:29Z</time>
      </trkpt>
      <trkpt lat="43.42643" lon="5.55144">
        <ele>330</ele>
        <time>2017-03-03T12:00:29Z</time>
      </trkpt>
      <trkpt lat="43.42644" lon="5.55146">
        <ele>330</ele>
        <time>2017-03-03T12:00:45Z</time>
      </trkpt>
      <trkpt lat="43.42647" lon="5.55143">
        <ele>330</ele>
        <time>2017-03-03T12:00:45Z</time>
      </trkpt>
      <trkpt lat="43.42651" lon="5.55147">
        <ele>330</ele>
        <time>2017-03-03T12:00:45Z</time>
      </trkpt>
      <trkpt lat="43.42654" lon="5.55148">
        <ele>330</ele>
        <time>2017-03-03T12:00:45Z</time>
      </trkpt>
      <trkpt lat="43.42657" lon="5.55148">
        <ele>330</ele>
        <time>2017-03-03T12:01:01Z</time>
      </trkpt>
      <trkpt lat="43.42663" lon="5.5515">
        <ele>330</ele>
        <time>2017-03-03T12:01:01Z</time>
      </trkpt>
      <trkpt lat="43.42672" lon="5.55151">
        <ele>330</ele>
        <time>2017-03-03T12:01:01Z</time>
      </trkpt>
      <trkpt lat="43.42676" lon="5.55151">
        <ele>330</ele>
        <time>2017-03-03T12:01:01Z</time>
      </trkpt>
      <trkpt lat="43.4268" lon="5.55152">
        <ele>330</ele>
        <time>2017-03-03T12:01:17Z</time>
      </trkpt>
      <trkpt lat="43.42683" lon="5.55153">
        <ele>330</ele>
        <time>2017-03-03T12:01:17Z</time>
      </trkpt>
      <trkpt lat="43.42686" lon="5.55153">
        <ele>330</ele>
        <time>2017-03-03T12:01:17Z</time>
      </trkpt>
      <trkpt lat="43.4269" lon="5.55152">
        <ele>330</ele>
        <time>2017-03-03T12:01:17Z</time>
      </trkpt>
      <trkpt lat="43.42696" lon="5.5515">
        <ele>330</ele>
        <time>2017-03-03T12:01:33Z</time>
      </trkpt>
      <trkpt lat="43.42699" lon="5.5515">
        <ele>330</ele>
        <time>2017-03-03T12:01:33Z</time>
      </trkpt>
      <trkpt lat="43.42704" lon="5.55151">
        <ele>330</ele>
        <time>2017-03-03T12:01:33Z</time>
      </trkpt>
      <trkpt lat="43.42707" lon="5.55153">
        <ele>330</ele>
        <time>2017-03-03T12:01:33Z</time>
      </trkpt>
      <trkpt lat="43.4271" lon="5.55154">
        <ele>326</ele>
        <time>2017-03-03T12:01:49Z</time>
      </trkpt>
      <trkpt lat="43.42715" lon="5.55155">
        <ele>326</ele>
        <time>2017-03-03T12:01:49Z</time>
      </trkpt>
      <trkpt lat="43.42717" lon="5.55157">
        <ele>326</ele>
        <time>2017-03-03T12:01:49Z</time>
      </trkpt>
      <trkpt lat="43.42719" lon="5.55156">
        <ele>326</ele>
        <time>2017-03-03T12:01:49Z</time>
      </trkpt>
      <trkpt lat="43.42723" lon="5.55158">
        <ele>326</ele>
        <time>2017-03-03T12:02:05Z</time>
      </trkpt>
      <trkpt lat="43.42724" lon="5.55158">
        <ele>326</ele>
        <time>2017-03-03T12:02:05Z</time>
      </trkpt>
      <trkpt lat="43.42729" lon="5.55159">
        <ele>326</ele>
        <time>2017-03-03T12:02:05Z</time>
      </trkpt>
      <trkpt lat="43.42734" lon="5.55161">
        <ele>326</ele>
        <time>2017-03-03T12:02:05Z</time>
      </trkpt>
      <trkpt lat="43.42741" lon="5.55163">
        <ele>326</ele>
        <time>2017-03-03T12:02:21Z</time>
      </trkpt>
      <trkpt lat="43.42746" lon="5.55165">
        <ele>326</ele>
        <time>2017-03-03T12:02:21Z</time>
      </trkpt>
      <trkpt lat="43.42751" lon="5.55165">
        <ele>326</ele>
        <time>2017-03-03T12:02:21Z</time>
      </trkpt>
      <trkpt lat="43.42754" lon="5.55166">
        <ele>326</ele>
        <time>2017-03-03T12:02:21Z</time>
      </trkpt>
      <trkpt lat="43.42757" lon="5.55166">
        <ele>326</ele>
        <time>2017-03-03T12:02:37Z</time>
      </trkpt>
      <trkpt lat="43.4276" lon="5.55166">
        <ele>326</ele>
        <time>2017-03-03T12:02:37Z</time>
      </trkpt>
      <trkpt lat="43.42765" lon="5.55167">
        <ele>326</ele>
        <time>2017-03-03T12:02:37Z</time>
      </trkpt>
      <trkpt lat="43.42771" lon="5.55169">
        <ele>326</ele>
        <time>2017-03-03T12:02:37Z</time>
      </trkpt>
      <trkpt lat="43.42777" lon="5.5517">
        <ele>326</ele>
        <time>2017-03-03T12:02:53Z</time>
      </trkpt>
      <trkpt lat="43.42782" lon="5.55167">
        <ele>326</ele>
        <time>2017-03-03T12:02:53Z</time>
      </trkpt>
      <trkpt lat="43.42786" lon="5.55167">
        <ele>326</ele>
        <time>2017-03-03T12:02:53Z</time>
      </trkpt>
      <trkpt lat="43.42791" lon="5.55167">
        <ele>326</ele>
        <time>2017-03-03T12:02:53Z</time>
      </trkpt>
      <trkpt lat="43.42797" lon="5.55168">
        <ele>322</ele>
        <time>2017-03-03T12:03:09Z</time>
      </trkpt>
      <trkpt lat="43.42801" lon="5.55168">
        <ele>322</ele>
        <time>2017-03-03T12:03:09Z</time>
      </trkpt>
      <trkpt lat="43.42806" lon="5.55167">
        <ele>322</ele>
        <time>2017-03-03T12:03:09Z</time>
      </trkpt>
      <trkpt lat="43.42811" lon="5.55166">
        <ele>322</ele>
        <time>2017-03-03T12:03:09Z</time>
      </trkpt>
      <trkpt lat="43.42817" lon="5.55167">
        <ele>322</ele>
        <time>2017-03-03T12:03:25Z</time>
      </trkpt>
      <trkpt lat="43.42822" lon="5.55167">
        <ele>322</ele>
        <time>2017-03-03T12:03:25Z</time>
      </trkpt>
      <trkpt lat="43.42826" lon="5.55166">
        <ele>322</ele>
        <time>2017-03-03T12:03:25Z</time>
      </trkpt>
      <trkpt lat="43.42832" lon="5.5516">
        <ele>322</ele>
        <time>2017-03-03T12:03:25Z</time>
      </trkpt>
      <trkpt lat="43.42837" lon="5.55155">
        <ele>322</ele>
        <time>2017-03-03T12:03:41Z</time>
      </trkpt>
      <trkpt lat="43.42841" lon="5.55153">
        <ele>322</ele>
        <time>2017-03-03T12:03:41Z</time>
      </trkpt>
      <trkpt lat="43.42845" lon="5.55151">
        <ele>322</ele>
        <time>2017-03-03T12:03:41Z</time>
      </trkpt>
      <trkpt lat="43.42852" lon="5.55148">
        <ele>322</ele>
        <time>2017-03-03T12:03:41Z</time>
      </trkpt>
      <trkpt lat="43.42856" lon="5.55147">
        <ele>322</ele>
        <time>2017-03-03T12:03:57Z</time>
      </trkpt>
      <trkpt lat="43.42859" lon="5.55147">
        <ele>322</ele>
        <time>2017-03-03T12:03:57Z</time>
      </trkpt>
      <trkpt lat="43.42863" lon="5.55146">
        <ele>322</ele>
        <time>2017-03-03T12:03:57Z</time>
      </trkpt>
      <trkpt lat="43.42866" lon="5.55144">
        <ele>322</ele>
        <time>2017-03-03T12:03:57Z</time>
      </trkpt>
      <trkpt lat="43.42869" lon="5.55143">
        <ele>322</ele>
        <time>2017-03-03T12:04:13Z</time>
      </trkpt>
      <trkpt lat="43.42874" lon="5.55142">
        <ele>322</ele>
        <time>2017-03-03T12:04:13Z</time>
      </trkpt>
      <trkpt lat="43.42878" lon="5.55142">
        <ele>321</ele>
        <time>2017-03-03T12:04:13Z</time>
      </trkpt>
      <trkpt lat="43.42883" lon="5.55141">
        <ele>321</ele>
        <time>2017-03-03T12:04:13Z</time>
      </trkpt>
      <trkpt lat="43.42888" lon="5.5514">
        <ele>321</ele>
        <time>2017-03-03T12:04:29Z</time>
      </trkpt>
      <trkpt lat="43.42893" lon="5.55138">
        <ele>321</ele>
        <time>2017-03-03T12:04:29Z</time>
      </trkpt>
      <trkpt lat="43.42894" lon="5.55138">
        <ele>321</ele>
        <time>2017-03-03T12:04:29Z</time>
      </trkpt>
      <trkpt lat="43.42897" lon="5.55134">
        <ele>321</ele>
        <time>2017-03-03T12:04:29Z</time>
      </trkpt>
      <trkpt lat="43.42901" lon="5.55133">
        <ele>321</ele>
        <time>2017-03-03T12:04:45Z</time>
      </trkpt>
      <trkpt lat="43.42904" lon="5.55131">
        <ele>321</ele>
        <time>2017-03-03T12:04:45Z</time>
      </trkpt>
      <trkpt lat="43.42907" lon="5.55129">
        <ele>321</ele>
        <time>2017-03-03T12:04:45Z</time>
      </trkpt>
      <trkpt lat="43.4291" lon="5.55128">
        <ele>321</ele>
        <time>2017-03-03T12:04:45Z</time>
      </trkpt>
      <trkpt lat="43.42914" lon="5.55125">
        <ele>318</ele>
        <time>2017-03-03T12:05:01Z</time>
      </trkpt>
      <trkpt lat="43.42918" lon="5.55124">
        <ele>318</ele>
        <time>2017-03-03T12:05:01Z</time>
      </trkpt>
      <trkpt lat="43.4292" lon="5.55121">
        <ele>318</ele>
        <time>2017-03-03T12:05:01Z</time>
      </trkpt>
      <trkpt lat="43.42923" lon="5.55117">
        <ele>318</ele>
        <time>2017-03-03T12:05:01Z</time>
      </trkpt>
      <trkpt lat="43.42925" lon="5.55113">
        <ele>318</ele>
        <time>2017-03-03T12:05:17Z</time>
      </trkpt>
      <trkpt lat="43.42928" lon="5.55113">
        <ele>318</ele>
        <time>2017-03-03T12:05:17Z</time>
      </trkpt>
      <trkpt lat="43.42933" lon="5.55111">
        <ele>318</ele>
        <time>2017-03-03T12:05:17Z</time>
      </trkpt>
      <trkpt lat="43.42942" lon="5.55102">
        <ele>318</ele>
        <time>2017-03-03T12:05:17Z</time>
      </trkpt>
      <trkpt lat="43.42947" lon="5.55098">
        <ele>318</ele>
        <time>2017-03-03T12:05:33Z</time>
      </trkpt>
      <trkpt lat="43.4295" lon="5.55097">
        <ele>318</ele>
        <time>2017-03-03T12:05:33Z</time>
      </trkpt>
      <trkpt lat="43.42953" lon="5.55095">
        <ele>318</ele>
        <time>2017-03-03T12:05:33Z</time>
      </trkpt>
      <trkpt lat="43.42957" lon="5.55093">
        <ele>318</ele>
        <time>2017-03-03T12:05:33Z</time>
      </trkpt>
      <trkpt lat="43.42962" lon="5.55094">
        <ele>314</ele>
        <time>2017-03-03T12:05:49Z</time>
      </trkpt>
      <trkpt lat="43.42967" lon="5.55095">
        <ele>314</ele>
        <time>2017-03-03T12:05:49Z</time>
      </trkpt>
      <trkpt lat="43.42971" lon="5.55102">
        <ele>314</ele>
        <time>2017-03-03T12:05:49Z</time>
      </trkpt>
      <trkpt lat="43.42972" lon="5.55103">
        <ele>314</ele>
        <time>2017-03-03T12:05:49Z</time>
      </trkpt>
      <trkpt lat="43.42974" lon="5.55107">
        <ele>314</ele>
        <time>2017-03-03T12:06:05Z</time>
      </trkpt>
      <trkpt lat="43.42979" lon="5.55109">
        <ele>314</ele>
        <time>2017-03-03T12:06:05Z</time>
      </trkpt>
      <trkpt lat="43.4298" lon="5.55106">
        <ele>314</ele>
        <time>2017-03-03T12:06:05Z</time>
      </trkpt>
      <trkpt lat="43.42983" lon="5.551">
        <ele>314</ele>
        <time>2017-03-03T12:06:05Z</time>
      </trkpt>
      <trkpt lat="43.42985" lon="5.55095">
        <ele>314</ele>
        <time>2017-03-03T12:06:21Z</time>
      </trkpt>
      <trkpt lat="43.42987" lon="5.55089">
        <ele>314</ele>
        <time>2017-03-03T12:06:21Z</time>
      </trkpt>
      <trkpt lat="43.42988" lon="5.55085">
        <ele>314</ele>
        <time>2017-03-03T12:06:21Z</time>
      </trkpt>
      <trkpt lat="43.42988" lon="5.55081">
        <ele>314</ele>
        <time>2017-03-03T12:06:21Z</time>
      </trkpt>
      <trkpt lat="43.42987" lon="5.55076">
        <ele>314</ele>
        <time>2017-03-03T12:06:41Z</time>
      </trkpt>
      <trkpt lat="43.42986" lon="5.55072">
        <ele>314</ele>
        <time>2017-03-03T12:06:41Z</time>
      </trkpt>
      <trkpt lat="43.42984" lon="5.55068">
        <ele>314</ele>
        <time>2017-03-03T12:06:41Z</time>
      </trkpt>
      <trkpt lat="43.42982" lon="5.55069">
        <ele>314</ele>
        <time>2017-03-03T12:06:41Z</time>
      </trkpt>
      <trkpt lat="43.4298" lon="5.55066">
        <ele>314</ele>
        <time>2017-03-03T12:06:41Z</time>
      </trkpt>
      <trkpt lat="43.42973" lon="5.55057">
        <ele>314</ele>
        <time>2017-03-03T12:07:09Z</time>
      </trkpt>
      <trkpt lat="43.42974" lon="5.55056">
        <ele>314</ele>
        <time>2017-03-03T12:07:09Z</time>
      </trkpt>
      <trkpt lat="43.4297" lon="5.55059">
        <ele>314</ele>
        <time>2017-03-03T12:07:09Z</time>
      </trkpt>
      <trkpt lat="43.42969" lon="5.55056">
        <ele>314</ele>
        <time>2017-03-03T12:07:09Z</time>
      </trkpt>
      <trkpt lat="43.42969" lon="5.55055">
        <ele>314</ele>
        <time>2017-03-03T12:07:09Z</time>
      </trkpt>
      <trkpt lat="43.42968" lon="5.55051">
        <ele>314</ele>
        <time>2017-03-03T12:07:25Z</time>
      </trkpt>
      <trkpt lat="43.42961" lon="5.55052">
        <ele>314</ele>
        <time>2017-03-03T12:07:25Z</time>
      </trkpt>
      <trkpt lat="43.42959" lon="5.55053">
        <ele>314</ele>
        <time>2017-03-03T12:07:25Z</time>
      </trkpt>
      <trkpt lat="43.42957" lon="5.5505">
        <ele>318</ele>
        <time>2017-03-03T12:07:25Z</time>
      </trkpt>
      <trkpt lat="43.42954" lon="5.55043">
        <ele>318</ele>
        <time>2017-03-03T12:07:41Z</time>
      </trkpt>
      <trkpt lat="43.4295" lon="5.55041">
        <ele>308</ele>
        <time>2017-03-03T12:07:41Z</time>
      </trkpt>
      <trkpt lat="43.42948" lon="5.55038">
        <ele>308</ele>
        <time>2017-03-03T12:07:41Z</time>
      </trkpt>
      <trkpt lat="43.42943" lon="5.55035">
        <ele>308</ele>
        <time>2017-03-03T12:07:41Z</time>
      </trkpt>
      <trkpt lat="43.42938" lon="5.55028">
        <ele>308</ele>
        <time>2017-03-03T12:07:57Z</time>
      </trkpt>
      <trkpt lat="43.42934" lon="5.55028">
        <ele>308</ele>
        <time>2017-03-03T12:07:57Z</time>
      </trkpt>
      <trkpt lat="43.4293" lon="5.55023">
        <ele>308</ele>
        <time>2017-03-03T12:07:57Z</time>
      </trkpt>
      <trkpt lat="43.42925" lon="5.55018">
        <ele>308</ele>
        <time>2017-03-03T12:07:57Z</time>
      </trkpt>
      <trkpt lat="43.42922" lon="5.55016">
        <ele>308</ele>
        <time>2017-03-03T12:08:21Z</time>
      </trkpt>
      <trkpt lat="43.42921" lon="5.55012">
        <ele>308</ele>
        <time>2017-03-03T12:08:21Z</time>
      </trkpt>
      <trkpt lat="43.42923" lon="5.5501">
        <ele>308</ele>
        <time>2017-03-03T12:08:21Z</time>
      </trkpt>
      <trkpt lat="43.42924" lon="5.55007">
        <ele>308</ele>
        <time>2017-03-03T12:08:21Z</time>
      </trkpt>
      <trkpt lat="43.42929" lon="5.55002">
        <ele>308</ele>
        <time>2017-03-03T12:08:21Z</time>
      </trkpt>
      <trkpt lat="43.42932" lon="5.54998">
        <ele>308</ele>
        <time>2017-03-03T12:08:49Z</time>
      </trkpt>
      <trkpt lat="43.42932" lon="5.54995">
        <ele>308</ele>
        <time>2017-03-03T12:08:49Z</time>
      </trkpt>
      <trkpt lat="43.42932" lon="5.54993">
        <ele>308</ele>
        <time>2017-03-03T12:08:49Z</time>
      </trkpt>
      <trkpt lat="43.42932" lon="5.54992">
        <ele>308</ele>
        <time>2017-03-03T12:08:49Z</time>
      </trkpt>
      <trkpt lat="43.42934" lon="5.54988">
        <ele>308</ele>
        <time>2017-03-03T12:08:49Z</time>
      </trkpt>
      <trkpt lat="43.42935" lon="5.54978">
        <ele>308</ele>
        <time>2017-03-03T12:09:17Z</time>
      </trkpt>
      <trkpt lat="43.42937" lon="5.54976">
        <ele>308</ele>
        <time>2017-03-03T12:09:17Z</time>
      </trkpt>
      <trkpt lat="43.42938" lon="5.54976">
        <ele>308</ele>
        <time>2017-03-03T12:09:17Z</time>
      </trkpt>
      <trkpt lat="43.42938" lon="5.54974">
        <ele>308</ele>
        <time>2017-03-03T12:09:17Z</time>
      </trkpt>
      <trkpt lat="43.4294" lon="5.5497">
        <ele>308</ele>
        <time>2017-03-03T12:09:17Z</time>
      </trkpt>
      <trkpt lat="43.42937" lon="5.54969">
        <ele>308</ele>
        <time>2017-03-03T12:10:41Z</time>
      </trkpt>
      <trkpt lat="43.42941" lon="5.54972">
        <ele>308</ele>
        <time>2017-03-03T12:10:41Z</time>
      </trkpt>
      <trkpt lat="43.42944" lon="5.54974">
        <ele>308</ele>
        <time>2017-03-03T12:10:41Z</time>
      </trkpt>
      <trkpt lat="43.42947" lon="5.54977">
        <ele>308</ele>
        <time>2017-03-03T12:10:41Z</time>
      </trkpt>
      <trkpt lat="43.42951" lon="5.54981">
        <ele>308</ele>
        <time>2017-03-03T12:10:41Z</time>
      </trkpt>
      <trkpt lat="43.42953" lon="5.54983">
        <ele>308</ele>
        <time>2017-03-03T12:10:57Z</time>
      </trkpt>
      <trkpt lat="43.42956" lon="5.54984">
        <ele>308</ele>
        <time>2017-03-03T12:10:57Z</time>
      </trkpt>
      <trkpt lat="43.42961" lon="5.5499">
        <ele>304</ele>
        <time>2017-03-03T12:10:57Z</time>
      </trkpt>
      <trkpt lat="43.42964" lon="5.54993">
        <ele>304</ele>
        <time>2017-03-03T12:10:57Z</time>
      </trkpt>
      <trkpt lat="43.42967" lon="5.54993">
        <ele>304</ele>
        <time>2017-03-03T12:11:13Z</time>
      </trkpt>
      <trkpt lat="43.42972" lon="5.54994">
        <ele>304</ele>
        <time>2017-03-03T12:11:13Z</time>
      </trkpt>
      <trkpt lat="43.42976" lon="5.54992">
        <ele>304</ele>
        <time>2017-03-03T12:11:13Z</time>
      </trkpt>
      <trkpt lat="43.42976" lon="5.54994">
        <ele>304</ele>
        <time>2017-03-03T12:11:13Z</time>
      </trkpt>
      <trkpt lat="43.42976" lon="5.54995">
        <ele>304</ele>
        <time>2017-03-03T12:11:29Z</time>
      </trkpt>
      <trkpt lat="43.42978" lon="5.54996">
        <ele>304</ele>
        <time>2017-03-03T12:11:29Z</time>
      </trkpt>
      <trkpt lat="43.42983" lon="5.54997">
        <ele>304</ele>
        <time>2017-03-03T12:11:29Z</time>
      </trkpt>
      <trkpt lat="43.42987" lon="5.54999">
        <ele>304</ele>
        <time>2017-03-03T12:11:29Z</time>
      </trkpt>
      <trkpt lat="43.4299" lon="5.55">
        <ele>304</ele>
        <time>2017-03-03T12:11:45Z</time>
      </trkpt>
      <trkpt lat="43.42994" lon="5.55">
        <ele>304</ele>
        <time>2017-03-03T12:11:45Z</time>
      </trkpt>
      <trkpt lat="43.43" lon="5.55001">
        <ele>304</ele>
        <time>2017-03-03T12:11:45Z</time>
      </trkpt>
      <trkpt lat="43.43004" lon="5.55">
        <ele>304</ele>
        <time>2017-03-03T12:11:45Z</time>
      </trkpt>
      <trkpt lat="43.43009" lon="5.54997">
        <ele>304</ele>
        <time>2017-03-03T12:12:01Z</time>
      </trkpt>
      <trkpt lat="43.43012" lon="5.54996">
        <ele>304</ele>
        <time>2017-03-03T12:12:01Z</time>
      </trkpt>
      <trkpt lat="43.43016" lon="5.54998">
        <ele>304</ele>
        <time>2017-03-03T12:12:01Z</time>
      </trkpt>
      <trkpt lat="43.43021" lon="5.54998">
        <ele>304</ele>
        <time>2017-03-03T12:12:01Z</time>
      </trkpt>
      <trkpt lat="43.43028" lon="5.55">
        <ele>304</ele>
        <time>2017-03-03T12:12:25Z</time>
      </trkpt>
      <trkpt lat="43.43029" lon="5.54999">
        <ele>304</ele>
        <time>2017-03-03T12:12:25Z</time>
      </trkpt>
      <trkpt lat="43.43029" lon="5.54999">
        <ele>304</ele>
        <time>2017-03-03T12:12:25Z</time>
      </trkpt>
      <trkpt lat="43.43031" lon="5.54998">
        <ele>304</ele>
        <time>2017-03-03T12:12:25Z</time>
      </trkpt>
      <trkpt lat="43.43035" lon="5.54992">
        <ele>304</ele>
        <time>2017-03-03T12:12:25Z</time>
      </trkpt>
      <trkpt lat="43.43038" lon="5.54989">
        <ele>304</ele>
        <time>2017-03-03T12:12:41Z</time>
      </trkpt>
      <trkpt lat="43.43042" lon="5.54988">
        <ele>302</ele>
        <time>2017-03-03T12:12:41Z</time>
      </trkpt>
      <trkpt lat="43.43048" lon="5.54982">
        <ele>302</ele>
        <time>2017-03-03T12:12:41Z</time>
      </trkpt>
      <trkpt lat="43.4305" lon="5.54981">
        <ele>302</ele>
        <time>2017-03-03T12:12:41Z</time>
      </trkpt>
      <trkpt lat="43.43053" lon="5.54979">
        <ele>302</ele>
        <time>2017-03-03T12:12:57Z</time>
      </trkpt>
      <trkpt lat="43.43056" lon="5.54977">
        <ele>302</ele>
        <time>2017-03-03T12:12:57Z</time>
      </trkpt>
      <trkpt lat="43.43061" lon="5.54972">
        <ele>302</ele>
        <time>2017-03-03T12:12:57Z</time>
      </trkpt>
      <trkpt lat="43.43064" lon="5.54969">
        <ele>302</ele>
        <time>2017-03-03T12:12:57Z</time>
      </trkpt>
      <trkpt lat="43.43069" lon="5.54967">
        <ele>302</ele>
        <time>2017-03-03T12:13:13Z</time>
      </trkpt>
      <trkpt lat="43.43072" lon="5.54962">
        <ele>302</ele>
        <time>2017-03-03T12:13:13Z</time>
      </trkpt>
      <trkpt lat="43.43074" lon="5.54959">
        <ele>302</ele>
        <time>2017-03-03T12:13:13Z</time>
      </trkpt>
      <trkpt lat="43.43076" lon="5.54955">
        <ele>302</ele>
        <time>2017-03-03T12:13:13Z</time>
      </trkpt>
      <trkpt lat="43.43077" lon="5.54952">
        <ele>302</ele>
        <time>2017-03-03T12:13:29Z</time>
      </trkpt>
      <trkpt lat="43.43081" lon="5.54952">
        <ele>302</ele>
        <time>2017-03-03T12:13:29Z</time>
      </trkpt>
      <trkpt lat="43.43086" lon="5.54951">
        <ele>302</ele>
        <time>2017-03-03T12:13:29Z</time>
      </trkpt>
      <trkpt lat="43.43088" lon="5.5495">
        <ele>302</ele>
        <time>2017-03-03T12:13:29Z</time>
      </trkpt>
      <trkpt lat="43.43088" lon="5.54943">
        <ele>302</ele>
        <time>2017-03-03T12:13:45Z</time>
      </trkpt>
      <trkpt lat="43.43092" lon="5.54936">
        <ele>302</ele>
        <time>2017-03-03T12:13:45Z</time>
      </trkpt>
      <trkpt lat="43.43095" lon="5.54932">
        <ele>302</ele>
        <time>2017-03-03T12:13:45Z</time>
      </trkpt>
      <trkpt lat="43.43099" lon="5.5493">
        <ele>302</ele>
        <time>2017-03-03T12:13:45Z</time>
      </trkpt>
      <trkpt lat="43.43109" lon="5.54925">
        <ele>302</ele>
        <time>2017-03-03T12:14:13Z</time>
      </trkpt>
      <trkpt lat="43.43109" lon="5.54926">
        <ele>302</ele>
        <time>2017-03-03T12:14:13Z</time>
      </trkpt>
      <trkpt lat="43.43108" lon="5.54932">
        <ele>302</ele>
        <time>2017-03-03T12:14:13Z</time>
      </trkpt>
      <trkpt lat="43.43109" lon="5.54939">
        <ele>302</ele>
        <time>2017-03-03T12:14:13Z</time>
      </trkpt>
      <trkpt lat="43.43112" lon="5.54941">
        <ele>302</ele>
        <time>2017-03-03T12:14:13Z</time>
      </trkpt>
      <trkpt lat="43.43115" lon="5.54941">
        <ele>302</ele>
        <time>2017-03-03T12:14:29Z</time>
      </trkpt>
      <trkpt lat="43.43119" lon="5.54939">
        <ele>302</ele>
        <time>2017-03-03T12:14:29Z</time>
      </trkpt>
      <trkpt lat="43.43123" lon="5.54937">
        <ele>302</ele>
        <time>2017-03-03T12:14:29Z</time>
      </trkpt>
      <trkpt lat="43.43127" lon="5.54938">
        <ele>302</ele>
        <time>2017-03-03T12:14:29Z</time>
      </trkpt>
      <trkpt lat="43.43134" lon="5.54927">
        <ele>302</ele>
        <time>2017-03-03T12:15:06Z</time>
      </trkpt>
      <trkpt lat="43.43134" lon="5.54926">
        <ele>302</ele>
        <time>2017-03-03T12:15:06Z</time>
      </trkpt>
      <trkpt lat="43.43134" lon="5.54924">
        <ele>302</ele>
        <time>2017-03-03T12:15:06Z</time>
      </trkpt>
      <trkpt lat="43.43133" lon="5.5492">
        <ele>302</ele>
        <time>2017-03-03T12:15:06Z</time>
      </trkpt>
      <trkpt lat="43.43134" lon="5.54917">
        <ele>302</ele>
        <time>2017-03-03T12:15:06Z</time>
      </trkpt>
      <trkpt lat="43.43136" lon="5.5491">
        <ele>302</ele>
        <time>2017-03-03T12:15:33Z</time>
      </trkpt>
      <trkpt lat="43.43139" lon="5.54911">
        <ele>302</ele>
        <time>2017-03-03T12:15:33Z</time>
      </trkpt>
      <trkpt lat="43.43143" lon="5.5491">
        <ele>302</ele>
        <time>2017-03-03T12:15:33Z</time>
      </trkpt>
      <trkpt lat="43.43147" lon="5.54909">
        <ele>302</ele>
        <time>2017-03-03T12:15:33Z</time>
      </trkpt>
      <trkpt lat="43.43148" lon="5.54907">
        <ele>302</ele>
        <time>2017-03-03T12:15:33Z</time>
      </trkpt>
      <trkpt lat="43.4315" lon="5.54901">
        <ele>302</ele>
        <time>2017-03-03T12:15:53Z</time>
      </trkpt>
      <trkpt lat="43.43151" lon="5.54898">
        <ele>302</ele>
        <time>2017-03-03T12:15:53Z</time>
      </trkpt>
      <trkpt lat="43.43152" lon="5.54895">
        <ele>302</ele>
        <time>2017-03-03T12:15:53Z</time>
      </trkpt>
      <trkpt lat="43.43155" lon="5.54894">
        <ele>302</ele>
        <time>2017-03-03T12:15:53Z</time>
      </trkpt>
      <trkpt lat="43.43157" lon="5.54892">
        <ele>302</ele>
        <time>2017-03-03T12:15:53Z</time>
      </trkpt>
      <trkpt lat="43.43162" lon="5.54891">
        <ele>302</ele>
        <time>2017-03-03T12:16:17Z</time>
      </trkpt>
      <trkpt lat="43.43163" lon="5.54891">
        <ele>302</ele>
        <time>2017-03-03T12:16:17Z</time>
      </trkpt>
      <trkpt lat="43.43163" lon="5.5489">
        <ele>302</ele>
        <time>2017-03-03T12:16:17Z</time>
      </trkpt>
      <trkpt lat="43.43167" lon="5.54889">
        <ele>302</ele>
        <time>2017-03-03T12:16:17Z</time>
      </trkpt>
      <trkpt lat="43.43169" lon="5.54888">
        <ele>302</ele>
        <time>2017-03-03T12:16:17Z</time>
      </trkpt>
      <trkpt lat="43.4317" lon="5.54888">
        <ele>302</ele>
        <time>2017-03-03T12:16:37Z</time>
      </trkpt>
      <trkpt lat="43.43169" lon="5.54886">
        <ele>302</ele>
        <time>2017-03-03T12:16:37Z</time>
      </trkpt>
      <trkpt lat="43.43169" lon="5.54883">
        <ele>302</ele>
        <time>2017-03-03T12:16:37Z</time>
      </trkpt>
      <trkpt lat="43.43165" lon="5.54881">
        <ele>302</ele>
        <time>2017-03-03T12:16:37Z</time>
      </trkpt>
      <trkpt lat="43.43163" lon="5.54881">
        <ele>302</ele>
        <time>2017-03-03T12:16:37Z</time>
      </trkpt>
      <trkpt lat="43.43156" lon="5.5488">
        <ele>302</ele>
        <time>2017-03-03T12:17:01Z</time>
      </trkpt>
      <trkpt lat="43.43155" lon="5.54882">
        <ele>302</ele>
        <time>2017-03-03T12:17:01Z</time>
      </trkpt>
      <trkpt lat="43.43153" lon="5.54881">
        <ele>302</ele>
        <time>2017-03-03T12:17:01Z</time>
      </trkpt>
      <trkpt lat="43.43151" lon="5.5488">
        <ele>302</ele>
        <time>2017-03-03T12:17:01Z</time>
      </trkpt>
      <trkpt lat="43.43147" lon="5.54877">
        <ele>302</ele>
        <time>2017-03-03T12:17:01Z</time>
      </trkpt>
      <trkpt lat="43.43144" lon="5.54873">
        <ele>311</ele>
        <time>2017-03-03T12:17:17Z</time>
      </trkpt>
      <trkpt lat="43.43142" lon="5.5487">
        <ele>311</ele>
        <time>2017-03-03T12:17:17Z</time>
      </trkpt>
      <trkpt lat="43.43141" lon="5.54865">
        <ele>311</ele>
        <time>2017-03-03T12:17:17Z</time>
      </trkpt>
      <trkpt lat="43.4314" lon="5.54857">
        <ele>311</ele>
        <time>2017-03-03T12:17:17Z</time>
      </trkpt>
      <trkpt lat="43.4314" lon="5.54853">
        <ele>311</ele>
        <time>2017-03-03T12:17:33Z</time>
      </trkpt>
      <trkpt lat="43.4314" lon="5.54848">
        <ele>311</ele>
        <time>2017-03-03T12:17:33Z</time>
      </trkpt>
      <trkpt lat="43.43139" lon="5.54843">
        <ele>311</ele>
        <time>2017-03-03T12:17:33Z</time>
      </trkpt>
      <trkpt lat="43.43136" lon="5.54837">
        <ele>311</ele>
        <time>2017-03-03T12:17:33Z</time>
      </trkpt>
      <trkpt lat="43.43135" lon="5.54828">
        <ele>311</ele>
        <time>2017-03-03T12:18:09Z</time>
      </trkpt>
      <trkpt lat="43.43138" lon="5.54835">
        <ele>311</ele>
        <time>2017-03-03T12:18:09Z</time>
      </trkpt>
      <trkpt lat="43.43139" lon="5.54838">
        <ele>311</ele>
        <time>2017-03-03T12:18:09Z</time>
      </trkpt>
      <trkpt lat="43.4314" lon="5.54837">
        <ele>311</ele>
        <time>2017-03-03T12:18:09Z</time>
      </trkpt>
      <trkpt lat="43.43142" lon="5.5484">
        <ele>311</ele>
        <time>2017-03-03T12:18:09Z</time>
      </trkpt>
      <trkpt lat="43.43145" lon="5.54844">
        <ele>311</ele>
        <time>2017-03-03T12:18:25Z</time>
      </trkpt>
      <trkpt lat="43.43147" lon="5.54848">
        <ele>311</ele>
        <time>2017-03-03T12:18:25Z</time>
      </trkpt>
      <trkpt lat="43.4315" lon="5.5485">
        <ele>311</ele>
        <time>2017-03-03T12:18:25Z</time>
      </trkpt>
      <trkpt lat="43.43153" lon="5.5485">
        <ele>311</ele>
        <time>2017-03-03T12:18:25Z</time>
      </trkpt>
      <trkpt lat="43.43156" lon="5.54852">
        <ele>311</ele>
        <time>2017-03-03T12:18:49Z</time>
      </trkpt>
      <trkpt lat="43.43158" lon="5.54852">
        <ele>311</ele>
        <time>2017-03-03T12:18:49Z</time>
      </trkpt>
      <trkpt lat="43.43161" lon="5.54852">
        <ele>311</ele>
        <time>2017-03-03T12:18:49Z</time>
      </trkpt>
      <trkpt lat="43.43164" lon="5.54855">
        <ele>311</ele>
        <time>2017-03-03T12:18:49Z</time>
      </trkpt>
      <trkpt lat="43.43166" lon="5.54856">
        <ele>311</ele>
        <time>2017-03-03T12:18:49Z</time>
      </trkpt>
      <trkpt lat="43.43167" lon="5.54857">
        <ele>311</ele>
        <time>2017-03-03T12:19:05Z</time>
      </trkpt>
      <trkpt lat="43.43169" lon="5.54854">
        <ele>311</ele>
        <time>2017-03-03T12:19:05Z</time>
      </trkpt>
      <trkpt lat="43.43171" lon="5.54848">
        <ele>311</ele>
        <time>2017-03-03T12:19:05Z</time>
      </trkpt>
      <trkpt lat="43.43178" lon="5.54842">
        <ele>311</ele>
        <time>2017-03-03T12:19:05Z</time>
      </trkpt>
      <trkpt lat="43.43178" lon="5.5484">
        <ele>311</ele>
        <time>2017-03-03T12:19:25Z</time>
      </trkpt>
      <trkpt lat="43.43179" lon="5.54838">
        <ele>311</ele>
        <time>2017-03-03T12:19:25Z</time>
      </trkpt>
      <trkpt lat="43.4318" lon="5.54832">
        <ele>311</ele>
        <time>2017-03-03T12:19:25Z</time>
      </trkpt>
      <trkpt lat="43.4318" lon="5.5483">
        <ele>311</ele>
        <time>2017-03-03T12:19:25Z</time>
      </trkpt>
      <trkpt lat="43.43182" lon="5.54825">
        <ele>311</ele>
        <time>2017-03-03T12:19:25Z</time>
      </trkpt>
      <trkpt lat="43.43183" lon="5.54821">
        <ele>311</ele>
        <time>2017-03-03T12:19:41Z</time>
      </trkpt>
      <trkpt lat="43.43183" lon="5.54814">
        <ele>311</ele>
        <time>2017-03-03T12:19:41Z</time>
      </trkpt>
      <trkpt lat="43.43185" lon="5.54812">
        <ele>311</ele>
        <time>2017-03-03T12:19:41Z</time>
      </trkpt>
      <trkpt lat="43.43188" lon="5.54808">
        <ele>311</ele>
        <time>2017-03-03T12:19:41Z</time>
      </trkpt>
      <trkpt lat="43.43189" lon="5.54804">
        <ele>311</ele>
        <time>2017-03-03T12:19:57Z</time>
      </trkpt>
      <trkpt lat="43.43192" lon="5.54798">
        <ele>311</ele>
        <time>2017-03-03T12:19:57Z</time>
      </trkpt>
      <trkpt lat="43.43192" lon="5.54792">
        <ele>311</ele>
        <time>2017-03-03T12:19:57Z</time>
      </trkpt>
      <trkpt lat="43.43191" lon="5.54785">
        <ele>315</ele>
        <time>2017-03-03T12:19:57Z</time>
      </trkpt>
      <trkpt lat="43.4319" lon="5.54779">
        <ele>315</ele>
        <time>2017-03-03T12:20:13Z</time>
      </trkpt>
      <trkpt lat="43.43191" lon="5.54774">
        <ele>315</ele>
        <time>2017-03-03T12:20:13Z</time>
      </trkpt>
      <trkpt lat="43.43192" lon="5.54769">
        <ele>315</ele>
        <time>2017-03-03T12:20:13Z</time>
      </trkpt>
      <trkpt lat="43.43191" lon="5.54764">
        <ele>315</ele>
        <time>2017-03-03T12:20:13Z</time>
      </trkpt>
      <trkpt lat="43.43193" lon="5.54759">
        <ele>315</ele>
        <time>2017-03-03T12:20:33Z</time>
      </trkpt>
      <trkpt lat="43.43195" lon="5.54755">
        <ele>315</ele>
        <time>2017-03-03T12:20:33Z</time>
      </trkpt>
      <trkpt lat="43.43195" lon="5.54752">
        <ele>315</ele>
        <time>2017-03-03T12:20:33Z</time>
      </trkpt>
      <trkpt lat="43.43195" lon="5.54747">
        <ele>315</ele>
        <time>2017-03-03T12:20:33Z</time>
      </trkpt>
      <trkpt lat="43.43195" lon="5.54742">
        <ele>315</ele>
        <time>2017-03-03T12:20:33Z</time>
      </trkpt>
      <trkpt lat="43.43195" lon="5.54738">
        <ele>315</ele>
        <time>2017-03-03T12:20:49Z</time>
      </trkpt>
      <trkpt lat="43.43196" lon="5.54729">
        <ele>315</ele>
        <time>2017-03-03T12:20:49Z</time>
      </trkpt>
      <trkpt lat="43.43196" lon="5.54721">
        <ele>315</ele>
        <time>2017-03-03T12:20:49Z</time>
      </trkpt>
      <trkpt lat="43.43196" lon="5.54714">
        <ele>315</ele>
        <time>2017-03-03T12:20:49Z</time>
      </trkpt>
      <trkpt lat="43.43196" lon="5.54711">
        <ele>315</ele>
        <time>2017-03-03T12:21:09Z</time>
      </trkpt>
      <trkpt lat="43.43197" lon="5.54708">
        <ele>314</ele>
        <time>2017-03-03T12:21:09Z</time>
      </trkpt>
      <trkpt lat="43.43198" lon="5.54706">
        <ele>314</ele>
        <time>2017-03-03T12:21:09Z</time>
      </trkpt>
      <trkpt lat="43.43198" lon="5.54703">
        <ele>314</ele>
        <time>2017-03-03T12:21:09Z</time>
      </trkpt>
      <trkpt lat="43.43198" lon="5.54698">
        <ele>314</ele>
        <time>2017-03-03T12:21:09Z</time>
      </trkpt>
      <trkpt lat="43.43203" lon="5.54689">
        <ele>314</ele>
        <time>2017-03-03T12:22:53Z</time>
      </trkpt>
      <trkpt lat="43.43205" lon="5.54689">
        <ele>314</ele>
        <time>2017-03-03T12:22:53Z</time>
      </trkpt>
      <trkpt lat="43.43208" lon="5.5469">
        <ele>314</ele>
        <time>2017-03-03T12:22:53Z</time>
      </trkpt>
      <trkpt lat="43.43209" lon="5.54689">
        <ele>310</ele>
        <time>2017-03-03T12:22:53Z</time>
      </trkpt>
      <trkpt lat="43.43209" lon="5.54689">
        <ele>310</ele>
        <time>2017-03-03T12:22:53Z</time>
      </trkpt>
    </trkseg>
  </trk>
</gpx>